<?xml version="1.0" encoding="UTF-8" standalone="yes"?>
<gpx
 xmlns="http://www.topografix.com/GPX/1/1"
 creator="OziExplorer Version 3956f - http://www.oziexplorer.com"
 version="1.1"
 xmlns:xsi="http://www.w3.org/2001/XMLSchema-instance"
 xsi:schemaLocation="http://www.topografix.com/GPX/1/1 http://www.topografix.com/GPX/1/1/gpx.xsd">
<metadata>
 <time>2024-05-01T18:00:09Z</time>
 <bounds minlat="32.219960" minlon="34.981710" maxlat="32.245320" maxlon="35.040620"/>
</metadata>
<trk>
 <name>Kichis-Nahal Alexandr_Sin_26km,380m</name>
 <desc>Kichis-Nahal Alexandr_Sin_26km,380m</desc>
<trkseg>
<trkpt lat="32.2208600" lon="34.9823900">
<ele>77.029999</ele>
<time>2024-05-01T21:00:09.750Z</time>
</trkpt>
<trkpt lat="32.2208600" lon="34.9823600">
<ele>77.120003</ele>
<time>2024-05-01T21:00:09.750Z</time>
</trkpt>
<trkpt lat="32.2208800" lon="34.9823300">
<ele>76.900002</ele>
<time>2024-05-01T21:00:09.750Z</time>
</trkpt>
<trkpt lat="32.2209400" lon="34.9822200">
<ele>76.080002</ele>
<time>2024-05-01T21:00:09.750Z</time>
</trkpt>
<trkpt lat="32.2209400" lon="34.9821000">
<ele>75.909996</ele>
<time>2024-05-01T21:00:09.750Z</time>
</trkpt>
<trkpt lat="32.2210200" lon="34.9820200">
<ele>74.150002</ele>
<time>2024-05-01T21:00:09.751Z</time>
</trkpt>
<trkpt lat="32.2211300" lon="34.9819700">
<ele>71.830002</ele>
<time>2024-05-01T21:00:09.751Z</time>
</trkpt>
<trkpt lat="32.2212500" lon="34.9819400">
<ele>69.979996</ele>
<time>2024-05-01T21:00:09.751Z</time>
</trkpt>
<trkpt lat="32.2213700" lon="34.9819300">
<ele>68.220001</ele>
<time>2024-05-01T21:00:09.751Z</time>
</trkpt>
<trkpt lat="32.2214700" lon="34.9819300">
<ele>68.220001</ele>
<time>2024-05-01T21:00:09.751Z</time>
</trkpt>
<trkpt lat="32.2215600" lon="34.9819400">
<ele>68.589996</ele>
<time>2024-05-01T21:00:09.751Z</time>
</trkpt>
<trkpt lat="32.2216200" lon="34.9820300">
<ele>69.449997</ele>
<time>2024-05-01T21:00:09.751Z</time>
</trkpt>
<trkpt lat="32.2216600" lon="34.9821200">
<ele>70.239998</ele>
<time>2024-05-01T21:00:09.751Z</time>
</trkpt>
<trkpt lat="32.2216700" lon="34.9822500">
<ele>70.979996</ele>
<time>2024-05-01T21:00:09.751Z</time>
</trkpt>
<trkpt lat="32.2216800" lon="34.9823800">
<ele>70.990005</ele>
<time>2024-05-01T21:00:09.751Z</time>
</trkpt>
<trkpt lat="32.2216900" lon="34.9824900">
<ele>71.070000</ele>
<time>2024-05-01T21:00:09.751Z</time>
</trkpt>
<trkpt lat="32.2217000" lon="34.9826100">
<ele>71.820000</ele>
<time>2024-05-01T21:00:09.751Z</time>
</trkpt>
<trkpt lat="32.2217300" lon="34.9827100">
<ele>72.400002</ele>
<time>2024-05-01T21:00:09.751Z</time>
</trkpt>
<trkpt lat="32.2218100" lon="34.9827900">
<ele>72.610001</ele>
<time>2024-05-01T21:00:09.751Z</time>
</trkpt>
<trkpt lat="32.2219300" lon="34.9828400">
<ele>72.520004</ele>
<time>2024-05-01T21:00:09.751Z</time>
</trkpt>
<trkpt lat="32.2220200" lon="34.9828800">
<ele>72.559998</ele>
<time>2024-05-01T21:00:09.751Z</time>
</trkpt>
<trkpt lat="32.2221100" lon="34.9829400">
<ele>72.919998</ele>
<time>2024-05-01T21:00:09.752Z</time>
</trkpt>
<trkpt lat="32.2221700" lon="34.9830600">
<ele>74.070000</ele>
<time>2024-05-01T21:00:09.752Z</time>
</trkpt>
<trkpt lat="32.2222400" lon="34.9831500">
<ele>75.699997</ele>
<time>2024-05-01T21:00:09.752Z</time>
</trkpt>
<trkpt lat="32.2223300" lon="34.9832200">
<ele>76.959999</ele>
<time>2024-05-01T21:00:09.752Z</time>
</trkpt>
<trkpt lat="32.2224300" lon="34.9833000">
<ele>78.399994</ele>
<time>2024-05-01T21:00:09.752Z</time>
</trkpt>
<trkpt lat="32.2225500" lon="34.9833700">
<ele>78.809998</ele>
<time>2024-05-01T21:00:09.752Z</time>
</trkpt>
<trkpt lat="32.2226800" lon="34.9834200">
<ele>77.720001</ele>
<time>2024-05-01T21:00:09.752Z</time>
</trkpt>
<trkpt lat="32.2228000" lon="34.9834500">
<ele>76.570000</ele>
<time>2024-05-01T21:00:09.752Z</time>
</trkpt>
<trkpt lat="32.2228600" lon="34.9835300">
<ele>77.230003</ele>
<time>2024-05-01T21:00:09.752Z</time>
</trkpt>
<trkpt lat="32.2228700" lon="34.9836600">
<ele>78.849998</ele>
<time>2024-05-01T21:00:09.752Z</time>
</trkpt>
<trkpt lat="32.2228800" lon="34.9837700">
<ele>79.000000</ele>
<time>2024-05-01T21:00:09.752Z</time>
</trkpt>
<trkpt lat="32.2229000" lon="34.9838900">
<ele>78.919998</ele>
<time>2024-05-01T21:00:09.752Z</time>
</trkpt>
<trkpt lat="32.2229100" lon="34.9840000">
<ele>78.459999</ele>
<time>2024-05-01T21:00:09.752Z</time>
</trkpt>
<trkpt lat="32.2229200" lon="34.9841300">
<ele>77.989998</ele>
<time>2024-05-01T21:00:09.752Z</time>
</trkpt>
<trkpt lat="32.2229300" lon="34.9842400">
<ele>77.180000</ele>
<time>2024-05-01T21:00:09.752Z</time>
</trkpt>
<trkpt lat="32.2229500" lon="34.9843600">
<ele>75.889999</ele>
<time>2024-05-01T21:00:09.752Z</time>
</trkpt>
<trkpt lat="32.2229600" lon="34.9844900">
<ele>74.239998</ele>
<time>2024-05-01T21:00:09.752Z</time>
</trkpt>
<trkpt lat="32.2229700" lon="34.9846000">
<ele>72.050003</ele>
<time>2024-05-01T21:00:09.752Z</time>
</trkpt>
<trkpt lat="32.2229500" lon="34.9847200">
<ele>70.320000</ele>
<time>2024-05-01T21:00:09.753Z</time>
</trkpt>
<trkpt lat="32.2228900" lon="34.9848300">
<ele>70.180000</ele>
<time>2024-05-01T21:00:09.753Z</time>
</trkpt>
<trkpt lat="32.2228400" lon="34.9849200">
<ele>69.970001</ele>
<time>2024-05-01T21:00:09.753Z</time>
</trkpt>
<trkpt lat="32.2227700" lon="34.9850100">
<ele>70.269997</ele>
<time>2024-05-01T21:00:09.753Z</time>
</trkpt>
<trkpt lat="32.2226900" lon="34.9850900">
<ele>72.639999</ele>
<time>2024-05-01T21:00:09.753Z</time>
</trkpt>
<trkpt lat="32.2225900" lon="34.9851400">
<ele>75.229996</ele>
<time>2024-05-01T21:00:09.753Z</time>
</trkpt>
<trkpt lat="32.2225000" lon="34.9852000">
<ele>76.680000</ele>
<time>2024-05-01T21:00:09.753Z</time>
</trkpt>
<trkpt lat="32.2224100" lon="34.9852300">
<ele>78.190002</ele>
<time>2024-05-01T21:00:09.753Z</time>
</trkpt>
<trkpt lat="32.2222900" lon="34.9852400">
<ele>80.900002</ele>
<time>2024-05-01T21:00:09.753Z</time>
</trkpt>
<trkpt lat="32.2221600" lon="34.9852400">
<ele>83.860001</ele>
<time>2024-05-01T21:00:09.753Z</time>
</trkpt>
<trkpt lat="32.2220400" lon="34.9852400">
<ele>86.389999</ele>
<time>2024-05-01T21:00:09.753Z</time>
</trkpt>
<trkpt lat="32.2219500" lon="34.9852500">
<ele>88.180000</ele>
<time>2024-05-01T21:00:09.753Z</time>
</trkpt>
<trkpt lat="32.2218400" lon="34.9852500">
<ele>88.149994</ele>
<time>2024-05-01T21:00:09.753Z</time>
</trkpt>
<trkpt lat="32.2217300" lon="34.9852500">
<ele>87.989998</ele>
<time>2024-05-01T21:00:09.753Z</time>
</trkpt>
<trkpt lat="32.2216900" lon="34.9853300">
<ele>87.620003</ele>
<time>2024-05-01T21:00:09.753Z</time>
</trkpt>
<trkpt lat="32.2216000" lon="34.9853900">
<ele>86.430000</ele>
<time>2024-05-01T21:00:09.753Z</time>
</trkpt>
<trkpt lat="32.2214900" lon="34.9854400">
<ele>85.029999</ele>
<time>2024-05-01T21:00:09.753Z</time>
</trkpt>
<trkpt lat="32.2213900" lon="34.9854500">
<ele>84.009995</ele>
<time>2024-05-01T21:00:09.753Z</time>
</trkpt>
<trkpt lat="32.2212900" lon="34.9854400">
<ele>84.799995</ele>
<time>2024-05-01T21:00:09.754Z</time>
</trkpt>
<trkpt lat="32.2212000" lon="34.9854000">
<ele>85.820000</ele>
<time>2024-05-01T21:00:09.754Z</time>
</trkpt>
<trkpt lat="32.2211000" lon="34.9853900">
<ele>86.870003</ele>
<time>2024-05-01T21:00:09.754Z</time>
</trkpt>
<trkpt lat="32.2209900" lon="34.9853600">
<ele>87.979996</ele>
<time>2024-05-01T21:00:09.754Z</time>
</trkpt>
<trkpt lat="32.2208900" lon="34.9853000">
<ele>89.349998</ele>
<time>2024-05-01T21:00:09.754Z</time>
</trkpt>
<trkpt lat="32.2208100" lon="34.9852400">
<ele>90.330002</ele>
<time>2024-05-01T21:00:09.754Z</time>
</trkpt>
<trkpt lat="32.2207300" lon="34.9852200">
<ele>90.630005</ele>
<time>2024-05-01T21:00:09.754Z</time>
</trkpt>
<trkpt lat="32.2206200" lon="34.9852300">
<ele>90.849998</ele>
<time>2024-05-01T21:00:09.754Z</time>
</trkpt>
<trkpt lat="32.2205400" lon="34.9852500">
<ele>91.060005</ele>
<time>2024-05-01T21:00:09.754Z</time>
</trkpt>
<trkpt lat="32.2204400" lon="34.9853200">
<ele>90.869995</ele>
<time>2024-05-01T21:00:09.754Z</time>
</trkpt>
<trkpt lat="32.2203200" lon="34.9853700">
<ele>90.800003</ele>
<time>2024-05-01T21:00:09.754Z</time>
</trkpt>
<trkpt lat="32.2202100" lon="34.9853900">
<ele>90.250000</ele>
<time>2024-05-01T21:00:09.754Z</time>
</trkpt>
<trkpt lat="32.2201200" lon="34.9854000">
<ele>89.479996</ele>
<time>2024-05-01T21:00:09.754Z</time>
</trkpt>
<trkpt lat="32.2200700" lon="34.9854800">
<ele>88.660004</ele>
<time>2024-05-01T21:00:09.754Z</time>
</trkpt>
<trkpt lat="32.2200100" lon="34.9855900">
<ele>88.020004</ele>
<time>2024-05-01T21:00:09.754Z</time>
</trkpt>
<trkpt lat="32.2199800" lon="34.9857000">
<ele>87.970001</ele>
<time>2024-05-01T21:00:09.754Z</time>
</trkpt>
<trkpt lat="32.2199600" lon="34.9858200">
<ele>87.989998</ele>
<time>2024-05-01T21:00:09.754Z</time>
</trkpt>
<trkpt lat="32.2199600" lon="34.9859400">
<ele>87.339996</ele>
<time>2024-05-01T21:00:09.755Z</time>
</trkpt>
<trkpt lat="32.2199600" lon="34.9860700">
<ele>86.540001</ele>
<time>2024-05-01T21:00:09.755Z</time>
</trkpt>
<trkpt lat="32.2199700" lon="34.9861900">
<ele>86.720001</ele>
<time>2024-05-01T21:00:09.755Z</time>
</trkpt>
<trkpt lat="32.2200100" lon="34.9863000">
<ele>87.239998</ele>
<time>2024-05-01T21:00:09.755Z</time>
</trkpt>
<trkpt lat="32.2201000" lon="34.9863900">
<ele>86.570000</ele>
<time>2024-05-01T21:00:09.755Z</time>
</trkpt>
<trkpt lat="32.2201700" lon="34.9864600">
<ele>85.849998</ele>
<time>2024-05-01T21:00:09.755Z</time>
</trkpt>
<trkpt lat="32.2201800" lon="34.9865500">
<ele>86.019997</ele>
<time>2024-05-01T21:00:09.755Z</time>
</trkpt>
<trkpt lat="32.2201700" lon="34.9866500">
<ele>86.650002</ele>
<time>2024-05-01T21:00:09.755Z</time>
</trkpt>
<trkpt lat="32.2201100" lon="34.9867000">
<ele>88.400002</ele>
<time>2024-05-01T21:00:09.755Z</time>
</trkpt>
<trkpt lat="32.2200800" lon="34.9868000">
<ele>89.599998</ele>
<time>2024-05-01T21:00:09.755Z</time>
</trkpt>
<trkpt lat="32.2201000" lon="34.9869100">
<ele>89.669998</ele>
<time>2024-05-01T21:00:09.755Z</time>
</trkpt>
<trkpt lat="32.2201200" lon="34.9870300">
<ele>89.500000</ele>
<time>2024-05-01T21:00:09.755Z</time>
</trkpt>
<trkpt lat="32.2201900" lon="34.9871400">
<ele>88.640007</ele>
<time>2024-05-01T21:00:09.755Z</time>
</trkpt>
<trkpt lat="32.2202100" lon="34.9872800">
<ele>88.780006</ele>
<time>2024-05-01T21:00:09.755Z</time>
</trkpt>
<trkpt lat="32.2202800" lon="34.9873500">
<ele>87.999992</ele>
<time>2024-05-01T21:00:09.755Z</time>
</trkpt>
<trkpt lat="32.2203800" lon="34.9873800">
<ele>88.260002</ele>
<time>2024-05-01T21:00:09.755Z</time>
</trkpt>
<trkpt lat="32.2204600" lon="34.9874300">
<ele>88.820000</ele>
<time>2024-05-01T21:00:09.755Z</time>
</trkpt>
<trkpt lat="32.2205800" lon="34.9874500">
<ele>89.320000</ele>
<time>2024-05-01T21:00:09.755Z</time>
</trkpt>
<trkpt lat="32.2206800" lon="34.9874500">
<ele>88.729996</ele>
<time>2024-05-01T21:00:09.755Z</time>
</trkpt>
<trkpt lat="32.2207700" lon="34.9874400">
<ele>88.139999</ele>
<time>2024-05-01T21:00:09.755Z</time>
</trkpt>
<trkpt lat="32.2208600" lon="34.9874300">
<ele>87.919998</ele>
<time>2024-05-01T21:00:09.755Z</time>
</trkpt>
<trkpt lat="32.2209500" lon="34.9873900">
<ele>88.279999</ele>
<time>2024-05-01T21:00:09.755Z</time>
</trkpt>
<trkpt lat="32.2210400" lon="34.9873700">
<ele>88.669998</ele>
<time>2024-05-01T21:00:09.755Z</time>
</trkpt>
<trkpt lat="32.2211700" lon="34.9873400">
<ele>89.390007</ele>
<time>2024-05-01T21:00:09.755Z</time>
</trkpt>
<trkpt lat="32.2212500" lon="34.9872900">
<ele>89.870003</ele>
<time>2024-05-01T21:00:09.756Z</time>
</trkpt>
<trkpt lat="32.2213400" lon="34.9872400">
<ele>90.549995</ele>
<time>2024-05-01T21:00:09.756Z</time>
</trkpt>
<trkpt lat="32.2214300" lon="34.9872100">
<ele>91.250000</ele>
<time>2024-05-01T21:00:09.756Z</time>
</trkpt>
<trkpt lat="32.2215400" lon="34.9871600">
<ele>91.739998</ele>
<time>2024-05-01T21:00:09.756Z</time>
</trkpt>
<trkpt lat="32.2216300" lon="34.9871400">
<ele>92.180000</ele>
<time>2024-05-01T21:00:09.756Z</time>
</trkpt>
<trkpt lat="32.2217200" lon="34.9871100">
<ele>92.310005</ele>
<time>2024-05-01T21:00:09.756Z</time>
</trkpt>
<trkpt lat="32.2218100" lon="34.9870600">
<ele>92.050003</ele>
<time>2024-05-01T21:00:09.756Z</time>
</trkpt>
<trkpt lat="32.2219100" lon="34.9870500">
<ele>92.089996</ele>
<time>2024-05-01T21:00:09.756Z</time>
</trkpt>
<trkpt lat="32.2220300" lon="34.9870600">
<ele>92.500000</ele>
<time>2024-05-01T21:00:09.756Z</time>
</trkpt>
<trkpt lat="32.2221300" lon="34.9870600">
<ele>92.800003</ele>
<time>2024-05-01T21:00:09.756Z</time>
</trkpt>
<trkpt lat="32.2222300" lon="34.9870700">
<ele>93.150002</ele>
<time>2024-05-01T21:00:09.756Z</time>
</trkpt>
<trkpt lat="32.2223300" lon="34.9871300">
<ele>92.660004</ele>
<time>2024-05-01T21:00:09.756Z</time>
</trkpt>
<trkpt lat="32.2224400" lon="34.9871600">
<ele>91.309998</ele>
<time>2024-05-01T21:00:09.756Z</time>
</trkpt>
<trkpt lat="32.2225200" lon="34.9872600">
<ele>90.940002</ele>
<time>2024-05-01T21:00:09.756Z</time>
</trkpt>
<trkpt lat="32.2225700" lon="34.9873600">
<ele>90.480003</ele>
<time>2024-05-01T21:00:09.756Z</time>
</trkpt>
<trkpt lat="32.2225900" lon="34.9874700">
<ele>90.579994</ele>
<time>2024-05-01T21:00:09.756Z</time>
</trkpt>
<trkpt lat="32.2226800" lon="34.9875700">
<ele>87.949997</ele>
<time>2024-05-01T21:00:09.756Z</time>
</trkpt>
<trkpt lat="32.2227400" lon="34.9876500">
<ele>86.050003</ele>
<time>2024-05-01T21:00:09.756Z</time>
</trkpt>
<trkpt lat="32.2227600" lon="34.9877900">
<ele>85.639999</ele>
<time>2024-05-01T21:00:09.756Z</time>
</trkpt>
<trkpt lat="32.2227700" lon="34.9879500">
<ele>83.489998</ele>
<time>2024-05-01T21:00:09.756Z</time>
</trkpt>
<trkpt lat="32.2227800" lon="34.9880600">
<ele>81.879997</ele>
<time>2024-05-01T21:00:09.756Z</time>
</trkpt>
<trkpt lat="32.2228500" lon="34.9881500">
<ele>79.269997</ele>
<time>2024-05-01T21:00:09.756Z</time>
</trkpt>
<trkpt lat="32.2228800" lon="34.9882400">
<ele>77.570000</ele>
<time>2024-05-01T21:00:09.756Z</time>
</trkpt>
<trkpt lat="32.2228800" lon="34.9883800">
<ele>76.260002</ele>
<time>2024-05-01T21:00:09.756Z</time>
</trkpt>
<trkpt lat="32.2228800" lon="34.9885200">
<ele>76.260002</ele>
<time>2024-05-01T21:00:09.757Z</time>
</trkpt>
<trkpt lat="32.2228600" lon="34.9886600">
<ele>76.299995</ele>
<time>2024-05-01T21:00:09.757Z</time>
</trkpt>
<trkpt lat="32.2228200" lon="34.9887900">
<ele>76.500000</ele>
<time>2024-05-01T21:00:09.757Z</time>
</trkpt>
<trkpt lat="32.2227800" lon="34.9889100">
<ele>76.970001</ele>
<time>2024-05-01T21:00:09.757Z</time>
</trkpt>
<trkpt lat="32.2227500" lon="34.9890200">
<ele>77.510002</ele>
<time>2024-05-01T21:00:09.757Z</time>
</trkpt>
<trkpt lat="32.2227400" lon="34.9891400">
<ele>77.570000</ele>
<time>2024-05-01T21:00:09.757Z</time>
</trkpt>
<trkpt lat="32.2227200" lon="34.9892800">
<ele>78.239998</ele>
<time>2024-05-01T21:00:09.757Z</time>
</trkpt>
<trkpt lat="32.2227200" lon="34.9894200">
<ele>78.740005</ele>
<time>2024-05-01T21:00:09.757Z</time>
</trkpt>
<trkpt lat="32.2227300" lon="34.9895600">
<ele>79.449997</ele>
<time>2024-05-01T21:00:09.757Z</time>
</trkpt>
<trkpt lat="32.2227200" lon="34.9897000">
<ele>80.479996</ele>
<time>2024-05-01T21:00:09.757Z</time>
</trkpt>
<trkpt lat="32.2227400" lon="34.9898500">
<ele>81.729996</ele>
<time>2024-05-01T21:00:09.757Z</time>
</trkpt>
<trkpt lat="32.2227600" lon="34.9899500">
<ele>82.599998</ele>
<time>2024-05-01T21:00:09.757Z</time>
</trkpt>
<trkpt lat="32.2228000" lon="34.9901000">
<ele>82.550003</ele>
<time>2024-05-01T21:00:09.757Z</time>
</trkpt>
<trkpt lat="32.2228200" lon="34.9902000">
<ele>82.199997</ele>
<time>2024-05-01T21:00:09.757Z</time>
</trkpt>
<trkpt lat="32.2228300" lon="34.9903400">
<ele>81.980003</ele>
<time>2024-05-01T21:00:09.757Z</time>
</trkpt>
<trkpt lat="32.2228500" lon="34.9904500">
<ele>81.379997</ele>
<time>2024-05-01T21:00:09.757Z</time>
</trkpt>
<trkpt lat="32.2229000" lon="34.9905300">
<ele>80.000000</ele>
<time>2024-05-01T21:00:09.757Z</time>
</trkpt>
<trkpt lat="32.2229100" lon="34.9906300">
<ele>79.110001</ele>
<time>2024-05-01T21:00:09.757Z</time>
</trkpt>
<trkpt lat="32.2229300" lon="34.9907700">
<ele>77.770004</ele>
<time>2024-05-01T21:00:09.758Z</time>
</trkpt>
<trkpt lat="32.2229700" lon="34.9909000">
<ele>77.330002</ele>
<time>2024-05-01T21:00:09.758Z</time>
</trkpt>
<trkpt lat="32.2229700" lon="34.9910300">
<ele>78.120003</ele>
<time>2024-05-01T21:00:09.758Z</time>
</trkpt>
<trkpt lat="32.2229900" lon="34.9911500">
<ele>78.750000</ele>
<time>2024-05-01T21:00:09.758Z</time>
</trkpt>
<trkpt lat="32.2229900" lon="34.9912700">
<ele>79.619995</ele>
<time>2024-05-01T21:00:09.758Z</time>
</trkpt>
<trkpt lat="32.2230000" lon="34.9914000">
<ele>80.410004</ele>
<time>2024-05-01T21:00:09.758Z</time>
</trkpt>
<trkpt lat="32.2230200" lon="34.9915100">
<ele>80.309998</ele>
<time>2024-05-01T21:00:09.758Z</time>
</trkpt>
<trkpt lat="32.2230300" lon="34.9916200">
<ele>80.260002</ele>
<time>2024-05-01T21:00:09.758Z</time>
</trkpt>
<trkpt lat="32.2230600" lon="34.9917700">
<ele>79.909996</ele>
<time>2024-05-01T21:00:09.758Z</time>
</trkpt>
<trkpt lat="32.2231100" lon="34.9918500">
<ele>78.949997</ele>
<time>2024-05-01T21:00:09.758Z</time>
</trkpt>
<trkpt lat="32.2232100" lon="34.9918900">
<ele>77.110001</ele>
<time>2024-05-01T21:00:09.758Z</time>
</trkpt>
<trkpt lat="32.2233000" lon="34.9918600">
<ele>75.330002</ele>
<time>2024-05-01T21:00:09.758Z</time>
</trkpt>
<trkpt lat="32.2234100" lon="34.9918000">
<ele>73.910004</ele>
<time>2024-05-01T21:00:09.758Z</time>
</trkpt>
<trkpt lat="32.2234800" lon="34.9917300">
<ele>72.599998</ele>
<time>2024-05-01T21:00:09.758Z</time>
</trkpt>
<trkpt lat="32.2235700" lon="34.9916300">
<ele>70.650002</ele>
<time>2024-05-01T21:00:09.758Z</time>
</trkpt>
<trkpt lat="32.2236200" lon="34.9915300">
<ele>70.139999</ele>
<time>2024-05-01T21:00:09.758Z</time>
</trkpt>
<trkpt lat="32.2236900" lon="34.9914300">
<ele>70.979996</ele>
<time>2024-05-01T21:00:09.758Z</time>
</trkpt>
<trkpt lat="32.2237700" lon="34.9913400">
<ele>71.940002</ele>
<time>2024-05-01T21:00:09.758Z</time>
</trkpt>
<trkpt lat="32.2238200" lon="34.9912300">
<ele>72.680000</ele>
<time>2024-05-01T21:00:09.758Z</time>
</trkpt>
<trkpt lat="32.2238700" lon="34.9911300">
<ele>72.989998</ele>
<time>2024-05-01T21:00:09.758Z</time>
</trkpt>
<trkpt lat="32.2239600" lon="34.9911100">
<ele>76.330002</ele>
<time>2024-05-01T21:00:09.758Z</time>
</trkpt>
<trkpt lat="32.2240600" lon="34.9911000">
<ele>80.959999</ele>
<time>2024-05-01T21:00:09.758Z</time>
</trkpt>
<trkpt lat="32.2241600" lon="34.9911100">
<ele>85.680000</ele>
<time>2024-05-01T21:00:09.758Z</time>
</trkpt>
<trkpt lat="32.2242500" lon="34.9911200">
<ele>86.050003</ele>
<time>2024-05-01T21:00:09.758Z</time>
</trkpt>
<trkpt lat="32.2243500" lon="34.9911300">
<ele>86.159996</ele>
<time>2024-05-01T21:00:09.759Z</time>
</trkpt>
<trkpt lat="32.2244500" lon="34.9911400">
<ele>86.190002</ele>
<time>2024-05-01T21:00:09.759Z</time>
</trkpt>
<trkpt lat="32.2245500" lon="34.9911700">
<ele>84.360001</ele>
<time>2024-05-01T21:00:09.759Z</time>
</trkpt>
<trkpt lat="32.2246300" lon="34.9912200">
<ele>83.170006</ele>
<time>2024-05-01T21:00:09.759Z</time>
</trkpt>
<trkpt lat="32.2247100" lon="34.9912600">
<ele>81.869995</ele>
<time>2024-05-01T21:00:09.759Z</time>
</trkpt>
<trkpt lat="32.2248000" lon="34.9913200">
<ele>79.879997</ele>
<time>2024-05-01T21:00:09.759Z</time>
</trkpt>
<trkpt lat="32.2248600" lon="34.9914000">
<ele>79.209999</ele>
<time>2024-05-01T21:00:09.759Z</time>
</trkpt>
<trkpt lat="32.2249200" lon="34.9914900">
<ele>79.330002</ele>
<time>2024-05-01T21:00:09.759Z</time>
</trkpt>
<trkpt lat="32.2249700" lon="34.9915900">
<ele>80.539993</ele>
<time>2024-05-01T21:00:09.759Z</time>
</trkpt>
<trkpt lat="32.2250400" lon="34.9916800">
<ele>80.570000</ele>
<time>2024-05-01T21:00:09.759Z</time>
</trkpt>
<trkpt lat="32.2251100" lon="34.9918100">
<ele>78.239998</ele>
<time>2024-05-01T21:00:09.759Z</time>
</trkpt>
<trkpt lat="32.2251600" lon="34.9918900">
<ele>76.700005</ele>
<time>2024-05-01T21:00:09.759Z</time>
</trkpt>
<trkpt lat="32.2252500" lon="34.9919900">
<ele>74.379997</ele>
<time>2024-05-01T21:00:09.759Z</time>
</trkpt>
<trkpt lat="32.2253400" lon="34.9921100">
<ele>73.980003</ele>
<time>2024-05-01T21:00:09.759Z</time>
</trkpt>
<trkpt lat="32.2254200" lon="34.9921900">
<ele>73.660004</ele>
<time>2024-05-01T21:00:09.759Z</time>
</trkpt>
<trkpt lat="32.2255000" lon="34.9923100">
<ele>72.419998</ele>
<time>2024-05-01T21:00:09.759Z</time>
</trkpt>
<trkpt lat="32.2255400" lon="34.9924100">
<ele>71.509995</ele>
<time>2024-05-01T21:00:09.759Z</time>
</trkpt>
<trkpt lat="32.2255500" lon="34.9925000">
<ele>71.060005</ele>
<time>2024-05-01T21:00:09.759Z</time>
</trkpt>
<trkpt lat="32.2255600" lon="34.9926600">
<ele>70.419998</ele>
<time>2024-05-01T21:00:09.759Z</time>
</trkpt>
<trkpt lat="32.2255400" lon="34.9927600">
<ele>70.339996</ele>
<time>2024-05-01T21:00:09.759Z</time>
</trkpt>
<trkpt lat="32.2255100" lon="34.9928600">
<ele>70.669998</ele>
<time>2024-05-01T21:00:09.759Z</time>
</trkpt>
<trkpt lat="32.2255000" lon="34.9929600">
<ele>70.610001</ele>
<time>2024-05-01T21:00:09.759Z</time>
</trkpt>
<trkpt lat="32.2254900" lon="34.9930800">
<ele>70.519997</ele>
<time>2024-05-01T21:00:09.759Z</time>
</trkpt>
<trkpt lat="32.2255000" lon="34.9931800">
<ele>70.669998</ele>
<time>2024-05-01T21:00:09.759Z</time>
</trkpt>
<trkpt lat="32.2255400" lon="34.9932900">
<ele>70.860001</ele>
<time>2024-05-01T21:00:09.760Z</time>
</trkpt>
<trkpt lat="32.2255700" lon="34.9934000">
<ele>71.190002</ele>
<time>2024-05-01T21:00:09.760Z</time>
</trkpt>
<trkpt lat="32.2256000" lon="34.9935000">
<ele>71.440002</ele>
<time>2024-05-01T21:00:09.760Z</time>
</trkpt>
<trkpt lat="32.2256400" lon="34.9936100">
<ele>71.690002</ele>
<time>2024-05-01T21:00:09.760Z</time>
</trkpt>
<trkpt lat="32.2257000" lon="34.9936900">
<ele>71.629997</ele>
<time>2024-05-01T21:00:09.760Z</time>
</trkpt>
<trkpt lat="32.2257700" lon="34.9937700">
<ele>71.670006</ele>
<time>2024-05-01T21:00:09.760Z</time>
</trkpt>
<trkpt lat="32.2258400" lon="34.9938500">
<ele>71.860001</ele>
<time>2024-05-01T21:00:09.760Z</time>
</trkpt>
<trkpt lat="32.2258800" lon="34.9939400">
<ele>72.550003</ele>
<time>2024-05-01T21:00:09.760Z</time>
</trkpt>
<trkpt lat="32.2259100" lon="34.9940400">
<ele>73.629997</ele>
<time>2024-05-01T21:00:09.760Z</time>
</trkpt>
<trkpt lat="32.2259400" lon="34.9941500">
<ele>74.820000</ele>
<time>2024-05-01T21:00:09.760Z</time>
</trkpt>
<trkpt lat="32.2259700" lon="34.9942500">
<ele>76.059998</ele>
<time>2024-05-01T21:00:09.760Z</time>
</trkpt>
<trkpt lat="32.2260000" lon="34.9944000">
<ele>77.519997</ele>
<time>2024-05-01T21:00:09.760Z</time>
</trkpt>
<trkpt lat="32.2260200" lon="34.9945500">
<ele>77.639999</ele>
<time>2024-05-01T21:00:09.760Z</time>
</trkpt>
<trkpt lat="32.2260300" lon="34.9946900">
<ele>77.459999</ele>
<time>2024-05-01T21:00:09.760Z</time>
</trkpt>
<trkpt lat="32.2260500" lon="34.9948200">
<ele>77.099998</ele>
<time>2024-05-01T21:00:09.760Z</time>
</trkpt>
<trkpt lat="32.2261500" lon="34.9948700">
<ele>75.650002</ele>
<time>2024-05-01T21:00:09.760Z</time>
</trkpt>
<trkpt lat="32.2262300" lon="34.9949000">
<ele>74.870003</ele>
<time>2024-05-01T21:00:09.760Z</time>
</trkpt>
<trkpt lat="32.2263200" lon="34.9949300">
<ele>73.930000</ele>
<time>2024-05-01T21:00:09.760Z</time>
</trkpt>
<trkpt lat="32.2264200" lon="34.9949500">
<ele>73.159996</ele>
<time>2024-05-01T21:00:09.760Z</time>
</trkpt>
<trkpt lat="32.2264500" lon="34.9950200">
<ele>72.980003</ele>
<time>2024-05-01T21:00:09.760Z</time>
</trkpt>
<trkpt lat="32.2265300" lon="34.9950500">
<ele>72.910004</ele>
<time>2024-05-01T21:00:09.760Z</time>
</trkpt>
<trkpt lat="32.2266200" lon="34.9949800">
<ele>73.010002</ele>
<time>2024-05-01T21:00:09.760Z</time>
</trkpt>
<trkpt lat="32.2266900" lon="34.9949300">
<ele>72.869995</ele>
<time>2024-05-01T21:00:09.760Z</time>
</trkpt>
<trkpt lat="32.2267800" lon="34.9948300">
<ele>72.680000</ele>
<time>2024-05-01T21:00:09.760Z</time>
</trkpt>
<trkpt lat="32.2268100" lon="34.9946900">
<ele>72.879997</ele>
<time>2024-05-01T21:00:09.761Z</time>
</trkpt>
<trkpt lat="32.2268400" lon="34.9945800">
<ele>72.489998</ele>
<time>2024-05-01T21:00:09.761Z</time>
</trkpt>
<trkpt lat="32.2268800" lon="34.9944800">
<ele>72.130005</ele>
<time>2024-05-01T21:00:09.761Z</time>
</trkpt>
<trkpt lat="32.2269500" lon="34.9944000">
<ele>72.070000</ele>
<time>2024-05-01T21:00:09.761Z</time>
</trkpt>
<trkpt lat="32.2270500" lon="34.9943300">
<ele>73.769997</ele>
<time>2024-05-01T21:00:09.761Z</time>
</trkpt>
<trkpt lat="32.2271400" lon="34.9942900">
<ele>75.680000</ele>
<time>2024-05-01T21:00:09.761Z</time>
</trkpt>
<trkpt lat="32.2272200" lon="34.9942400">
<ele>77.900002</ele>
<time>2024-05-01T21:00:09.761Z</time>
</trkpt>
<trkpt lat="32.2273100" lon="34.9941700">
<ele>77.690002</ele>
<time>2024-05-01T21:00:09.761Z</time>
</trkpt>
<trkpt lat="32.2273800" lon="34.9940900">
<ele>77.360001</ele>
<time>2024-05-01T21:00:09.761Z</time>
</trkpt>
<trkpt lat="32.2274300" lon="34.9939900">
<ele>77.120003</ele>
<time>2024-05-01T21:00:09.761Z</time>
</trkpt>
<trkpt lat="32.2274000" lon="34.9938600">
<ele>78.450005</ele>
<time>2024-05-01T21:00:09.761Z</time>
</trkpt>
<trkpt lat="32.2273800" lon="34.9937700">
<ele>78.650002</ele>
<time>2024-05-01T21:00:09.761Z</time>
</trkpt>
<trkpt lat="32.2273800" lon="34.9936600">
<ele>78.310005</ele>
<time>2024-05-01T21:00:09.761Z</time>
</trkpt>
<trkpt lat="32.2273800" lon="34.9935400">
<ele>77.680000</ele>
<time>2024-05-01T21:00:09.761Z</time>
</trkpt>
<trkpt lat="32.2273700" lon="34.9934100">
<ele>76.940002</ele>
<time>2024-05-01T21:00:09.761Z</time>
</trkpt>
<trkpt lat="32.2273600" lon="34.9932800">
<ele>76.029999</ele>
<time>2024-05-01T21:00:09.761Z</time>
</trkpt>
<trkpt lat="32.2273400" lon="34.9931600">
<ele>75.120003</ele>
<time>2024-05-01T21:00:09.761Z</time>
</trkpt>
<trkpt lat="32.2273200" lon="34.9930300">
<ele>74.389999</ele>
<time>2024-05-01T21:00:09.761Z</time>
</trkpt>
<trkpt lat="32.2273100" lon="34.9929000">
<ele>74.930000</ele>
<time>2024-05-01T21:00:09.761Z</time>
</trkpt>
<trkpt lat="32.2273000" lon="34.9927700">
<ele>75.370003</ele>
<time>2024-05-01T21:00:09.761Z</time>
</trkpt>
<trkpt lat="32.2272800" lon="34.9926600">
<ele>74.490005</ele>
<time>2024-05-01T21:00:09.761Z</time>
</trkpt>
<trkpt lat="32.2272800" lon="34.9925500">
<ele>73.470001</ele>
<time>2024-05-01T21:00:09.761Z</time>
</trkpt>
<trkpt lat="32.2272900" lon="34.9924500">
<ele>73.400002</ele>
<time>2024-05-01T21:00:09.762Z</time>
</trkpt>
<trkpt lat="32.2273500" lon="34.9923700">
<ele>74.150002</ele>
<time>2024-05-01T21:00:09.762Z</time>
</trkpt>
<trkpt lat="32.2274000" lon="34.9922900">
<ele>75.000000</ele>
<time>2024-05-01T21:00:09.762Z</time>
</trkpt>
<trkpt lat="32.2275000" lon="34.9922000">
<ele>75.919998</ele>
<time>2024-05-01T21:00:09.762Z</time>
</trkpt>
<trkpt lat="32.2276000" lon="34.9921700">
<ele>75.519997</ele>
<time>2024-05-01T21:00:09.762Z</time>
</trkpt>
<trkpt lat="32.2277200" lon="34.9921500">
<ele>75.150002</ele>
<time>2024-05-01T21:00:09.762Z</time>
</trkpt>
<trkpt lat="32.2278400" lon="34.9921000">
<ele>76.020004</ele>
<time>2024-05-01T21:00:09.762Z</time>
</trkpt>
<trkpt lat="32.2279200" lon="34.9920600">
<ele>77.260002</ele>
<time>2024-05-01T21:00:09.762Z</time>
</trkpt>
<trkpt lat="32.2280300" lon="34.9919600">
<ele>78.680000</ele>
<time>2024-05-01T21:00:09.762Z</time>
</trkpt>
<trkpt lat="32.2281000" lon="34.9918900">
<ele>78.470001</ele>
<time>2024-05-01T21:00:09.762Z</time>
</trkpt>
<trkpt lat="32.2281600" lon="34.9918100">
<ele>77.449997</ele>
<time>2024-05-01T21:00:09.762Z</time>
</trkpt>
<trkpt lat="32.2282000" lon="34.9917000">
<ele>75.599998</ele>
<time>2024-05-01T21:00:09.762Z</time>
</trkpt>
<trkpt lat="32.2282200" lon="34.9915800">
<ele>74.500000</ele>
<time>2024-05-01T21:00:09.762Z</time>
</trkpt>
<trkpt lat="32.2282600" lon="34.9914700">
<ele>73.769997</ele>
<time>2024-05-01T21:00:09.762Z</time>
</trkpt>
<trkpt lat="32.2283700" lon="34.9914400">
<ele>73.370003</ele>
<time>2024-05-01T21:00:09.762Z</time>
</trkpt>
<trkpt lat="32.2284700" lon="34.9914400">
<ele>73.370003</ele>
<time>2024-05-01T21:00:09.762Z</time>
</trkpt>
<trkpt lat="32.2285700" lon="34.9914500">
<ele>73.440002</ele>
<time>2024-05-01T21:00:09.762Z</time>
</trkpt>
<trkpt lat="32.2286600" lon="34.9914700">
<ele>73.459999</ele>
<time>2024-05-01T21:00:09.762Z</time>
</trkpt>
<trkpt lat="32.2287000" lon="34.9915300">
<ele>73.860001</ele>
<time>2024-05-01T21:00:09.763Z</time>
</trkpt>
<trkpt lat="32.2287000" lon="34.9917000">
<ele>75.169998</ele>
<time>2024-05-01T21:00:09.763Z</time>
</trkpt>
<trkpt lat="32.2287000" lon="34.9918500">
<ele>75.919998</ele>
<time>2024-05-01T21:00:09.763Z</time>
</trkpt>
<trkpt lat="32.2286900" lon="34.9919400">
<ele>76.550003</ele>
<time>2024-05-01T21:00:09.763Z</time>
</trkpt>
<trkpt lat="32.2286900" lon="34.9920900">
<ele>78.529999</ele>
<time>2024-05-01T21:00:09.763Z</time>
</trkpt>
<trkpt lat="32.2287000" lon="34.9922200">
<ele>80.049995</ele>
<time>2024-05-01T21:00:09.763Z</time>
</trkpt>
<trkpt lat="32.2287000" lon="34.9923600">
<ele>78.750000</ele>
<time>2024-05-01T21:00:09.763Z</time>
</trkpt>
<trkpt lat="32.2287700" lon="34.9924100">
<ele>76.930000</ele>
<time>2024-05-01T21:00:09.763Z</time>
</trkpt>
<trkpt lat="32.2289000" lon="34.9924500">
<ele>74.540001</ele>
<time>2024-05-01T21:00:09.763Z</time>
</trkpt>
<trkpt lat="32.2289700" lon="34.9925300">
<ele>75.630005</ele>
<time>2024-05-01T21:00:09.763Z</time>
</trkpt>
<trkpt lat="32.2290500" lon="34.9926100">
<ele>76.559998</ele>
<time>2024-05-01T21:00:09.763Z</time>
</trkpt>
<trkpt lat="32.2291000" lon="34.9927000">
<ele>76.369995</ele>
<time>2024-05-01T21:00:09.763Z</time>
</trkpt>
<trkpt lat="32.2291100" lon="34.9928100">
<ele>75.430000</ele>
<time>2024-05-01T21:00:09.763Z</time>
</trkpt>
<trkpt lat="32.2291200" lon="34.9929200">
<ele>74.900002</ele>
<time>2024-05-01T21:00:09.763Z</time>
</trkpt>
<trkpt lat="32.2291500" lon="34.9930100">
<ele>74.360001</ele>
<time>2024-05-01T21:00:09.763Z</time>
</trkpt>
<trkpt lat="32.2292200" lon="34.9931000">
<ele>72.430000</ele>
<time>2024-05-01T21:00:09.763Z</time>
</trkpt>
<trkpt lat="32.2292400" lon="34.9932100">
<ele>71.480003</ele>
<time>2024-05-01T21:00:09.764Z</time>
</trkpt>
<trkpt lat="32.2293000" lon="34.9933300">
<ele>70.090004</ele>
<time>2024-05-01T21:00:09.764Z</time>
</trkpt>
<trkpt lat="32.2293400" lon="34.9934400">
<ele>69.739998</ele>
<time>2024-05-01T21:00:09.764Z</time>
</trkpt>
<trkpt lat="32.2294400" lon="34.9935400">
<ele>68.800003</ele>
<time>2024-05-01T21:00:09.764Z</time>
</trkpt>
<trkpt lat="32.2294900" lon="34.9936500">
<ele>68.809998</ele>
<time>2024-05-01T21:00:09.764Z</time>
</trkpt>
<trkpt lat="32.2295300" lon="34.9937600">
<ele>68.129997</ele>
<time>2024-05-01T21:00:09.764Z</time>
</trkpt>
<trkpt lat="32.2295400" lon="34.9938700">
<ele>67.430000</ele>
<time>2024-05-01T21:00:09.764Z</time>
</trkpt>
<trkpt lat="32.2295400" lon="34.9940100">
<ele>67.599998</ele>
<time>2024-05-01T21:00:09.764Z</time>
</trkpt>
<trkpt lat="32.2295500" lon="34.9941500">
<ele>67.820000</ele>
<time>2024-05-01T21:00:09.764Z</time>
</trkpt>
<trkpt lat="32.2296000" lon="34.9942700">
<ele>67.320000</ele>
<time>2024-05-01T21:00:09.764Z</time>
</trkpt>
<trkpt lat="32.2296400" lon="34.9943800">
<ele>66.889999</ele>
<time>2024-05-01T21:00:09.764Z</time>
</trkpt>
<trkpt lat="32.2296500" lon="34.9944800">
<ele>66.809998</ele>
<time>2024-05-01T21:00:09.764Z</time>
</trkpt>
<trkpt lat="32.2296500" lon="34.9945900">
<ele>66.919998</ele>
<time>2024-05-01T21:00:09.764Z</time>
</trkpt>
<trkpt lat="32.2296500" lon="34.9947100">
<ele>67.029999</ele>
<time>2024-05-01T21:00:09.764Z</time>
</trkpt>
<trkpt lat="32.2296400" lon="34.9948200">
<ele>67.500000</ele>
<time>2024-05-01T21:00:09.764Z</time>
</trkpt>
<trkpt lat="32.2296300" lon="34.9949800">
<ele>68.250000</ele>
<time>2024-05-01T21:00:09.765Z</time>
</trkpt>
<trkpt lat="32.2296100" lon="34.9951300">
<ele>69.669998</ele>
<time>2024-05-01T21:00:09.765Z</time>
</trkpt>
<trkpt lat="32.2296100" lon="34.9952700">
<ele>70.589996</ele>
<time>2024-05-01T21:00:09.765Z</time>
</trkpt>
<trkpt lat="32.2296100" lon="34.9954100">
<ele>70.919998</ele>
<time>2024-05-01T21:00:09.765Z</time>
</trkpt>
<trkpt lat="32.2296100" lon="34.9955300">
<ele>71.180000</ele>
<time>2024-05-01T21:00:09.765Z</time>
</trkpt>
<trkpt lat="32.2296100" lon="34.9956300">
<ele>71.019997</ele>
<time>2024-05-01T21:00:09.765Z</time>
</trkpt>
<trkpt lat="32.2296200" lon="34.9957500">
<ele>70.430000</ele>
<time>2024-05-01T21:00:09.765Z</time>
</trkpt>
<trkpt lat="32.2296300" lon="34.9958700">
<ele>70.040001</ele>
<time>2024-05-01T21:00:09.765Z</time>
</trkpt>
<trkpt lat="32.2296300" lon="34.9960000">
<ele>70.199997</ele>
<time>2024-05-01T21:00:09.765Z</time>
</trkpt>
<trkpt lat="32.2296500" lon="34.9961500">
<ele>69.879997</ele>
<time>2024-05-01T21:00:09.765Z</time>
</trkpt>
<trkpt lat="32.2296800" lon="34.9962500">
<ele>68.730003</ele>
<time>2024-05-01T21:00:09.765Z</time>
</trkpt>
<trkpt lat="32.2297100" lon="34.9963600">
<ele>67.400002</ele>
<time>2024-05-01T21:00:09.765Z</time>
</trkpt>
<trkpt lat="32.2297200" lon="34.9964900">
<ele>66.290001</ele>
<time>2024-05-01T21:00:09.765Z</time>
</trkpt>
<trkpt lat="32.2297200" lon="34.9966400">
<ele>65.209999</ele>
<time>2024-05-01T21:00:09.765Z</time>
</trkpt>
<trkpt lat="32.2297100" lon="34.9967600">
<ele>64.740005</ele>
<time>2024-05-01T21:00:09.765Z</time>
</trkpt>
<trkpt lat="32.2296700" lon="34.9968700">
<ele>64.510002</ele>
<time>2024-05-01T21:00:09.765Z</time>
</trkpt>
<trkpt lat="32.2296100" lon="34.9970100">
<ele>64.879997</ele>
<time>2024-05-01T21:00:09.765Z</time>
</trkpt>
<trkpt lat="32.2295700" lon="34.9971100">
<ele>65.739998</ele>
<time>2024-05-01T21:00:09.766Z</time>
</trkpt>
<trkpt lat="32.2295600" lon="34.9972300">
<ele>66.440002</ele>
<time>2024-05-01T21:00:09.766Z</time>
</trkpt>
<trkpt lat="32.2295300" lon="34.9973400">
<ele>64.409996</ele>
<time>2024-05-01T21:00:09.766Z</time>
</trkpt>
<trkpt lat="32.2294400" lon="34.9974100">
<ele>62.969997</ele>
<time>2024-05-01T21:00:09.766Z</time>
</trkpt>
<trkpt lat="32.2293400" lon="34.9975100">
<ele>61.720001</ele>
<time>2024-05-01T21:00:09.766Z</time>
</trkpt>
<trkpt lat="32.2292800" lon="34.9976400">
<ele>61.590000</ele>
<time>2024-05-01T21:00:09.766Z</time>
</trkpt>
<trkpt lat="32.2291900" lon="34.9977500">
<ele>61.180000</ele>
<time>2024-05-01T21:00:09.766Z</time>
</trkpt>
<trkpt lat="32.2291200" lon="34.9978700">
<ele>61.500000</ele>
<time>2024-05-01T21:00:09.766Z</time>
</trkpt>
<trkpt lat="32.2290800" lon="34.9979800">
<ele>61.940002</ele>
<time>2024-05-01T21:00:09.766Z</time>
</trkpt>
<trkpt lat="32.2290200" lon="34.9980700">
<ele>62.630001</ele>
<time>2024-05-01T21:00:09.766Z</time>
</trkpt>
<trkpt lat="32.2289600" lon="34.9981400">
<ele>63.389999</ele>
<time>2024-05-01T21:00:09.766Z</time>
</trkpt>
<trkpt lat="32.2288900" lon="34.9982300">
<ele>63.990002</ele>
<time>2024-05-01T21:00:09.766Z</time>
</trkpt>
<trkpt lat="32.2287800" lon="34.9983000">
<ele>64.089996</ele>
<time>2024-05-01T21:00:09.766Z</time>
</trkpt>
<trkpt lat="32.2286900" lon="34.9983700">
<ele>64.130005</ele>
<time>2024-05-01T21:00:09.766Z</time>
</trkpt>
<trkpt lat="32.2286600" lon="34.9984900">
<ele>64.559998</ele>
<time>2024-05-01T21:00:09.766Z</time>
</trkpt>
<trkpt lat="32.2285700" lon="34.9986100">
<ele>64.849998</ele>
<time>2024-05-01T21:00:09.766Z</time>
</trkpt>
<trkpt lat="32.2284800" lon="34.9986500">
<ele>64.330002</ele>
<time>2024-05-01T21:00:09.766Z</time>
</trkpt>
<trkpt lat="32.2283900" lon="34.9987000">
<ele>63.440002</ele>
<time>2024-05-01T21:00:09.766Z</time>
</trkpt>
<trkpt lat="32.2283100" lon="34.9987800">
<ele>62.330002</ele>
<time>2024-05-01T21:00:09.767Z</time>
</trkpt>
<trkpt lat="32.2282200" lon="34.9988300">
<ele>62.220001</ele>
<time>2024-05-01T21:00:09.767Z</time>
</trkpt>
<trkpt lat="32.2281600" lon="34.9988600">
<ele>62.070004</ele>
<time>2024-05-01T21:00:09.767Z</time>
</trkpt>
<trkpt lat="32.2281300" lon="34.9989500">
<ele>62.110001</ele>
<time>2024-05-01T21:00:09.767Z</time>
</trkpt>
<trkpt lat="32.2281600" lon="34.9990600">
<ele>62.620003</ele>
<time>2024-05-01T21:00:09.767Z</time>
</trkpt>
<trkpt lat="32.2282100" lon="34.9991900">
<ele>63.389999</ele>
<time>2024-05-01T21:00:09.767Z</time>
</trkpt>
<trkpt lat="32.2282600" lon="34.9992800">
<ele>64.980003</ele>
<time>2024-05-01T21:00:09.767Z</time>
</trkpt>
<trkpt lat="32.2283100" lon="34.9993800">
<ele>66.779999</ele>
<time>2024-05-01T21:00:09.767Z</time>
</trkpt>
<trkpt lat="32.2283800" lon="34.9994600">
<ele>68.930000</ele>
<time>2024-05-01T21:00:09.767Z</time>
</trkpt>
<trkpt lat="32.2284300" lon="34.9995200">
<ele>70.559998</ele>
<time>2024-05-01T21:00:09.767Z</time>
</trkpt>
<trkpt lat="32.2285500" lon="34.9995300">
<ele>72.180000</ele>
<time>2024-05-01T21:00:09.767Z</time>
</trkpt>
<trkpt lat="32.2286300" lon="34.9995200">
<ele>72.680000</ele>
<time>2024-05-01T21:00:09.767Z</time>
</trkpt>
<trkpt lat="32.2287200" lon="34.9995100">
<ele>71.919998</ele>
<time>2024-05-01T21:00:09.767Z</time>
</trkpt>
<trkpt lat="32.2288300" lon="34.9995000">
<ele>71.019997</ele>
<time>2024-05-01T21:00:09.767Z</time>
</trkpt>
<trkpt lat="32.2289600" lon="34.9995000">
<ele>71.520004</ele>
<time>2024-05-01T21:00:09.767Z</time>
</trkpt>
<trkpt lat="32.2290500" lon="34.9994800">
<ele>72.559998</ele>
<time>2024-05-01T21:00:09.767Z</time>
</trkpt>
<trkpt lat="32.2291300" lon="34.9994400">
<ele>73.430000</ele>
<time>2024-05-01T21:00:09.767Z</time>
</trkpt>
<trkpt lat="32.2291900" lon="34.9993700">
<ele>73.300003</ele>
<time>2024-05-01T21:00:09.768Z</time>
</trkpt>
<trkpt lat="32.2293000" lon="34.9992700">
<ele>72.900002</ele>
<time>2024-05-01T21:00:09.768Z</time>
</trkpt>
<trkpt lat="32.2293800" lon="34.9992200">
<ele>72.959999</ele>
<time>2024-05-01T21:00:09.768Z</time>
</trkpt>
<trkpt lat="32.2294600" lon="34.9991700">
<ele>73.130005</ele>
<time>2024-05-01T21:00:09.768Z</time>
</trkpt>
<trkpt lat="32.2295600" lon="34.9990700">
<ele>72.029999</ele>
<time>2024-05-01T21:00:09.768Z</time>
</trkpt>
<trkpt lat="32.2296200" lon="34.9989900">
<ele>71.250000</ele>
<time>2024-05-01T21:00:09.768Z</time>
</trkpt>
<trkpt lat="32.2296900" lon="34.9988900">
<ele>70.550003</ele>
<time>2024-05-01T21:00:09.768Z</time>
</trkpt>
<trkpt lat="32.2297700" lon="34.9988000">
<ele>70.489998</ele>
<time>2024-05-01T21:00:09.768Z</time>
</trkpt>
<trkpt lat="32.2298100" lon="34.9986800">
<ele>69.849998</ele>
<time>2024-05-01T21:00:09.768Z</time>
</trkpt>
<trkpt lat="32.2298700" lon="34.9985400">
<ele>69.120003</ele>
<time>2024-05-01T21:00:09.768Z</time>
</trkpt>
<trkpt lat="32.2299700" lon="34.9984700">
<ele>69.930000</ele>
<time>2024-05-01T21:00:09.768Z</time>
</trkpt>
<trkpt lat="32.2300600" lon="34.9984300">
<ele>71.620003</ele>
<time>2024-05-01T21:00:09.768Z</time>
</trkpt>
<trkpt lat="32.2301700" lon="34.9983700">
<ele>74.129997</ele>
<time>2024-05-01T21:00:09.768Z</time>
</trkpt>
<trkpt lat="32.2302700" lon="34.9982700">
<ele>76.989998</ele>
<time>2024-05-01T21:00:09.768Z</time>
</trkpt>
<trkpt lat="32.2303200" lon="34.9981800">
<ele>77.759995</ele>
<time>2024-05-01T21:00:09.768Z</time>
</trkpt>
<trkpt lat="32.2303700" lon="34.9980700">
<ele>78.000000</ele>
<time>2024-05-01T21:00:09.768Z</time>
</trkpt>
<trkpt lat="32.2304400" lon="34.9979900">
<ele>76.820000</ele>
<time>2024-05-01T21:00:09.768Z</time>
</trkpt>
<trkpt lat="32.2305200" lon="34.9978800">
<ele>74.839996</ele>
<time>2024-05-01T21:00:09.768Z</time>
</trkpt>
<trkpt lat="32.2305800" lon="34.9977900">
<ele>73.130005</ele>
<time>2024-05-01T21:00:09.768Z</time>
</trkpt>
<trkpt lat="32.2306300" lon="34.9976800">
<ele>72.050003</ele>
<time>2024-05-01T21:00:09.768Z</time>
</trkpt>
<trkpt lat="32.2306700" lon="34.9975800">
<ele>71.629997</ele>
<time>2024-05-01T21:00:09.769Z</time>
</trkpt>
<trkpt lat="32.2307200" lon="34.9974700">
<ele>71.729996</ele>
<time>2024-05-01T21:00:09.769Z</time>
</trkpt>
<trkpt lat="32.2307900" lon="34.9973800">
<ele>72.459999</ele>
<time>2024-05-01T21:00:09.769Z</time>
</trkpt>
<trkpt lat="32.2308400" lon="34.9972800">
<ele>73.040001</ele>
<time>2024-05-01T21:00:09.769Z</time>
</trkpt>
<trkpt lat="32.2309100" lon="34.9971800">
<ele>72.840004</ele>
<time>2024-05-01T21:00:09.769Z</time>
</trkpt>
<trkpt lat="32.2309700" lon="34.9971100">
<ele>72.669998</ele>
<time>2024-05-01T21:00:09.769Z</time>
</trkpt>
<trkpt lat="32.2310700" lon="34.9969900">
<ele>73.360001</ele>
<time>2024-05-01T21:00:09.769Z</time>
</trkpt>
<trkpt lat="32.2311300" lon="34.9969100">
<ele>73.379997</ele>
<time>2024-05-01T21:00:09.769Z</time>
</trkpt>
<trkpt lat="32.2311800" lon="34.9968100">
<ele>71.580002</ele>
<time>2024-05-01T21:00:09.769Z</time>
</trkpt>
<trkpt lat="32.2312300" lon="34.9967000">
<ele>69.599998</ele>
<time>2024-05-01T21:00:09.769Z</time>
</trkpt>
<trkpt lat="32.2313100" lon="34.9966400">
<ele>68.839996</ele>
<time>2024-05-01T21:00:09.769Z</time>
</trkpt>
<trkpt lat="32.2314300" lon="34.9966100">
<ele>69.239998</ele>
<time>2024-05-01T21:00:09.769Z</time>
</trkpt>
<trkpt lat="32.2315200" lon="34.9965100">
<ele>69.430000</ele>
<time>2024-05-01T21:00:09.769Z</time>
</trkpt>
<trkpt lat="32.2316100" lon="34.9964400">
<ele>69.400002</ele>
<time>2024-05-01T21:00:09.769Z</time>
</trkpt>
<trkpt lat="32.2316300" lon="34.9962900">
<ele>67.669998</ele>
<time>2024-05-01T21:00:09.769Z</time>
</trkpt>
<trkpt lat="32.2316400" lon="34.9961800">
<ele>66.549995</ele>
<time>2024-05-01T21:00:09.769Z</time>
</trkpt>
<trkpt lat="32.2316700" lon="34.9960700">
<ele>65.610001</ele>
<time>2024-05-01T21:00:09.769Z</time>
</trkpt>
<trkpt lat="32.2317200" lon="34.9959600">
<ele>65.239998</ele>
<time>2024-05-01T21:00:09.769Z</time>
</trkpt>
<trkpt lat="32.2317900" lon="34.9958700">
<ele>65.559998</ele>
<time>2024-05-01T21:00:09.769Z</time>
</trkpt>
<trkpt lat="32.2318700" lon="34.9958000">
<ele>66.839996</ele>
<time>2024-05-01T21:00:09.770Z</time>
</trkpt>
<trkpt lat="32.2319500" lon="34.9957000">
<ele>68.519997</ele>
<time>2024-05-01T21:00:09.770Z</time>
</trkpt>
<trkpt lat="32.2320000" lon="34.9955900">
<ele>69.129997</ele>
<time>2024-05-01T21:00:09.770Z</time>
</trkpt>
<trkpt lat="32.2320500" lon="34.9954700">
<ele>69.690002</ele>
<time>2024-05-01T21:00:09.770Z</time>
</trkpt>
<trkpt lat="32.2320800" lon="34.9953600">
<ele>70.190002</ele>
<time>2024-05-01T21:00:09.770Z</time>
</trkpt>
<trkpt lat="32.2321000" lon="34.9952500">
<ele>70.659996</ele>
<time>2024-05-01T21:00:09.770Z</time>
</trkpt>
<trkpt lat="32.2321000" lon="34.9951400">
<ele>71.060005</ele>
<time>2024-05-01T21:00:09.770Z</time>
</trkpt>
<trkpt lat="32.2320800" lon="34.9950400">
<ele>71.339996</ele>
<time>2024-05-01T21:00:09.770Z</time>
</trkpt>
<trkpt lat="32.2320600" lon="34.9949200">
<ele>70.840004</ele>
<time>2024-05-01T21:00:09.770Z</time>
</trkpt>
<trkpt lat="32.2320600" lon="34.9948000">
<ele>69.979996</ele>
<time>2024-05-01T21:00:09.770Z</time>
</trkpt>
<trkpt lat="32.2320700" lon="34.9946800">
<ele>68.759995</ele>
<time>2024-05-01T21:00:09.770Z</time>
</trkpt>
<trkpt lat="32.2321200" lon="34.9945900">
<ele>67.549995</ele>
<time>2024-05-01T21:00:09.770Z</time>
</trkpt>
<trkpt lat="32.2321900" lon="34.9945000">
<ele>66.590004</ele>
<time>2024-05-01T21:00:09.770Z</time>
</trkpt>
<trkpt lat="32.2322700" lon="34.9944200">
<ele>65.739998</ele>
<time>2024-05-01T21:00:09.770Z</time>
</trkpt>
<trkpt lat="32.2323300" lon="34.9943200">
<ele>65.159996</ele>
<time>2024-05-01T21:00:09.770Z</time>
</trkpt>
<trkpt lat="32.2323500" lon="34.9941900">
<ele>64.620003</ele>
<time>2024-05-01T21:00:09.770Z</time>
</trkpt>
<trkpt lat="32.2323900" lon="34.9940800">
<ele>65.080002</ele>
<time>2024-05-01T21:00:09.770Z</time>
</trkpt>
<trkpt lat="32.2324400" lon="34.9939600">
<ele>66.129997</ele>
<time>2024-05-01T21:00:09.770Z</time>
</trkpt>
<trkpt lat="32.2325200" lon="34.9939000">
<ele>66.889999</ele>
<time>2024-05-01T21:00:09.770Z</time>
</trkpt>
<trkpt lat="32.2326200" lon="34.9938900">
<ele>66.989998</ele>
<time>2024-05-01T21:00:09.770Z</time>
</trkpt>
<trkpt lat="32.2327100" lon="34.9938600">
<ele>67.099998</ele>
<time>2024-05-01T21:00:09.770Z</time>
</trkpt>
<trkpt lat="32.2328000" lon="34.9938400">
<ele>67.199997</ele>
<time>2024-05-01T21:00:09.770Z</time>
</trkpt>
<trkpt lat="32.2329000" lon="34.9938400">
<ele>67.330002</ele>
<time>2024-05-01T21:00:09.771Z</time>
</trkpt>
<trkpt lat="32.2329900" lon="34.9938500">
<ele>67.349998</ele>
<time>2024-05-01T21:00:09.771Z</time>
</trkpt>
<trkpt lat="32.2330800" lon="34.9938700">
<ele>66.930000</ele>
<time>2024-05-01T21:00:09.771Z</time>
</trkpt>
<trkpt lat="32.2331400" lon="34.9940100">
<ele>64.779999</ele>
<time>2024-05-01T21:00:09.771Z</time>
</trkpt>
<trkpt lat="32.2332500" lon="34.9940700">
<ele>62.939999</ele>
<time>2024-05-01T21:00:09.771Z</time>
</trkpt>
<trkpt lat="32.2333400" lon="34.9940900">
<ele>61.790001</ele>
<time>2024-05-01T21:00:09.771Z</time>
</trkpt>
<trkpt lat="32.2334200" lon="34.9941400">
<ele>60.919998</ele>
<time>2024-05-01T21:00:09.771Z</time>
</trkpt>
<trkpt lat="32.2334800" lon="34.9942100">
<ele>60.780003</ele>
<time>2024-05-01T21:00:09.771Z</time>
</trkpt>
<trkpt lat="32.2335300" lon="34.9943700">
<ele>61.759998</ele>
<time>2024-05-01T21:00:09.771Z</time>
</trkpt>
<trkpt lat="32.2335600" lon="34.9944700">
<ele>62.279999</ele>
<time>2024-05-01T21:00:09.771Z</time>
</trkpt>
<trkpt lat="32.2336500" lon="34.9945700">
<ele>61.909996</ele>
<time>2024-05-01T21:00:09.771Z</time>
</trkpt>
<trkpt lat="32.2337500" lon="34.9946600">
<ele>60.500000</ele>
<time>2024-05-01T21:00:09.771Z</time>
</trkpt>
<trkpt lat="32.2338300" lon="34.9946900">
<ele>59.130001</ele>
<time>2024-05-01T21:00:09.771Z</time>
</trkpt>
<trkpt lat="32.2339500" lon="34.9946800">
<ele>58.190002</ele>
<time>2024-05-01T21:00:09.771Z</time>
</trkpt>
<trkpt lat="32.2340100" lon="34.9946300">
<ele>58.480000</ele>
<time>2024-05-01T21:00:09.771Z</time>
</trkpt>
<trkpt lat="32.2340900" lon="34.9945900">
<ele>58.820000</ele>
<time>2024-05-01T21:00:09.771Z</time>
</trkpt>
<trkpt lat="32.2341900" lon="34.9945600">
<ele>59.100002</ele>
<time>2024-05-01T21:00:09.771Z</time>
</trkpt>
<trkpt lat="32.2343000" lon="34.9945500">
<ele>58.829998</ele>
<time>2024-05-01T21:00:09.771Z</time>
</trkpt>
<trkpt lat="32.2343900" lon="34.9945300">
<ele>58.520000</ele>
<time>2024-05-01T21:00:09.771Z</time>
</trkpt>
<trkpt lat="32.2344500" lon="34.9944500">
<ele>58.000000</ele>
<time>2024-05-01T21:00:09.771Z</time>
</trkpt>
<trkpt lat="32.2345200" lon="34.9943900">
<ele>57.779999</ele>
<time>2024-05-01T21:00:09.772Z</time>
</trkpt>
<trkpt lat="32.2345800" lon="34.9943900">
<ele>57.610001</ele>
<time>2024-05-01T21:00:09.772Z</time>
</trkpt>
<trkpt lat="32.2346100" lon="34.9944600">
<ele>57.459999</ele>
<time>2024-05-01T21:00:09.772Z</time>
</trkpt>
<trkpt lat="32.2345700" lon="34.9945700">
<ele>58.000000</ele>
<time>2024-05-01T21:00:09.772Z</time>
</trkpt>
<trkpt lat="32.2345100" lon="34.9946400">
<ele>58.469997</ele>
<time>2024-05-01T21:00:09.772Z</time>
</trkpt>
<trkpt lat="32.2344600" lon="34.9947300">
<ele>58.939999</ele>
<time>2024-05-01T21:00:09.772Z</time>
</trkpt>
<trkpt lat="32.2344300" lon="34.9948300">
<ele>58.929996</ele>
<time>2024-05-01T21:00:09.772Z</time>
</trkpt>
<trkpt lat="32.2343800" lon="34.9949300">
<ele>58.590000</ele>
<time>2024-05-01T21:00:09.772Z</time>
</trkpt>
<trkpt lat="32.2342700" lon="34.9950300">
<ele>57.810001</ele>
<time>2024-05-01T21:00:09.772Z</time>
</trkpt>
<trkpt lat="32.2341600" lon="34.9951200">
<ele>57.430000</ele>
<time>2024-05-01T21:00:09.772Z</time>
</trkpt>
<trkpt lat="32.2340600" lon="34.9951600">
<ele>57.580002</ele>
<time>2024-05-01T21:00:09.772Z</time>
</trkpt>
<trkpt lat="32.2339800" lon="34.9952200">
<ele>57.789997</ele>
<time>2024-05-01T21:00:09.772Z</time>
</trkpt>
<trkpt lat="32.2339400" lon="34.9953200">
<ele>58.030003</ele>
<time>2024-05-01T21:00:09.772Z</time>
</trkpt>
<trkpt lat="32.2338800" lon="34.9954000">
<ele>58.099998</ele>
<time>2024-05-01T21:00:09.772Z</time>
</trkpt>
<trkpt lat="32.2338300" lon="34.9955400">
<ele>58.640003</ele>
<time>2024-05-01T21:00:09.772Z</time>
</trkpt>
<trkpt lat="32.2337900" lon="34.9956800">
<ele>59.360001</ele>
<time>2024-05-01T21:00:09.772Z</time>
</trkpt>
<trkpt lat="32.2336900" lon="34.9957300">
<ele>60.330002</ele>
<time>2024-05-01T21:00:09.772Z</time>
</trkpt>
<trkpt lat="32.2335700" lon="34.9957500">
<ele>61.040001</ele>
<time>2024-05-01T21:00:09.772Z</time>
</trkpt>
<trkpt lat="32.2334900" lon="34.9958300">
<ele>61.010002</ele>
<time>2024-05-01T21:00:09.772Z</time>
</trkpt>
<trkpt lat="32.2334400" lon="34.9959200">
<ele>60.759998</ele>
<time>2024-05-01T21:00:09.772Z</time>
</trkpt>
<trkpt lat="32.2333600" lon="34.9959900">
<ele>60.889999</ele>
<time>2024-05-01T21:00:09.773Z</time>
</trkpt>
<trkpt lat="32.2332700" lon="34.9960000">
<ele>61.410000</ele>
<time>2024-05-01T21:00:09.773Z</time>
</trkpt>
<trkpt lat="32.2331800" lon="34.9960300">
<ele>61.869999</ele>
<time>2024-05-01T21:00:09.773Z</time>
</trkpt>
<trkpt lat="32.2331100" lon="34.9960900">
<ele>61.930000</ele>
<time>2024-05-01T21:00:09.773Z</time>
</trkpt>
<trkpt lat="32.2330500" lon="34.9961700">
<ele>61.889999</ele>
<time>2024-05-01T21:00:09.773Z</time>
</trkpt>
<trkpt lat="32.2330300" lon="34.9962600">
<ele>61.969997</ele>
<time>2024-05-01T21:00:09.773Z</time>
</trkpt>
<trkpt lat="32.2330200" lon="34.9963900">
<ele>61.759998</ele>
<time>2024-05-01T21:00:09.773Z</time>
</trkpt>
<trkpt lat="32.2330800" lon="34.9964700">
<ele>60.529999</ele>
<time>2024-05-01T21:00:09.773Z</time>
</trkpt>
<trkpt lat="32.2331600" lon="34.9965600">
<ele>59.630001</ele>
<time>2024-05-01T21:00:09.773Z</time>
</trkpt>
<trkpt lat="32.2332400" lon="34.9966500">
<ele>58.730000</ele>
<time>2024-05-01T21:00:09.773Z</time>
</trkpt>
<trkpt lat="32.2332800" lon="34.9967600">
<ele>58.580002</ele>
<time>2024-05-01T21:00:09.773Z</time>
</trkpt>
<trkpt lat="32.2332900" lon="34.9968900">
<ele>58.689999</ele>
<time>2024-05-01T21:00:09.773Z</time>
</trkpt>
<trkpt lat="32.2332900" lon="34.9970200">
<ele>59.319996</ele>
<time>2024-05-01T21:00:09.773Z</time>
</trkpt>
<trkpt lat="32.2332700" lon="34.9971400">
<ele>60.550003</ele>
<time>2024-05-01T21:00:09.773Z</time>
</trkpt>
<trkpt lat="32.2332500" lon="34.9972600">
<ele>61.909996</ele>
<time>2024-05-01T21:00:09.773Z</time>
</trkpt>
<trkpt lat="32.2332100" lon="34.9973600">
<ele>63.709999</ele>
<time>2024-05-01T21:00:09.773Z</time>
</trkpt>
<trkpt lat="32.2331700" lon="34.9975000">
<ele>65.939995</ele>
<time>2024-05-01T21:00:09.773Z</time>
</trkpt>
<trkpt lat="32.2331100" lon="34.9976300">
<ele>68.050003</ele>
<time>2024-05-01T21:00:09.773Z</time>
</trkpt>
<trkpt lat="32.2330800" lon="34.9977600">
<ele>69.510002</ele>
<time>2024-05-01T21:00:09.773Z</time>
</trkpt>
<trkpt lat="32.2330600" lon="34.9978900">
<ele>70.349998</ele>
<time>2024-05-01T21:00:09.773Z</time>
</trkpt>
<trkpt lat="32.2330100" lon="34.9980200">
<ele>70.400002</ele>
<time>2024-05-01T21:00:09.776Z</time>
</trkpt>
<trkpt lat="32.2329300" lon="34.9981200">
<ele>69.519997</ele>
<time>2024-05-01T21:00:09.777Z</time>
</trkpt>
<trkpt lat="32.2328800" lon="34.9982300">
<ele>68.870003</ele>
<time>2024-05-01T21:00:09.777Z</time>
</trkpt>
<trkpt lat="32.2328500" lon="34.9983900">
<ele>68.519997</ele>
<time>2024-05-01T21:00:09.777Z</time>
</trkpt>
<trkpt lat="32.2328200" lon="34.9984900">
<ele>68.299995</ele>
<time>2024-05-01T21:00:09.777Z</time>
</trkpt>
<trkpt lat="32.2327500" lon="34.9986000">
<ele>68.000000</ele>
<time>2024-05-01T21:00:09.777Z</time>
</trkpt>
<trkpt lat="32.2326700" lon="34.9987000">
<ele>68.120003</ele>
<time>2024-05-01T21:00:09.777Z</time>
</trkpt>
<trkpt lat="32.2326200" lon="34.9988100">
<ele>68.410004</ele>
<time>2024-05-01T21:00:09.777Z</time>
</trkpt>
<trkpt lat="32.2326000" lon="34.9989500">
<ele>68.779999</ele>
<time>2024-05-01T21:00:09.777Z</time>
</trkpt>
<trkpt lat="32.2325900" lon="34.9991000">
<ele>69.190002</ele>
<time>2024-05-01T21:00:09.777Z</time>
</trkpt>
<trkpt lat="32.2325900" lon="34.9992400">
<ele>69.349998</ele>
<time>2024-05-01T21:00:09.777Z</time>
</trkpt>
<trkpt lat="32.2325900" lon="34.9993900">
<ele>69.349998</ele>
<time>2024-05-01T21:00:09.777Z</time>
</trkpt>
<trkpt lat="32.2326000" lon="34.9995300">
<ele>69.790001</ele>
<time>2024-05-01T21:00:09.777Z</time>
</trkpt>
<trkpt lat="32.2326200" lon="34.9996300">
<ele>70.180000</ele>
<time>2024-05-01T21:00:09.777Z</time>
</trkpt>
<trkpt lat="32.2326400" lon="34.9997400">
<ele>70.550003</ele>
<time>2024-05-01T21:00:09.777Z</time>
</trkpt>
<trkpt lat="32.2326600" lon="34.9998500">
<ele>70.659996</ele>
<time>2024-05-01T21:00:09.777Z</time>
</trkpt>
<trkpt lat="32.2326600" lon="34.9999700">
<ele>71.029999</ele>
<time>2024-05-01T21:00:09.777Z</time>
</trkpt>
<trkpt lat="32.2326700" lon="35.0000800">
<ele>71.520004</ele>
<time>2024-05-01T21:00:09.777Z</time>
</trkpt>
<trkpt lat="32.2327000" lon="35.0001800">
<ele>71.699997</ele>
<time>2024-05-01T21:00:09.778Z</time>
</trkpt>
<trkpt lat="32.2327400" lon="35.0002800">
<ele>71.709999</ele>
<time>2024-05-01T21:00:09.778Z</time>
</trkpt>
<trkpt lat="32.2327900" lon="35.0003800">
<ele>72.000000</ele>
<time>2024-05-01T21:00:09.778Z</time>
</trkpt>
<trkpt lat="32.2328300" lon="35.0004900">
<ele>72.529999</ele>
<time>2024-05-01T21:00:09.778Z</time>
</trkpt>
<trkpt lat="32.2328700" lon="35.0006000">
<ele>72.610001</ele>
<time>2024-05-01T21:00:09.778Z</time>
</trkpt>
<trkpt lat="32.2329200" lon="35.0007000">
<ele>72.209999</ele>
<time>2024-05-01T21:00:09.778Z</time>
</trkpt>
<trkpt lat="32.2329500" lon="35.0008100">
<ele>72.160004</ele>
<time>2024-05-01T21:00:09.778Z</time>
</trkpt>
<trkpt lat="32.2329600" lon="35.0009200">
<ele>73.220001</ele>
<time>2024-05-01T21:00:09.778Z</time>
</trkpt>
<trkpt lat="32.2329900" lon="35.0010300">
<ele>73.669998</ele>
<time>2024-05-01T21:00:09.778Z</time>
</trkpt>
<trkpt lat="32.2330400" lon="35.0011600">
<ele>73.309998</ele>
<time>2024-05-01T21:00:09.778Z</time>
</trkpt>
<trkpt lat="32.2331200" lon="35.0012800">
<ele>73.360001</ele>
<time>2024-05-01T21:00:09.778Z</time>
</trkpt>
<trkpt lat="32.2332000" lon="35.0013600">
<ele>73.040001</ele>
<time>2024-05-01T21:00:09.778Z</time>
</trkpt>
<trkpt lat="32.2332700" lon="35.0014500">
<ele>72.579994</ele>
<time>2024-05-01T21:00:09.778Z</time>
</trkpt>
<trkpt lat="32.2333200" lon="35.0015600">
<ele>72.470001</ele>
<time>2024-05-01T21:00:09.778Z</time>
</trkpt>
<trkpt lat="32.2333700" lon="35.0016700">
<ele>72.610001</ele>
<time>2024-05-01T21:00:09.778Z</time>
</trkpt>
<trkpt lat="32.2334200" lon="35.0017800">
<ele>72.089996</ele>
<time>2024-05-01T21:00:09.778Z</time>
</trkpt>
<trkpt lat="32.2334500" lon="35.0018900">
<ele>71.529999</ele>
<time>2024-05-01T21:00:09.778Z</time>
</trkpt>
<trkpt lat="32.2334700" lon="35.0020000">
<ele>70.840004</ele>
<time>2024-05-01T21:00:09.778Z</time>
</trkpt>
<trkpt lat="32.2334800" lon="35.0021100">
<ele>70.269997</ele>
<time>2024-05-01T21:00:09.778Z</time>
</trkpt>
<trkpt lat="32.2334800" lon="35.0022200">
<ele>69.900002</ele>
<time>2024-05-01T21:00:09.779Z</time>
</trkpt>
<trkpt lat="32.2334800" lon="35.0023300">
<ele>69.909996</ele>
<time>2024-05-01T21:00:09.779Z</time>
</trkpt>
<trkpt lat="32.2334700" lon="35.0024800">
<ele>70.020004</ele>
<time>2024-05-01T21:00:09.779Z</time>
</trkpt>
<trkpt lat="32.2334600" lon="35.0026200">
<ele>70.720001</ele>
<time>2024-05-01T21:00:09.779Z</time>
</trkpt>
<trkpt lat="32.2334300" lon="35.0027300">
<ele>71.419998</ele>
<time>2024-05-01T21:00:09.779Z</time>
</trkpt>
<trkpt lat="32.2333500" lon="35.0028300">
<ele>71.580002</ele>
<time>2024-05-01T21:00:09.779Z</time>
</trkpt>
<trkpt lat="32.2332800" lon="35.0029200">
<ele>71.360001</ele>
<time>2024-05-01T21:00:09.779Z</time>
</trkpt>
<trkpt lat="32.2332300" lon="35.0030400">
<ele>70.860001</ele>
<time>2024-05-01T21:00:09.779Z</time>
</trkpt>
<trkpt lat="32.2331900" lon="35.0031700">
<ele>70.209999</ele>
<time>2024-05-01T21:00:09.779Z</time>
</trkpt>
<trkpt lat="32.2331700" lon="35.0033200">
<ele>69.269997</ele>
<time>2024-05-01T21:00:09.779Z</time>
</trkpt>
<trkpt lat="32.2331400" lon="35.0034500">
<ele>69.809998</ele>
<time>2024-05-01T21:00:09.779Z</time>
</trkpt>
<trkpt lat="32.2331000" lon="35.0035900">
<ele>70.599998</ele>
<time>2024-05-01T21:00:09.779Z</time>
</trkpt>
<trkpt lat="32.2330800" lon="35.0036800">
<ele>71.360001</ele>
<time>2024-05-01T21:00:09.779Z</time>
</trkpt>
<trkpt lat="32.2330700" lon="35.0037900">
<ele>72.250000</ele>
<time>2024-05-01T21:00:09.779Z</time>
</trkpt>
<trkpt lat="32.2330900" lon="35.0039200">
<ele>73.029999</ele>
<time>2024-05-01T21:00:09.779Z</time>
</trkpt>
<trkpt lat="32.2331100" lon="35.0040400">
<ele>73.209999</ele>
<time>2024-05-01T21:00:09.779Z</time>
</trkpt>
<trkpt lat="32.2331500" lon="35.0041600">
<ele>73.660004</ele>
<time>2024-05-01T21:00:09.779Z</time>
</trkpt>
<trkpt lat="32.2332000" lon="35.0042600">
<ele>74.209999</ele>
<time>2024-05-01T21:00:09.779Z</time>
</trkpt>
<trkpt lat="32.2332500" lon="35.0043600">
<ele>74.889999</ele>
<time>2024-05-01T21:00:09.780Z</time>
</trkpt>
<trkpt lat="32.2332900" lon="35.0044600">
<ele>75.480003</ele>
<time>2024-05-01T21:00:09.780Z</time>
</trkpt>
<trkpt lat="32.2333400" lon="35.0045600">
<ele>75.489998</ele>
<time>2024-05-01T21:00:09.780Z</time>
</trkpt>
<trkpt lat="32.2333800" lon="35.0046600">
<ele>74.549995</ele>
<time>2024-05-01T21:00:09.780Z</time>
</trkpt>
<trkpt lat="32.2334200" lon="35.0047600">
<ele>73.889999</ele>
<time>2024-05-01T21:00:09.780Z</time>
</trkpt>
<trkpt lat="32.2334700" lon="35.0048500">
<ele>73.489998</ele>
<time>2024-05-01T21:00:09.780Z</time>
</trkpt>
<trkpt lat="32.2335100" lon="35.0049500">
<ele>73.279999</ele>
<time>2024-05-01T21:00:09.780Z</time>
</trkpt>
<trkpt lat="32.2335500" lon="35.0050500">
<ele>73.500000</ele>
<time>2024-05-01T21:00:09.780Z</time>
</trkpt>
<trkpt lat="32.2335900" lon="35.0051500">
<ele>74.010002</ele>
<time>2024-05-01T21:00:09.780Z</time>
</trkpt>
<trkpt lat="32.2336100" lon="35.0052500">
<ele>74.720001</ele>
<time>2024-05-01T21:00:09.780Z</time>
</trkpt>
<trkpt lat="32.2336200" lon="35.0053600">
<ele>76.010002</ele>
<time>2024-05-01T21:00:09.780Z</time>
</trkpt>
<trkpt lat="32.2336200" lon="35.0054700">
<ele>77.589996</ele>
<time>2024-05-01T21:00:09.780Z</time>
</trkpt>
<trkpt lat="32.2336200" lon="35.0055800">
<ele>78.900002</ele>
<time>2024-05-01T21:00:09.780Z</time>
</trkpt>
<trkpt lat="32.2336200" lon="35.0057400">
<ele>79.469994</ele>
<time>2024-05-01T21:00:09.780Z</time>
</trkpt>
<trkpt lat="32.2336200" lon="35.0058500">
<ele>79.690002</ele>
<time>2024-05-01T21:00:09.780Z</time>
</trkpt>
<trkpt lat="32.2336300" lon="35.0059600">
<ele>78.709999</ele>
<time>2024-05-01T21:00:09.780Z</time>
</trkpt>
<trkpt lat="32.2336300" lon="35.0060700">
<ele>77.949997</ele>
<time>2024-05-01T21:00:09.780Z</time>
</trkpt>
<trkpt lat="32.2336500" lon="35.0062200">
<ele>76.459999</ele>
<time>2024-05-01T21:00:09.780Z</time>
</trkpt>
<trkpt lat="32.2336800" lon="35.0063700">
<ele>74.660004</ele>
<time>2024-05-01T21:00:09.780Z</time>
</trkpt>
<trkpt lat="32.2337000" lon="35.0065200">
<ele>74.080002</ele>
<time>2024-05-01T21:00:09.780Z</time>
</trkpt>
<trkpt lat="32.2337300" lon="35.0066600">
<ele>73.430000</ele>
<time>2024-05-01T21:00:09.781Z</time>
</trkpt>
<trkpt lat="32.2337500" lon="35.0067800">
<ele>73.409996</ele>
<time>2024-05-01T21:00:09.781Z</time>
</trkpt>
<trkpt lat="32.2337500" lon="35.0069400">
<ele>73.980003</ele>
<time>2024-05-01T21:00:09.781Z</time>
</trkpt>
<trkpt lat="32.2337500" lon="35.0070800">
<ele>75.220001</ele>
<time>2024-05-01T21:00:09.781Z</time>
</trkpt>
<trkpt lat="32.2337400" lon="35.0072300">
<ele>76.809998</ele>
<time>2024-05-01T21:00:09.781Z</time>
</trkpt>
<trkpt lat="32.2337300" lon="35.0073600">
<ele>78.000000</ele>
<time>2024-05-01T21:00:09.781Z</time>
</trkpt>
<trkpt lat="32.2337200" lon="35.0075100">
<ele>79.230003</ele>
<time>2024-05-01T21:00:09.781Z</time>
</trkpt>
<trkpt lat="32.2337100" lon="35.0076400">
<ele>79.180008</ele>
<time>2024-05-01T21:00:09.781Z</time>
</trkpt>
<trkpt lat="32.2336900" lon="35.0077600">
<ele>79.340004</ele>
<time>2024-05-01T21:00:09.781Z</time>
</trkpt>
<trkpt lat="32.2336600" lon="35.0078900">
<ele>79.660004</ele>
<time>2024-05-01T21:00:09.781Z</time>
</trkpt>
<trkpt lat="32.2336500" lon="35.0080200">
<ele>79.670006</ele>
<time>2024-05-01T21:00:09.781Z</time>
</trkpt>
<trkpt lat="32.2336400" lon="35.0081300">
<ele>80.229996</ele>
<time>2024-05-01T21:00:09.781Z</time>
</trkpt>
<trkpt lat="32.2336400" lon="35.0082400">
<ele>80.620003</ele>
<time>2024-05-01T21:00:09.781Z</time>
</trkpt>
<trkpt lat="32.2336400" lon="35.0083700">
<ele>81.010002</ele>
<time>2024-05-01T21:00:09.781Z</time>
</trkpt>
<trkpt lat="32.2336500" lon="35.0084800">
<ele>80.900002</ele>
<time>2024-05-01T21:00:09.781Z</time>
</trkpt>
<trkpt lat="32.2336800" lon="35.0086300">
<ele>80.459999</ele>
<time>2024-05-01T21:00:09.781Z</time>
</trkpt>
<trkpt lat="32.2337000" lon="35.0087400">
<ele>79.889999</ele>
<time>2024-05-01T21:00:09.781Z</time>
</trkpt>
<trkpt lat="32.2337000" lon="35.0088500">
<ele>79.739998</ele>
<time>2024-05-01T21:00:09.781Z</time>
</trkpt>
<trkpt lat="32.2337300" lon="35.0090000">
<ele>79.340004</ele>
<time>2024-05-01T21:00:09.781Z</time>
</trkpt>
<trkpt lat="32.2337700" lon="35.0090900">
<ele>79.119995</ele>
<time>2024-05-01T21:00:09.781Z</time>
</trkpt>
<trkpt lat="32.2338000" lon="35.0091900">
<ele>79.200005</ele>
<time>2024-05-01T21:00:09.782Z</time>
</trkpt>
<trkpt lat="32.2338600" lon="35.0093400">
<ele>80.740005</ele>
<time>2024-05-01T21:00:09.782Z</time>
</trkpt>
<trkpt lat="32.2339000" lon="35.0094600">
<ele>81.970001</ele>
<time>2024-05-01T21:00:09.782Z</time>
</trkpt>
<trkpt lat="32.2339500" lon="35.0095500">
<ele>81.770004</ele>
<time>2024-05-01T21:00:09.782Z</time>
</trkpt>
<trkpt lat="32.2340300" lon="35.0096300">
<ele>80.969994</ele>
<time>2024-05-01T21:00:09.782Z</time>
</trkpt>
<trkpt lat="32.2340900" lon="35.0097200">
<ele>80.110001</ele>
<time>2024-05-01T21:00:09.782Z</time>
</trkpt>
<trkpt lat="32.2341300" lon="35.0098200">
<ele>80.489998</ele>
<time>2024-05-01T21:00:09.782Z</time>
</trkpt>
<trkpt lat="32.2342200" lon="35.0099400">
<ele>80.629997</ele>
<time>2024-05-01T21:00:09.782Z</time>
</trkpt>
<trkpt lat="32.2342900" lon="35.0100100">
<ele>80.279999</ele>
<time>2024-05-01T21:00:09.782Z</time>
</trkpt>
<trkpt lat="32.2343600" lon="35.0100800">
<ele>79.589996</ele>
<time>2024-05-01T21:00:09.782Z</time>
</trkpt>
<trkpt lat="32.2344400" lon="35.0101500">
<ele>78.610001</ele>
<time>2024-05-01T21:00:09.782Z</time>
</trkpt>
<trkpt lat="32.2345400" lon="35.0102000">
<ele>77.879997</ele>
<time>2024-05-01T21:00:09.782Z</time>
</trkpt>
<trkpt lat="32.2346100" lon="35.0102900">
<ele>77.250000</ele>
<time>2024-05-01T21:00:09.782Z</time>
</trkpt>
<trkpt lat="32.2346500" lon="35.0104000">
<ele>77.010002</ele>
<time>2024-05-01T21:00:09.782Z</time>
</trkpt>
<trkpt lat="32.2347100" lon="35.0104900">
<ele>76.199997</ele>
<time>2024-05-01T21:00:09.782Z</time>
</trkpt>
<trkpt lat="32.2347300" lon="35.0106300">
<ele>76.489998</ele>
<time>2024-05-01T21:00:09.782Z</time>
</trkpt>
<trkpt lat="32.2347800" lon="35.0107500">
<ele>76.760002</ele>
<time>2024-05-01T21:00:09.782Z</time>
</trkpt>
<trkpt lat="32.2348400" lon="35.0108400">
<ele>76.369995</ele>
<time>2024-05-01T21:00:09.782Z</time>
</trkpt>
<trkpt lat="32.2348900" lon="35.0109400">
<ele>76.419998</ele>
<time>2024-05-01T21:00:09.783Z</time>
</trkpt>
<trkpt lat="32.2349100" lon="35.0110500">
<ele>76.830002</ele>
<time>2024-05-01T21:00:09.783Z</time>
</trkpt>
<trkpt lat="32.2349500" lon="35.0111800">
<ele>76.389999</ele>
<time>2024-05-01T21:00:09.783Z</time>
</trkpt>
<trkpt lat="32.2350400" lon="35.0112900">
<ele>75.050003</ele>
<time>2024-05-01T21:00:09.783Z</time>
</trkpt>
<trkpt lat="32.2350800" lon="35.0114000">
<ele>75.000000</ele>
<time>2024-05-01T21:00:09.783Z</time>
</trkpt>
<trkpt lat="32.2351000" lon="35.0115100">
<ele>75.000000</ele>
<time>2024-05-01T21:00:09.783Z</time>
</trkpt>
<trkpt lat="32.2351200" lon="35.0116300">
<ele>75.000000</ele>
<time>2024-05-01T21:00:09.783Z</time>
</trkpt>
<trkpt lat="32.2351400" lon="35.0117400">
<ele>75.260002</ele>
<time>2024-05-01T21:00:09.784Z</time>
</trkpt>
<trkpt lat="32.2351400" lon="35.0118500">
<ele>75.650002</ele>
<time>2024-05-01T21:00:09.784Z</time>
</trkpt>
<trkpt lat="32.2351400" lon="35.0119600">
<ele>76.020004</ele>
<time>2024-05-01T21:00:09.784Z</time>
</trkpt>
<trkpt lat="32.2351400" lon="35.0120700">
<ele>76.209999</ele>
<time>2024-05-01T21:00:09.784Z</time>
</trkpt>
<trkpt lat="32.2351300" lon="35.0122100">
<ele>76.630005</ele>
<time>2024-05-01T21:00:09.784Z</time>
</trkpt>
<trkpt lat="32.2350900" lon="35.0123400">
<ele>76.529999</ele>
<time>2024-05-01T21:00:09.784Z</time>
</trkpt>
<trkpt lat="32.2350700" lon="35.0124900">
<ele>75.809998</ele>
<time>2024-05-01T21:00:09.784Z</time>
</trkpt>
<trkpt lat="32.2350600" lon="35.0126400">
<ele>75.419998</ele>
<time>2024-05-01T21:00:09.784Z</time>
</trkpt>
<trkpt lat="32.2350500" lon="35.0127800">
<ele>75.099998</ele>
<time>2024-05-01T21:00:09.784Z</time>
</trkpt>
<trkpt lat="32.2350200" lon="35.0129000">
<ele>75.580002</ele>
<time>2024-05-01T21:00:09.784Z</time>
</trkpt>
<trkpt lat="32.2350000" lon="35.0130000">
<ele>76.000000</ele>
<time>2024-05-01T21:00:09.784Z</time>
</trkpt>
<trkpt lat="32.2350200" lon="35.0131200">
<ele>75.279999</ele>
<time>2024-05-01T21:00:09.784Z</time>
</trkpt>
<trkpt lat="32.2350200" lon="35.0132400">
<ele>74.880005</ele>
<time>2024-05-01T21:00:09.784Z</time>
</trkpt>
<trkpt lat="32.2350300" lon="35.0133500">
<ele>74.349998</ele>
<time>2024-05-01T21:00:09.784Z</time>
</trkpt>
<trkpt lat="32.2350600" lon="35.0134600">
<ele>73.699997</ele>
<time>2024-05-01T21:00:09.784Z</time>
</trkpt>
<trkpt lat="32.2351300" lon="35.0135100">
<ele>72.189995</ele>
<time>2024-05-01T21:00:09.784Z</time>
</trkpt>
<trkpt lat="32.2352200" lon="35.0135900">
<ele>70.250000</ele>
<time>2024-05-01T21:00:09.784Z</time>
</trkpt>
<trkpt lat="32.2352900" lon="35.0137000">
<ele>69.770004</ele>
<time>2024-05-01T21:00:09.784Z</time>
</trkpt>
<trkpt lat="32.2353800" lon="35.0138100">
<ele>71.540001</ele>
<time>2024-05-01T21:00:09.785Z</time>
</trkpt>
<trkpt lat="32.2354300" lon="35.0139500">
<ele>72.520004</ele>
<time>2024-05-01T21:00:09.785Z</time>
</trkpt>
<trkpt lat="32.2354300" lon="35.0140800">
<ele>72.269997</ele>
<time>2024-05-01T21:00:09.785Z</time>
</trkpt>
<trkpt lat="32.2354300" lon="35.0142000">
<ele>72.099998</ele>
<time>2024-05-01T21:00:09.785Z</time>
</trkpt>
<trkpt lat="32.2354300" lon="35.0143100">
<ele>72.099998</ele>
<time>2024-05-01T21:00:09.785Z</time>
</trkpt>
<trkpt lat="32.2354100" lon="35.0144700">
<ele>71.949997</ele>
<time>2024-05-01T21:00:09.785Z</time>
</trkpt>
<trkpt lat="32.2353700" lon="35.0145600">
<ele>71.659996</ele>
<time>2024-05-01T21:00:09.785Z</time>
</trkpt>
<trkpt lat="32.2353200" lon="35.0146600">
<ele>71.300003</ele>
<time>2024-05-01T21:00:09.785Z</time>
</trkpt>
<trkpt lat="32.2352800" lon="35.0147600">
<ele>71.019997</ele>
<time>2024-05-01T21:00:09.785Z</time>
</trkpt>
<trkpt lat="32.2351800" lon="35.0148700">
<ele>70.269997</ele>
<time>2024-05-01T21:00:09.785Z</time>
</trkpt>
<trkpt lat="32.2351000" lon="35.0149900">
<ele>69.129997</ele>
<time>2024-05-01T21:00:09.785Z</time>
</trkpt>
<trkpt lat="32.2350300" lon="35.0151100">
<ele>68.759995</ele>
<time>2024-05-01T21:00:09.785Z</time>
</trkpt>
<trkpt lat="32.2349600" lon="35.0152300">
<ele>68.900002</ele>
<time>2024-05-01T21:00:09.785Z</time>
</trkpt>
<trkpt lat="32.2349000" lon="35.0153600">
<ele>69.570000</ele>
<time>2024-05-01T21:00:09.785Z</time>
</trkpt>
<trkpt lat="32.2348300" lon="35.0154900">
<ele>69.889999</ele>
<time>2024-05-01T21:00:09.785Z</time>
</trkpt>
<trkpt lat="32.2347700" lon="35.0156100">
<ele>69.750000</ele>
<time>2024-05-01T21:00:09.785Z</time>
</trkpt>
<trkpt lat="32.2347100" lon="35.0157400">
<ele>69.720001</ele>
<time>2024-05-01T21:00:09.785Z</time>
</trkpt>
<trkpt lat="32.2346900" lon="35.0158800">
<ele>70.589996</ele>
<time>2024-05-01T21:00:09.785Z</time>
</trkpt>
<trkpt lat="32.2346500" lon="35.0159900">
<ele>71.670006</ele>
<time>2024-05-01T21:00:09.786Z</time>
</trkpt>
<trkpt lat="32.2346000" lon="35.0160900">
<ele>72.070000</ele>
<time>2024-05-01T21:00:09.786Z</time>
</trkpt>
<trkpt lat="32.2345900" lon="35.0162100">
<ele>72.810005</ele>
<time>2024-05-01T21:00:09.786Z</time>
</trkpt>
<trkpt lat="32.2345900" lon="35.0163300">
<ele>73.669998</ele>
<time>2024-05-01T21:00:09.786Z</time>
</trkpt>
<trkpt lat="32.2345900" lon="35.0164400">
<ele>74.360001</ele>
<time>2024-05-01T21:00:09.786Z</time>
</trkpt>
<trkpt lat="32.2345800" lon="35.0165500">
<ele>74.839996</ele>
<time>2024-05-01T21:00:09.786Z</time>
</trkpt>
<trkpt lat="32.2345800" lon="35.0166800">
<ele>75.510002</ele>
<time>2024-05-01T21:00:09.786Z</time>
</trkpt>
<trkpt lat="32.2345800" lon="35.0168200">
<ele>75.760002</ele>
<time>2024-05-01T21:00:09.786Z</time>
</trkpt>
<trkpt lat="32.2345400" lon="35.0169400">
<ele>75.680000</ele>
<time>2024-05-01T21:00:09.786Z</time>
</trkpt>
<trkpt lat="32.2344500" lon="35.0170400">
<ele>75.389999</ele>
<time>2024-05-01T21:00:09.786Z</time>
</trkpt>
<trkpt lat="32.2343500" lon="35.0171100">
<ele>76.000000</ele>
<time>2024-05-01T21:00:09.786Z</time>
</trkpt>
<trkpt lat="32.2342400" lon="35.0171800">
<ele>77.099998</ele>
<time>2024-05-01T21:00:09.786Z</time>
</trkpt>
<trkpt lat="32.2341500" lon="35.0172800">
<ele>78.300003</ele>
<time>2024-05-01T21:00:09.786Z</time>
</trkpt>
<trkpt lat="32.2340600" lon="35.0174000">
<ele>77.510002</ele>
<time>2024-05-01T21:00:09.786Z</time>
</trkpt>
<trkpt lat="32.2339800" lon="35.0175100">
<ele>76.449997</ele>
<time>2024-05-01T21:00:09.786Z</time>
</trkpt>
<trkpt lat="32.2339000" lon="35.0176300">
<ele>76.989998</ele>
<time>2024-05-01T21:00:09.786Z</time>
</trkpt>
<trkpt lat="32.2338300" lon="35.0177600">
<ele>80.250008</ele>
<time>2024-05-01T21:00:09.786Z</time>
</trkpt>
<trkpt lat="32.2338200" lon="35.0178600">
<ele>81.409996</ele>
<time>2024-05-01T21:00:09.786Z</time>
</trkpt>
<trkpt lat="32.2338200" lon="35.0180200">
<ele>82.709999</ele>
<time>2024-05-01T21:00:09.787Z</time>
</trkpt>
<trkpt lat="32.2338200" lon="35.0181700">
<ele>83.820000</ele>
<time>2024-05-01T21:00:09.787Z</time>
</trkpt>
<trkpt lat="32.2338400" lon="35.0183100">
<ele>84.830002</ele>
<time>2024-05-01T21:00:09.787Z</time>
</trkpt>
<trkpt lat="32.2338900" lon="35.0184400">
<ele>85.379997</ele>
<time>2024-05-01T21:00:09.787Z</time>
</trkpt>
<trkpt lat="32.2339300" lon="35.0185900">
<ele>85.500000</ele>
<time>2024-05-01T21:00:09.787Z</time>
</trkpt>
<trkpt lat="32.2339600" lon="35.0187400">
<ele>85.699997</ele>
<time>2024-05-01T21:00:09.787Z</time>
</trkpt>
<trkpt lat="32.2339900" lon="35.0188900">
<ele>85.910004</ele>
<time>2024-05-01T21:00:09.787Z</time>
</trkpt>
<trkpt lat="32.2340200" lon="35.0190500">
<ele>85.859993</ele>
<time>2024-05-01T21:00:09.787Z</time>
</trkpt>
<trkpt lat="32.2341100" lon="35.0191300">
<ele>85.300003</ele>
<time>2024-05-01T21:00:09.787Z</time>
</trkpt>
<trkpt lat="32.2342400" lon="35.0191600">
<ele>84.980003</ele>
<time>2024-05-01T21:00:09.787Z</time>
</trkpt>
<trkpt lat="32.2343600" lon="35.0192000">
<ele>85.040001</ele>
<time>2024-05-01T21:00:09.787Z</time>
</trkpt>
<trkpt lat="32.2344900" lon="35.0192300">
<ele>84.720001</ele>
<time>2024-05-01T21:00:09.787Z</time>
</trkpt>
<trkpt lat="32.2346100" lon="35.0192700">
<ele>83.739998</ele>
<time>2024-05-01T21:00:09.787Z</time>
</trkpt>
<trkpt lat="32.2347200" lon="35.0193400">
<ele>82.150002</ele>
<time>2024-05-01T21:00:09.787Z</time>
</trkpt>
<trkpt lat="32.2348100" lon="35.0194500">
<ele>82.570000</ele>
<time>2024-05-01T21:00:09.787Z</time>
</trkpt>
<trkpt lat="32.2349200" lon="35.0195100">
<ele>84.389999</ele>
<time>2024-05-01T21:00:09.787Z</time>
</trkpt>
<trkpt lat="32.2350300" lon="35.0195200">
<ele>86.050003</ele>
<time>2024-05-01T21:00:09.787Z</time>
</trkpt>
<trkpt lat="32.2351400" lon="35.0195100">
<ele>87.280006</ele>
<time>2024-05-01T21:00:09.787Z</time>
</trkpt>
<trkpt lat="32.2352100" lon="35.0194400">
<ele>88.289993</ele>
<time>2024-05-01T21:00:09.787Z</time>
</trkpt>
<trkpt lat="32.2352900" lon="35.0193700">
<ele>89.760002</ele>
<time>2024-05-01T21:00:09.787Z</time>
</trkpt>
<trkpt lat="32.2353000" lon="35.0192300">
<ele>90.820000</ele>
<time>2024-05-01T21:00:09.788Z</time>
</trkpt>
<trkpt lat="32.2352900" lon="35.0190800">
<ele>91.169998</ele>
<time>2024-05-01T21:00:09.788Z</time>
</trkpt>
<trkpt lat="32.2352900" lon="35.0189800">
<ele>91.809998</ele>
<time>2024-05-01T21:00:09.788Z</time>
</trkpt>
<trkpt lat="32.2352900" lon="35.0188300">
<ele>92.790001</ele>
<time>2024-05-01T21:00:09.788Z</time>
</trkpt>
<trkpt lat="32.2352900" lon="35.0186800">
<ele>93.799995</ele>
<time>2024-05-01T21:00:09.788Z</time>
</trkpt>
<trkpt lat="32.2353000" lon="35.0185400">
<ele>94.459999</ele>
<time>2024-05-01T21:00:09.788Z</time>
</trkpt>
<trkpt lat="32.2353600" lon="35.0184100">
<ele>95.559998</ele>
<time>2024-05-01T21:00:09.788Z</time>
</trkpt>
<trkpt lat="32.2354400" lon="35.0183100">
<ele>96.700005</ele>
<time>2024-05-01T21:00:09.788Z</time>
</trkpt>
<trkpt lat="32.2354900" lon="35.0181900">
<ele>96.389992</ele>
<time>2024-05-01T21:00:09.788Z</time>
</trkpt>
<trkpt lat="32.2355100" lon="35.0180400">
<ele>95.060005</ele>
<time>2024-05-01T21:00:09.788Z</time>
</trkpt>
<trkpt lat="32.2355300" lon="35.0178700">
<ele>92.290001</ele>
<time>2024-05-01T21:00:09.788Z</time>
</trkpt>
<trkpt lat="32.2355600" lon="35.0177900">
<ele>91.279999</ele>
<time>2024-05-01T21:00:09.788Z</time>
</trkpt>
<trkpt lat="32.2356300" lon="35.0177400">
<ele>91.799995</ele>
<time>2024-05-01T21:00:09.788Z</time>
</trkpt>
<trkpt lat="32.2356600" lon="35.0177900">
<ele>92.740005</ele>
<time>2024-05-01T21:00:09.788Z</time>
</trkpt>
<trkpt lat="32.2356800" lon="35.0178900">
<ele>94.989998</ele>
<time>2024-05-01T21:00:09.788Z</time>
</trkpt>
<trkpt lat="32.2357100" lon="35.0180000">
<ele>97.669998</ele>
<time>2024-05-01T21:00:09.788Z</time>
</trkpt>
<trkpt lat="32.2357200" lon="35.0181100">
<ele>99.429993</ele>
<time>2024-05-01T21:00:09.788Z</time>
</trkpt>
<trkpt lat="32.2357500" lon="35.0182400">
<ele>101.029999</ele>
<time>2024-05-01T21:00:09.788Z</time>
</trkpt>
<trkpt lat="32.2357700" lon="35.0183400">
<ele>102.070000</ele>
<time>2024-05-01T21:00:09.788Z</time>
</trkpt>
<trkpt lat="32.2358100" lon="35.0184700">
<ele>102.250000</ele>
<time>2024-05-01T21:00:09.788Z</time>
</trkpt>
<trkpt lat="32.2358300" lon="35.0185900">
<ele>102.050003</ele>
<time>2024-05-01T21:00:09.789Z</time>
</trkpt>
<trkpt lat="32.2358800" lon="35.0187000">
<ele>103.430000</ele>
<time>2024-05-01T21:00:09.789Z</time>
</trkpt>
<trkpt lat="32.2359100" lon="35.0188400">
<ele>104.389999</ele>
<time>2024-05-01T21:00:09.789Z</time>
</trkpt>
<trkpt lat="32.2359500" lon="35.0189300">
<ele>105.349998</ele>
<time>2024-05-01T21:00:09.789Z</time>
</trkpt>
<trkpt lat="32.2360500" lon="35.0189300">
<ele>106.119995</ele>
<time>2024-05-01T21:00:09.789Z</time>
</trkpt>
<trkpt lat="32.2361300" lon="35.0189700">
<ele>107.610001</ele>
<time>2024-05-01T21:00:09.789Z</time>
</trkpt>
<trkpt lat="32.2362200" lon="35.0190300">
<ele>110.169998</ele>
<time>2024-05-01T21:00:09.789Z</time>
</trkpt>
<trkpt lat="32.2363000" lon="35.0190800">
<ele>111.849998</ele>
<time>2024-05-01T21:00:09.789Z</time>
</trkpt>
<trkpt lat="32.2363900" lon="35.0191300">
<ele>113.139999</ele>
<time>2024-05-01T21:00:09.789Z</time>
</trkpt>
<trkpt lat="32.2364800" lon="35.0191900">
<ele>113.379997</ele>
<time>2024-05-01T21:00:09.789Z</time>
</trkpt>
<trkpt lat="32.2365700" lon="35.0192400">
<ele>113.089996</ele>
<time>2024-05-01T21:00:09.789Z</time>
</trkpt>
<trkpt lat="32.2366500" lon="35.0193000">
<ele>112.120003</ele>
<time>2024-05-01T21:00:09.789Z</time>
</trkpt>
<trkpt lat="32.2367400" lon="35.0193500">
<ele>110.880005</ele>
<time>2024-05-01T21:00:09.789Z</time>
</trkpt>
<trkpt lat="32.2368300" lon="35.0194000">
<ele>108.849998</ele>
<time>2024-05-01T21:00:09.789Z</time>
</trkpt>
<trkpt lat="32.2369300" lon="35.0194300">
<ele>106.809998</ele>
<time>2024-05-01T21:00:09.789Z</time>
</trkpt>
<trkpt lat="32.2370400" lon="35.0194500">
<ele>105.169998</ele>
<time>2024-05-01T21:00:09.789Z</time>
</trkpt>
<trkpt lat="32.2371500" lon="35.0194700">
<ele>103.760002</ele>
<time>2024-05-01T21:00:09.789Z</time>
</trkpt>
<trkpt lat="32.2372400" lon="35.0194800">
<ele>101.859993</ele>
<time>2024-05-01T21:00:09.789Z</time>
</trkpt>
<trkpt lat="32.2373400" lon="35.0194900">
<ele>96.019997</ele>
<time>2024-05-01T21:00:09.789Z</time>
</trkpt>
<trkpt lat="32.2374500" lon="35.0194900">
<ele>89.939995</ele>
<time>2024-05-01T21:00:09.790Z</time>
</trkpt>
<trkpt lat="32.2375600" lon="35.0195000">
<ele>86.909996</ele>
<time>2024-05-01T21:00:09.790Z</time>
</trkpt>
<trkpt lat="32.2376700" lon="35.0195000">
<ele>86.759995</ele>
<time>2024-05-01T21:00:09.790Z</time>
</trkpt>
<trkpt lat="32.2377900" lon="35.0195200">
<ele>86.690002</ele>
<time>2024-05-01T21:00:09.790Z</time>
</trkpt>
<trkpt lat="32.2379100" lon="35.0195300">
<ele>88.840004</ele>
<time>2024-05-01T21:00:09.790Z</time>
</trkpt>
<trkpt lat="32.2380000" lon="35.0195400">
<ele>90.259995</ele>
<time>2024-05-01T21:00:09.790Z</time>
</trkpt>
<trkpt lat="32.2381000" lon="35.0195500">
<ele>91.870003</ele>
<time>2024-05-01T21:00:09.790Z</time>
</trkpt>
<trkpt lat="32.2382100" lon="35.0195700">
<ele>93.810005</ele>
<time>2024-05-01T21:00:09.790Z</time>
</trkpt>
<trkpt lat="32.2383300" lon="35.0196000">
<ele>96.360001</ele>
<time>2024-05-01T21:00:09.790Z</time>
</trkpt>
<trkpt lat="32.2384500" lon="35.0196200">
<ele>94.160004</ele>
<time>2024-05-01T21:00:09.790Z</time>
</trkpt>
<trkpt lat="32.2385700" lon="35.0196400">
<ele>91.690002</ele>
<time>2024-05-01T21:00:09.790Z</time>
</trkpt>
<trkpt lat="32.2386800" lon="35.0196500">
<ele>92.259995</ele>
<time>2024-05-01T21:00:09.790Z</time>
</trkpt>
<trkpt lat="32.2387900" lon="35.0196600">
<ele>94.600006</ele>
<time>2024-05-01T21:00:09.790Z</time>
</trkpt>
<trkpt lat="32.2389000" lon="35.0196700">
<ele>97.020004</ele>
<time>2024-05-01T21:00:09.790Z</time>
</trkpt>
<trkpt lat="32.2390000" lon="35.0196800">
<ele>98.870003</ele>
<time>2024-05-01T21:00:09.790Z</time>
</trkpt>
<trkpt lat="32.2391000" lon="35.0196900">
<ele>100.540001</ele>
<time>2024-05-01T21:00:09.790Z</time>
</trkpt>
<trkpt lat="32.2392000" lon="35.0197000">
<ele>102.439995</ele>
<time>2024-05-01T21:00:09.790Z</time>
</trkpt>
<trkpt lat="32.2393000" lon="35.0197200">
<ele>105.320000</ele>
<time>2024-05-01T21:00:09.790Z</time>
</trkpt>
<trkpt lat="32.2394000" lon="35.0197400">
<ele>109.210007</ele>
<time>2024-05-01T21:00:09.790Z</time>
</trkpt>
<trkpt lat="32.2395100" lon="35.0197700">
<ele>111.779999</ele>
<time>2024-05-01T21:00:09.791Z</time>
</trkpt>
<trkpt lat="32.2396300" lon="35.0197800">
<ele>112.369995</ele>
<time>2024-05-01T21:00:09.791Z</time>
</trkpt>
<trkpt lat="32.2397500" lon="35.0197900">
<ele>112.430000</ele>
<time>2024-05-01T21:00:09.791Z</time>
</trkpt>
<trkpt lat="32.2398800" lon="35.0197900">
<ele>111.040001</ele>
<time>2024-05-01T21:00:09.791Z</time>
</trkpt>
<trkpt lat="32.2400100" lon="35.0197700">
<ele>109.889999</ele>
<time>2024-05-01T21:00:09.791Z</time>
</trkpt>
<trkpt lat="32.2401400" lon="35.0197500">
<ele>110.610001</ele>
<time>2024-05-01T21:00:09.791Z</time>
</trkpt>
<trkpt lat="32.2402500" lon="35.0196900">
<ele>110.800003</ele>
<time>2024-05-01T21:00:09.791Z</time>
</trkpt>
<trkpt lat="32.2403600" lon="35.0196400">
<ele>110.650002</ele>
<time>2024-05-01T21:00:09.791Z</time>
</trkpt>
<trkpt lat="32.2404700" lon="35.0195800">
<ele>109.759995</ele>
<time>2024-05-01T21:00:09.791Z</time>
</trkpt>
<trkpt lat="32.2405800" lon="35.0195500">
<ele>109.339996</ele>
<time>2024-05-01T21:00:09.791Z</time>
</trkpt>
<trkpt lat="32.2407000" lon="35.0195300">
<ele>111.139999</ele>
<time>2024-05-01T21:00:09.791Z</time>
</trkpt>
<trkpt lat="32.2408100" lon="35.0195100">
<ele>112.760002</ele>
<time>2024-05-01T21:00:09.791Z</time>
</trkpt>
<trkpt lat="32.2409100" lon="35.0194900">
<ele>114.339996</ele>
<time>2024-05-01T21:00:09.791Z</time>
</trkpt>
<trkpt lat="32.2410100" lon="35.0194600">
<ele>115.989998</ele>
<time>2024-05-01T21:00:09.791Z</time>
</trkpt>
<trkpt lat="32.2411100" lon="35.0194100">
<ele>118.350006</ele>
<time>2024-05-01T21:00:09.791Z</time>
</trkpt>
<trkpt lat="32.2411700" lon="35.0193300">
<ele>120.970001</ele>
<time>2024-05-01T21:00:09.791Z</time>
</trkpt>
<trkpt lat="32.2412300" lon="35.0192200">
<ele>123.580002</ele>
<time>2024-05-01T21:00:09.791Z</time>
</trkpt>
<trkpt lat="32.2413300" lon="35.0191300">
<ele>126.549995</ele>
<time>2024-05-01T21:00:09.791Z</time>
</trkpt>
<trkpt lat="32.2414400" lon="35.0190600">
<ele>127.759995</ele>
<time>2024-05-01T21:00:09.791Z</time>
</trkpt>
<trkpt lat="32.2415500" lon="35.0189900">
<ele>128.100006</ele>
<time>2024-05-01T21:00:09.792Z</time>
</trkpt>
<trkpt lat="32.2416500" lon="35.0189200">
<ele>128.779999</ele>
<time>2024-05-01T21:00:09.792Z</time>
</trkpt>
<trkpt lat="32.2417500" lon="35.0189100">
<ele>130.910004</ele>
<time>2024-05-01T21:00:09.792Z</time>
</trkpt>
<trkpt lat="32.2418600" lon="35.0189300">
<ele>133.210007</ele>
<time>2024-05-01T21:00:09.792Z</time>
</trkpt>
<trkpt lat="32.2419700" lon="35.0189700">
<ele>134.839996</ele>
<time>2024-05-01T21:00:09.792Z</time>
</trkpt>
<trkpt lat="32.2420700" lon="35.0190500">
<ele>135.160004</ele>
<time>2024-05-01T21:00:09.792Z</time>
</trkpt>
<trkpt lat="32.2421800" lon="35.0191200">
<ele>135.529999</ele>
<time>2024-05-01T21:00:09.792Z</time>
</trkpt>
<trkpt lat="32.2422800" lon="35.0191700">
<ele>135.989990</ele>
<time>2024-05-01T21:00:09.792Z</time>
</trkpt>
<trkpt lat="32.2423700" lon="35.0193000">
<ele>135.479996</ele>
<time>2024-05-01T21:00:09.792Z</time>
</trkpt>
<trkpt lat="32.2424300" lon="35.0193700">
<ele>135.260010</ele>
<time>2024-05-01T21:00:09.792Z</time>
</trkpt>
<trkpt lat="32.2425300" lon="35.0193800">
<ele>136.080002</ele>
<time>2024-05-01T21:00:09.792Z</time>
</trkpt>
<trkpt lat="32.2426200" lon="35.0194000">
<ele>135.589996</ele>
<time>2024-05-01T21:00:09.792Z</time>
</trkpt>
<trkpt lat="32.2427100" lon="35.0194200">
<ele>135.239990</ele>
<time>2024-05-01T21:00:09.792Z</time>
</trkpt>
<trkpt lat="32.2428100" lon="35.0194300">
<ele>135.000000</ele>
<time>2024-05-01T21:00:09.792Z</time>
</trkpt>
<trkpt lat="32.2429200" lon="35.0194300">
<ele>134.650009</ele>
<time>2024-05-01T21:00:09.792Z</time>
</trkpt>
<trkpt lat="32.2430300" lon="35.0194400">
<ele>134.149994</ele>
<time>2024-05-01T21:00:09.792Z</time>
</trkpt>
<trkpt lat="32.2431400" lon="35.0194600">
<ele>135.930008</ele>
<time>2024-05-01T21:00:09.792Z</time>
</trkpt>
<trkpt lat="32.2432400" lon="35.0195000">
<ele>138.580002</ele>
<time>2024-05-01T21:00:09.792Z</time>
</trkpt>
<trkpt lat="32.2433500" lon="35.0195300">
<ele>141.830002</ele>
<time>2024-05-01T21:00:09.792Z</time>
</trkpt>
<trkpt lat="32.2434500" lon="35.0195400">
<ele>145.389999</ele>
<time>2024-05-01T21:00:09.792Z</time>
</trkpt>
<trkpt lat="32.2435600" lon="35.0195800">
<ele>148.580002</ele>
<time>2024-05-01T21:00:09.793Z</time>
</trkpt>
<trkpt lat="32.2436700" lon="35.0196200">
<ele>149.940002</ele>
<time>2024-05-01T21:00:09.793Z</time>
</trkpt>
<trkpt lat="32.2437600" lon="35.0196600">
<ele>149.900009</ele>
<time>2024-05-01T21:00:09.793Z</time>
</trkpt>
<trkpt lat="32.2438600" lon="35.0197100">
<ele>149.210007</ele>
<time>2024-05-01T21:00:09.793Z</time>
</trkpt>
<trkpt lat="32.2439500" lon="35.0197700">
<ele>149.520004</ele>
<time>2024-05-01T21:00:09.793Z</time>
</trkpt>
<trkpt lat="32.2440400" lon="35.0198200">
<ele>150.279999</ele>
<time>2024-05-01T21:00:09.793Z</time>
</trkpt>
<trkpt lat="32.2441200" lon="35.0199000">
<ele>149.830002</ele>
<time>2024-05-01T21:00:09.793Z</time>
</trkpt>
<trkpt lat="32.2441900" lon="35.0199700">
<ele>149.210007</ele>
<time>2024-05-01T21:00:09.793Z</time>
</trkpt>
<trkpt lat="32.2442500" lon="35.0200600">
<ele>148.360001</ele>
<time>2024-05-01T21:00:09.793Z</time>
</trkpt>
<trkpt lat="32.2443000" lon="35.0201600">
<ele>147.240005</ele>
<time>2024-05-01T21:00:09.793Z</time>
</trkpt>
<trkpt lat="32.2443600" lon="35.0202800">
<ele>145.779999</ele>
<time>2024-05-01T21:00:09.793Z</time>
</trkpt>
<trkpt lat="32.2443900" lon="35.0203900">
<ele>145.889999</ele>
<time>2024-05-01T21:00:09.793Z</time>
</trkpt>
<trkpt lat="32.2444100" lon="35.0205000">
<ele>145.800003</ele>
<time>2024-05-01T21:00:09.793Z</time>
</trkpt>
<trkpt lat="32.2444400" lon="35.0206200">
<ele>145.720001</ele>
<time>2024-05-01T21:00:09.793Z</time>
</trkpt>
<trkpt lat="32.2444600" lon="35.0207300">
<ele>145.690002</ele>
<time>2024-05-01T21:00:09.793Z</time>
</trkpt>
<trkpt lat="32.2444700" lon="35.0208400">
<ele>145.459991</ele>
<time>2024-05-01T21:00:09.793Z</time>
</trkpt>
<trkpt lat="32.2444600" lon="35.0209500">
<ele>145.279999</ele>
<time>2024-05-01T21:00:09.793Z</time>
</trkpt>
<trkpt lat="32.2444400" lon="35.0210800">
<ele>144.970001</ele>
<time>2024-05-01T21:00:09.793Z</time>
</trkpt>
<trkpt lat="32.2444100" lon="35.0211800">
<ele>144.720001</ele>
<time>2024-05-01T21:00:09.793Z</time>
</trkpt>
<trkpt lat="32.2443800" lon="35.0212900">
<ele>144.389999</ele>
<time>2024-05-01T21:00:09.793Z</time>
</trkpt>
<trkpt lat="32.2443600" lon="35.0214000">
<ele>144.120010</ele>
<time>2024-05-01T21:00:09.794Z</time>
</trkpt>
<trkpt lat="32.2443100" lon="35.0215400">
<ele>143.580002</ele>
<time>2024-05-01T21:00:09.794Z</time>
</trkpt>
<trkpt lat="32.2442600" lon="35.0216800">
<ele>142.449997</ele>
<time>2024-05-01T21:00:09.794Z</time>
</trkpt>
<trkpt lat="32.2442100" lon="35.0218000">
<ele>141.800003</ele>
<time>2024-05-01T21:00:09.794Z</time>
</trkpt>
<trkpt lat="32.2441400" lon="35.0219000">
<ele>140.790009</ele>
<time>2024-05-01T21:00:09.794Z</time>
</trkpt>
<trkpt lat="32.2440800" lon="35.0220200">
<ele>142.470001</ele>
<time>2024-05-01T21:00:09.794Z</time>
</trkpt>
<trkpt lat="32.2440300" lon="35.0221200">
<ele>145.220001</ele>
<time>2024-05-01T21:00:09.794Z</time>
</trkpt>
<trkpt lat="32.2439800" lon="35.0222300">
<ele>148.800003</ele>
<time>2024-05-01T21:00:09.794Z</time>
</trkpt>
<trkpt lat="32.2439200" lon="35.0223200">
<ele>150.489990</ele>
<time>2024-05-01T21:00:09.794Z</time>
</trkpt>
<trkpt lat="32.2438600" lon="35.0223800">
<ele>151.610001</ele>
<time>2024-05-01T21:00:09.794Z</time>
</trkpt>
<trkpt lat="32.2438100" lon="35.0224100">
<ele>152.680008</ele>
<time>2024-05-01T21:00:09.794Z</time>
</trkpt>
<trkpt lat="32.2438100" lon="35.0223600">
<ele>152.270004</ele>
<time>2024-05-01T21:00:09.794Z</time>
</trkpt>
<trkpt lat="32.2438200" lon="35.0222300">
<ele>151.050003</ele>
<time>2024-05-01T21:00:09.794Z</time>
</trkpt>
<trkpt lat="32.2438300" lon="35.0221100">
<ele>147.660004</ele>
<time>2024-05-01T21:00:09.794Z</time>
</trkpt>
<trkpt lat="32.2438700" lon="35.0219700">
<ele>141.809998</ele>
<time>2024-05-01T21:00:09.794Z</time>
</trkpt>
<trkpt lat="32.2439000" lon="35.0218300">
<ele>140.809998</ele>
<time>2024-05-01T21:00:09.794Z</time>
</trkpt>
<trkpt lat="32.2439500" lon="35.0216800">
<ele>141.500000</ele>
<time>2024-05-01T21:00:09.794Z</time>
</trkpt>
<trkpt lat="32.2439600" lon="35.0215300">
<ele>142.839996</ele>
<time>2024-05-01T21:00:09.795Z</time>
</trkpt>
<trkpt lat="32.2439800" lon="35.0214300">
<ele>143.619995</ele>
<time>2024-05-01T21:00:09.795Z</time>
</trkpt>
<trkpt lat="32.2439800" lon="35.0213100">
<ele>144.300003</ele>
<time>2024-05-01T21:00:09.795Z</time>
</trkpt>
<trkpt lat="32.2439700" lon="35.0212000">
<ele>144.800003</ele>
<time>2024-05-01T21:00:09.795Z</time>
</trkpt>
<trkpt lat="32.2439400" lon="35.0210900">
<ele>145.389999</ele>
<time>2024-05-01T21:00:09.795Z</time>
</trkpt>
<trkpt lat="32.2439200" lon="35.0209700">
<ele>145.210007</ele>
<time>2024-05-01T21:00:09.795Z</time>
</trkpt>
<trkpt lat="32.2439000" lon="35.0208300">
<ele>144.910004</ele>
<time>2024-05-01T21:00:09.795Z</time>
</trkpt>
<trkpt lat="32.2438500" lon="35.0206900">
<ele>145.110001</ele>
<time>2024-05-01T21:00:09.795Z</time>
</trkpt>
<trkpt lat="32.2438200" lon="35.0205900">
<ele>144.959991</ele>
<time>2024-05-01T21:00:09.795Z</time>
</trkpt>
<trkpt lat="32.2437600" lon="35.0204900">
<ele>145.059998</ele>
<time>2024-05-01T21:00:09.795Z</time>
</trkpt>
<trkpt lat="32.2436600" lon="35.0203900">
<ele>145.000000</ele>
<time>2024-05-01T21:00:09.795Z</time>
</trkpt>
<trkpt lat="32.2435500" lon="35.0203200">
<ele>144.929993</ele>
<time>2024-05-01T21:00:09.795Z</time>
</trkpt>
<trkpt lat="32.2434300" lon="35.0203000">
<ele>145.599991</ele>
<time>2024-05-01T21:00:09.795Z</time>
</trkpt>
<trkpt lat="32.2433200" lon="35.0202800">
<ele>145.889999</ele>
<time>2024-05-01T21:00:09.795Z</time>
</trkpt>
<trkpt lat="32.2432100" lon="35.0202700">
<ele>144.619995</ele>
<time>2024-05-01T21:00:09.795Z</time>
</trkpt>
<trkpt lat="32.2431000" lon="35.0202700">
<ele>143.449997</ele>
<time>2024-05-01T21:00:09.795Z</time>
</trkpt>
<trkpt lat="32.2429800" lon="35.0202600">
<ele>142.069992</ele>
<time>2024-05-01T21:00:09.795Z</time>
</trkpt>
<trkpt lat="32.2428800" lon="35.0202700">
<ele>141.020004</ele>
<time>2024-05-01T21:00:09.795Z</time>
</trkpt>
<trkpt lat="32.2427700" lon="35.0202700">
<ele>139.860001</ele>
<time>2024-05-01T21:00:09.796Z</time>
</trkpt>
<trkpt lat="32.2426500" lon="35.0202800">
<ele>139.619995</ele>
<time>2024-05-01T21:00:09.796Z</time>
</trkpt>
<trkpt lat="32.2425500" lon="35.0202800">
<ele>139.259995</ele>
<time>2024-05-01T21:00:09.796Z</time>
</trkpt>
<trkpt lat="32.2424500" lon="35.0202900">
<ele>139.319992</ele>
<time>2024-05-01T21:00:09.796Z</time>
</trkpt>
<trkpt lat="32.2423500" lon="35.0203000">
<ele>139.559998</ele>
<time>2024-05-01T21:00:09.796Z</time>
</trkpt>
<trkpt lat="32.2422600" lon="35.0203100">
<ele>140.000000</ele>
<time>2024-05-01T21:00:09.796Z</time>
</trkpt>
<trkpt lat="32.2421700" lon="35.0203200">
<ele>140.790009</ele>
<time>2024-05-01T21:00:09.796Z</time>
</trkpt>
<trkpt lat="32.2420800" lon="35.0203200">
<ele>141.139999</ele>
<time>2024-05-01T21:00:09.796Z</time>
</trkpt>
<trkpt lat="32.2419700" lon="35.0203200">
<ele>141.570007</ele>
<time>2024-05-01T21:00:09.796Z</time>
</trkpt>
<trkpt lat="32.2418800" lon="35.0203400">
<ele>141.020004</ele>
<time>2024-05-01T21:00:09.796Z</time>
</trkpt>
<trkpt lat="32.2417900" lon="35.0203700">
<ele>140.129990</ele>
<time>2024-05-01T21:00:09.796Z</time>
</trkpt>
<trkpt lat="32.2416900" lon="35.0204000">
<ele>138.940002</ele>
<time>2024-05-01T21:00:09.796Z</time>
</trkpt>
<trkpt lat="32.2415900" lon="35.0204600">
<ele>140.470001</ele>
<time>2024-05-01T21:00:09.796Z</time>
</trkpt>
<trkpt lat="32.2415100" lon="35.0205200">
<ele>142.300003</ele>
<time>2024-05-01T21:00:09.796Z</time>
</trkpt>
<trkpt lat="32.2414300" lon="35.0205800">
<ele>144.050003</ele>
<time>2024-05-01T21:00:09.796Z</time>
</trkpt>
<trkpt lat="32.2413000" lon="35.0206100">
<ele>146.309998</ele>
<time>2024-05-01T21:00:09.796Z</time>
</trkpt>
<trkpt lat="32.2412100" lon="35.0206400">
<ele>148.479996</ele>
<time>2024-05-01T21:00:09.796Z</time>
</trkpt>
<trkpt lat="32.2411400" lon="35.0207100">
<ele>151.050003</ele>
<time>2024-05-01T21:00:09.796Z</time>
</trkpt>
<trkpt lat="32.2410400" lon="35.0207800">
<ele>152.180008</ele>
<time>2024-05-01T21:00:09.796Z</time>
</trkpt>
<trkpt lat="32.2409300" lon="35.0208400">
<ele>152.199997</ele>
<time>2024-05-01T21:00:09.796Z</time>
</trkpt>
<trkpt lat="32.2408200" lon="35.0209000">
<ele>152.800003</ele>
<time>2024-05-01T21:00:09.796Z</time>
</trkpt>
<trkpt lat="32.2407100" lon="35.0209600">
<ele>155.119995</ele>
<time>2024-05-01T21:00:09.797Z</time>
</trkpt>
<trkpt lat="32.2406200" lon="35.0210000">
<ele>156.580002</ele>
<time>2024-05-01T21:00:09.797Z</time>
</trkpt>
<trkpt lat="32.2405200" lon="35.0210100">
<ele>156.909988</ele>
<time>2024-05-01T21:00:09.797Z</time>
</trkpt>
<trkpt lat="32.2404100" lon="35.0210300">
<ele>156.560013</ele>
<time>2024-05-01T21:00:09.797Z</time>
</trkpt>
<trkpt lat="32.2403000" lon="35.0210600">
<ele>156.649994</ele>
<time>2024-05-01T21:00:09.797Z</time>
</trkpt>
<trkpt lat="32.2401900" lon="35.0210900">
<ele>154.960007</ele>
<time>2024-05-01T21:00:09.797Z</time>
</trkpt>
<trkpt lat="32.2400800" lon="35.0211100">
<ele>152.279999</ele>
<time>2024-05-01T21:00:09.797Z</time>
</trkpt>
<trkpt lat="32.2399900" lon="35.0211300">
<ele>150.570007</ele>
<time>2024-05-01T21:00:09.797Z</time>
</trkpt>
<trkpt lat="32.2398900" lon="35.0211500">
<ele>149.500000</ele>
<time>2024-05-01T21:00:09.797Z</time>
</trkpt>
<trkpt lat="32.2398000" lon="35.0211800">
<ele>148.949997</ele>
<time>2024-05-01T21:00:09.797Z</time>
</trkpt>
<trkpt lat="32.2396900" lon="35.0212200">
<ele>148.550003</ele>
<time>2024-05-01T21:00:09.797Z</time>
</trkpt>
<trkpt lat="32.2396000" lon="35.0212700">
<ele>149.080002</ele>
<time>2024-05-01T21:00:09.797Z</time>
</trkpt>
<trkpt lat="32.2395100" lon="35.0213400">
<ele>149.819992</ele>
<time>2024-05-01T21:00:09.797Z</time>
</trkpt>
<trkpt lat="32.2394300" lon="35.0214000">
<ele>150.629990</ele>
<time>2024-05-01T21:00:09.797Z</time>
</trkpt>
<trkpt lat="32.2393600" lon="35.0214500">
<ele>153.220001</ele>
<time>2024-05-01T21:00:09.797Z</time>
</trkpt>
<trkpt lat="32.2392300" lon="35.0214500">
<ele>154.110001</ele>
<time>2024-05-01T21:00:09.797Z</time>
</trkpt>
<trkpt lat="32.2391400" lon="35.0214400">
<ele>154.350006</ele>
<time>2024-05-01T21:00:09.797Z</time>
</trkpt>
<trkpt lat="32.2390500" lon="35.0214500">
<ele>154.779999</ele>
<time>2024-05-01T21:00:09.797Z</time>
</trkpt>
<trkpt lat="32.2389200" lon="35.0214400">
<ele>154.850006</ele>
<time>2024-05-01T21:00:09.797Z</time>
</trkpt>
<trkpt lat="32.2388000" lon="35.0214300">
<ele>154.289993</ele>
<time>2024-05-01T21:00:09.797Z</time>
</trkpt>
<trkpt lat="32.2387000" lon="35.0214300">
<ele>153.779999</ele>
<time>2024-05-01T21:00:09.798Z</time>
</trkpt>
<trkpt lat="32.2386000" lon="35.0214300">
<ele>153.179993</ele>
<time>2024-05-01T21:00:09.798Z</time>
</trkpt>
<trkpt lat="32.2384800" lon="35.0214000">
<ele>150.489990</ele>
<time>2024-05-01T21:00:09.798Z</time>
</trkpt>
<trkpt lat="32.2383600" lon="35.0214000">
<ele>148.779999</ele>
<time>2024-05-01T21:00:09.798Z</time>
</trkpt>
<trkpt lat="32.2382400" lon="35.0214000">
<ele>147.070007</ele>
<time>2024-05-01T21:00:09.798Z</time>
</trkpt>
<trkpt lat="32.2381300" lon="35.0214000">
<ele>145.500000</ele>
<time>2024-05-01T21:00:09.798Z</time>
</trkpt>
<trkpt lat="32.2380100" lon="35.0214100">
<ele>144.809998</ele>
<time>2024-05-01T21:00:09.798Z</time>
</trkpt>
<trkpt lat="32.2379200" lon="35.0214300">
<ele>145.480011</ele>
<time>2024-05-01T21:00:09.798Z</time>
</trkpt>
<trkpt lat="32.2378300" lon="35.0214400">
<ele>145.729996</ele>
<time>2024-05-01T21:00:09.798Z</time>
</trkpt>
<trkpt lat="32.2377400" lon="35.0214800">
<ele>146.360001</ele>
<time>2024-05-01T21:00:09.798Z</time>
</trkpt>
<trkpt lat="32.2376600" lon="35.0215200">
<ele>146.349991</ele>
<time>2024-05-01T21:00:09.798Z</time>
</trkpt>
<trkpt lat="32.2375600" lon="35.0216100">
<ele>147.399994</ele>
<time>2024-05-01T21:00:09.798Z</time>
</trkpt>
<trkpt lat="32.2374300" lon="35.0216700">
<ele>146.830002</ele>
<time>2024-05-01T21:00:09.798Z</time>
</trkpt>
<trkpt lat="32.2373500" lon="35.0217400">
<ele>147.270004</ele>
<time>2024-05-01T21:00:09.798Z</time>
</trkpt>
<trkpt lat="32.2372700" lon="35.0218000">
<ele>147.300003</ele>
<time>2024-05-01T21:00:09.798Z</time>
</trkpt>
<trkpt lat="32.2372100" lon="35.0218900">
<ele>148.370010</ele>
<time>2024-05-01T21:00:09.798Z</time>
</trkpt>
<trkpt lat="32.2371300" lon="35.0220200">
<ele>149.729996</ele>
<time>2024-05-01T21:00:09.798Z</time>
</trkpt>
<trkpt lat="32.2370800" lon="35.0221100">
<ele>150.809998</ele>
<time>2024-05-01T21:00:09.798Z</time>
</trkpt>
<trkpt lat="32.2370400" lon="35.0222600">
<ele>153.539993</ele>
<time>2024-05-01T21:00:09.798Z</time>
</trkpt>
<trkpt lat="32.2370200" lon="35.0224000">
<ele>156.080002</ele>
<time>2024-05-01T21:00:09.798Z</time>
</trkpt>
<trkpt lat="32.2370200" lon="35.0225500">
<ele>158.580002</ele>
<time>2024-05-01T21:00:09.799Z</time>
</trkpt>
<trkpt lat="32.2370200" lon="35.0227000">
<ele>159.809998</ele>
<time>2024-05-01T21:00:09.799Z</time>
</trkpt>
<trkpt lat="32.2370200" lon="35.0228000">
<ele>160.490005</ele>
<time>2024-05-01T21:00:09.799Z</time>
</trkpt>
<trkpt lat="32.2370300" lon="35.0229300">
<ele>161.110001</ele>
<time>2024-05-01T21:00:09.799Z</time>
</trkpt>
<trkpt lat="32.2370300" lon="35.0230500">
<ele>161.379990</ele>
<time>2024-05-01T21:00:09.799Z</time>
</trkpt>
<trkpt lat="32.2370300" lon="35.0231600">
<ele>162.020004</ele>
<time>2024-05-01T21:00:09.799Z</time>
</trkpt>
<trkpt lat="32.2370200" lon="35.0232700">
<ele>162.330002</ele>
<time>2024-05-01T21:00:09.799Z</time>
</trkpt>
<trkpt lat="32.2370100" lon="35.0233800">
<ele>163.080002</ele>
<time>2024-05-01T21:00:09.799Z</time>
</trkpt>
<trkpt lat="32.2369800" lon="35.0235000">
<ele>164.050003</ele>
<time>2024-05-01T21:00:09.799Z</time>
</trkpt>
<trkpt lat="32.2369000" lon="35.0236200">
<ele>163.199997</ele>
<time>2024-05-01T21:00:09.799Z</time>
</trkpt>
<trkpt lat="32.2368200" lon="35.0237400">
<ele>161.270004</ele>
<time>2024-05-01T21:00:09.799Z</time>
</trkpt>
<trkpt lat="32.2367600" lon="35.0238200">
<ele>159.539993</ele>
<time>2024-05-01T21:00:09.799Z</time>
</trkpt>
<trkpt lat="32.2366800" lon="35.0239000">
<ele>156.860001</ele>
<time>2024-05-01T21:00:09.799Z</time>
</trkpt>
<trkpt lat="32.2366100" lon="35.0239900">
<ele>155.380005</ele>
<time>2024-05-01T21:00:09.799Z</time>
</trkpt>
<trkpt lat="32.2365500" lon="35.0240900">
<ele>154.279999</ele>
<time>2024-05-01T21:00:09.799Z</time>
</trkpt>
<trkpt lat="32.2364900" lon="35.0242100">
<ele>153.789993</ele>
<time>2024-05-01T21:00:09.799Z</time>
</trkpt>
<trkpt lat="32.2364700" lon="35.0243400">
<ele>156.889999</ele>
<time>2024-05-01T21:00:09.799Z</time>
</trkpt>
<trkpt lat="32.2364300" lon="35.0244700">
<ele>159.130005</ele>
<time>2024-05-01T21:00:09.799Z</time>
</trkpt>
<trkpt lat="32.2364000" lon="35.0245700">
<ele>160.080002</ele>
<time>2024-05-01T21:00:09.799Z</time>
</trkpt>
<trkpt lat="32.2363800" lon="35.0247100">
<ele>162.380005</ele>
<time>2024-05-01T21:00:09.799Z</time>
</trkpt>
<trkpt lat="32.2363700" lon="35.0248200">
<ele>164.059998</ele>
<time>2024-05-01T21:00:09.800Z</time>
</trkpt>
<trkpt lat="32.2363400" lon="35.0249500">
<ele>165.449997</ele>
<time>2024-05-01T21:00:09.800Z</time>
</trkpt>
<trkpt lat="32.2363400" lon="35.0250800">
<ele>167.380005</ele>
<time>2024-05-01T21:00:09.800Z</time>
</trkpt>
<trkpt lat="32.2363200" lon="35.0251900">
<ele>168.160004</ele>
<time>2024-05-01T21:00:09.800Z</time>
</trkpt>
<trkpt lat="32.2363100" lon="35.0253200">
<ele>169.320007</ele>
<time>2024-05-01T21:00:09.800Z</time>
</trkpt>
<trkpt lat="32.2362900" lon="35.0254400">
<ele>169.680008</ele>
<time>2024-05-01T21:00:09.800Z</time>
</trkpt>
<trkpt lat="32.2362800" lon="35.0255500">
<ele>170.219986</ele>
<time>2024-05-01T21:00:09.800Z</time>
</trkpt>
<trkpt lat="32.2362600" lon="35.0256800">
<ele>170.680008</ele>
<time>2024-05-01T21:00:09.800Z</time>
</trkpt>
<trkpt lat="32.2362300" lon="35.0258200">
<ele>170.759995</ele>
<time>2024-05-01T21:00:09.800Z</time>
</trkpt>
<trkpt lat="32.2362200" lon="35.0259400">
<ele>172.129990</ele>
<time>2024-05-01T21:00:09.800Z</time>
</trkpt>
<trkpt lat="32.2361900" lon="35.0260600">
<ele>172.700012</ele>
<time>2024-05-01T21:00:09.800Z</time>
</trkpt>
<trkpt lat="32.2361700" lon="35.0261700">
<ele>174.240005</ele>
<time>2024-05-01T21:00:09.800Z</time>
</trkpt>
<trkpt lat="32.2361500" lon="35.0263000">
<ele>177.119995</ele>
<time>2024-05-01T21:00:09.800Z</time>
</trkpt>
<trkpt lat="32.2361400" lon="35.0264300">
<ele>180.069992</ele>
<time>2024-05-01T21:00:09.800Z</time>
</trkpt>
<trkpt lat="32.2361100" lon="35.0265400">
<ele>181.210007</ele>
<time>2024-05-01T21:00:09.800Z</time>
</trkpt>
<trkpt lat="32.2360700" lon="35.0266700">
<ele>181.779999</ele>
<time>2024-05-01T21:00:09.801Z</time>
</trkpt>
<trkpt lat="32.2360600" lon="35.0268000">
<ele>181.380005</ele>
<time>2024-05-01T21:00:09.801Z</time>
</trkpt>
<trkpt lat="32.2360300" lon="35.0269100">
<ele>180.529999</ele>
<time>2024-05-01T21:00:09.801Z</time>
</trkpt>
<trkpt lat="32.2360100" lon="35.0270300">
<ele>180.680008</ele>
<time>2024-05-01T21:00:09.801Z</time>
</trkpt>
<trkpt lat="32.2360000" lon="35.0271500">
<ele>181.130005</ele>
<time>2024-05-01T21:00:09.801Z</time>
</trkpt>
<trkpt lat="32.2359900" lon="35.0272600">
<ele>181.809998</ele>
<time>2024-05-01T21:00:09.801Z</time>
</trkpt>
<trkpt lat="32.2359900" lon="35.0273700">
<ele>183.559998</ele>
<time>2024-05-01T21:00:09.801Z</time>
</trkpt>
<trkpt lat="32.2360100" lon="35.0274700">
<ele>185.889999</ele>
<time>2024-05-01T21:00:09.801Z</time>
</trkpt>
<trkpt lat="32.2360500" lon="35.0275800">
<ele>188.150009</ele>
<time>2024-05-01T21:00:09.801Z</time>
</trkpt>
<trkpt lat="32.2361000" lon="35.0276700">
<ele>190.239990</ele>
<time>2024-05-01T21:00:09.801Z</time>
</trkpt>
<trkpt lat="32.2361700" lon="35.0277800">
<ele>192.260010</ele>
<time>2024-05-01T21:00:09.801Z</time>
</trkpt>
<trkpt lat="32.2362100" lon="35.0278700">
<ele>192.470001</ele>
<time>2024-05-01T21:00:09.801Z</time>
</trkpt>
<trkpt lat="32.2362700" lon="35.0279900">
<ele>192.900009</ele>
<time>2024-05-01T21:00:09.801Z</time>
</trkpt>
<trkpt lat="32.2363500" lon="35.0280300">
<ele>194.340012</ele>
<time>2024-05-01T21:00:09.801Z</time>
</trkpt>
<trkpt lat="32.2364400" lon="35.0280700">
<ele>196.619995</ele>
<time>2024-05-01T21:00:09.801Z</time>
</trkpt>
<trkpt lat="32.2365300" lon="35.0281400">
<ele>198.709991</ele>
<time>2024-05-01T21:00:09.801Z</time>
</trkpt>
<trkpt lat="32.2366100" lon="35.0282300">
<ele>199.950012</ele>
<time>2024-05-01T21:00:09.801Z</time>
</trkpt>
<trkpt lat="32.2366700" lon="35.0283100">
<ele>200.509995</ele>
<time>2024-05-01T21:00:09.802Z</time>
</trkpt>
<trkpt lat="32.2367600" lon="35.0284000">
<ele>201.069992</ele>
<time>2024-05-01T21:00:09.802Z</time>
</trkpt>
<trkpt lat="32.2368200" lon="35.0284900">
<ele>201.100006</ele>
<time>2024-05-01T21:00:09.802Z</time>
</trkpt>
<trkpt lat="32.2368900" lon="35.0286200">
<ele>201.100006</ele>
<time>2024-05-01T21:00:09.802Z</time>
</trkpt>
<trkpt lat="32.2369400" lon="35.0287300">
<ele>201.139999</ele>
<time>2024-05-01T21:00:09.802Z</time>
</trkpt>
<trkpt lat="32.2369700" lon="35.0288400">
<ele>200.039993</ele>
<time>2024-05-01T21:00:09.802Z</time>
</trkpt>
<trkpt lat="32.2370100" lon="35.0289600">
<ele>199.099991</ele>
<time>2024-05-01T21:00:09.802Z</time>
</trkpt>
<trkpt lat="32.2370500" lon="35.0290800">
<ele>198.550003</ele>
<time>2024-05-01T21:00:09.802Z</time>
</trkpt>
<trkpt lat="32.2370700" lon="35.0291800">
<ele>197.990005</ele>
<time>2024-05-01T21:00:09.802Z</time>
</trkpt>
<trkpt lat="32.2370600" lon="35.0293100">
<ele>196.059998</ele>
<time>2024-05-01T21:00:09.802Z</time>
</trkpt>
<trkpt lat="32.2370400" lon="35.0294200">
<ele>194.069992</ele>
<time>2024-05-01T21:00:09.802Z</time>
</trkpt>
<trkpt lat="32.2369700" lon="35.0295300">
<ele>191.649994</ele>
<time>2024-05-01T21:00:09.802Z</time>
</trkpt>
<trkpt lat="32.2368900" lon="35.0296400">
<ele>191.280014</ele>
<time>2024-05-01T21:00:09.802Z</time>
</trkpt>
<trkpt lat="32.2368300" lon="35.0297200">
<ele>191.819992</ele>
<time>2024-05-01T21:00:09.802Z</time>
</trkpt>
<trkpt lat="32.2367800" lon="35.0298200">
<ele>193.250015</ele>
<time>2024-05-01T21:00:09.802Z</time>
</trkpt>
<trkpt lat="32.2367100" lon="35.0299500">
<ele>194.149994</ele>
<time>2024-05-01T21:00:09.802Z</time>
</trkpt>
<trkpt lat="32.2366700" lon="35.0300700">
<ele>194.539993</ele>
<time>2024-05-01T21:00:09.802Z</time>
</trkpt>
<trkpt lat="32.2366400" lon="35.0302200">
<ele>194.910004</ele>
<time>2024-05-01T21:00:09.802Z</time>
</trkpt>
<trkpt lat="32.2366300" lon="35.0303500">
<ele>195.080002</ele>
<time>2024-05-01T21:00:09.803Z</time>
</trkpt>
<trkpt lat="32.2366300" lon="35.0304600">
<ele>195.080002</ele>
<time>2024-05-01T21:00:09.803Z</time>
</trkpt>
<trkpt lat="32.2366200" lon="35.0305900">
<ele>194.579987</ele>
<time>2024-05-01T21:00:09.803Z</time>
</trkpt>
<trkpt lat="32.2366300" lon="35.0307300">
<ele>193.820007</ele>
<time>2024-05-01T21:00:09.803Z</time>
</trkpt>
<trkpt lat="32.2366400" lon="35.0308800">
<ele>192.860001</ele>
<time>2024-05-01T21:00:09.803Z</time>
</trkpt>
<trkpt lat="32.2366600" lon="35.0309900">
<ele>192.169998</ele>
<time>2024-05-01T21:00:09.803Z</time>
</trkpt>
<trkpt lat="32.2366900" lon="35.0311100">
<ele>191.929993</ele>
<time>2024-05-01T21:00:09.803Z</time>
</trkpt>
<trkpt lat="32.2367200" lon="35.0312200">
<ele>193.110001</ele>
<time>2024-05-01T21:00:09.803Z</time>
</trkpt>
<trkpt lat="32.2367800" lon="35.0313300">
<ele>195.490005</ele>
<time>2024-05-01T21:00:09.803Z</time>
</trkpt>
<trkpt lat="32.2368400" lon="35.0314400">
<ele>197.590012</ele>
<time>2024-05-01T21:00:09.803Z</time>
</trkpt>
<trkpt lat="32.2369100" lon="35.0315200">
<ele>199.449997</ele>
<time>2024-05-01T21:00:09.803Z</time>
</trkpt>
<trkpt lat="32.2369900" lon="35.0316000">
<ele>200.829987</ele>
<time>2024-05-01T21:00:09.803Z</time>
</trkpt>
<trkpt lat="32.2370500" lon="35.0317100">
<ele>201.409988</ele>
<time>2024-05-01T21:00:09.803Z</time>
</trkpt>
<trkpt lat="32.2370900" lon="35.0318400">
<ele>201.750000</ele>
<time>2024-05-01T21:00:09.803Z</time>
</trkpt>
<trkpt lat="32.2371600" lon="35.0319500">
<ele>203.130005</ele>
<time>2024-05-01T21:00:09.803Z</time>
</trkpt>
<trkpt lat="32.2372200" lon="35.0320700">
<ele>203.130005</ele>
<time>2024-05-01T21:00:09.803Z</time>
</trkpt>
<trkpt lat="32.2372900" lon="35.0322200">
<ele>202.250000</ele>
<time>2024-05-01T21:00:09.803Z</time>
</trkpt>
<trkpt lat="32.2373600" lon="35.0323100">
<ele>201.899994</ele>
<time>2024-05-01T21:00:09.803Z</time>
</trkpt>
<trkpt lat="32.2374300" lon="35.0323900">
<ele>202.020004</ele>
<time>2024-05-01T21:00:09.803Z</time>
</trkpt>
<trkpt lat="32.2374600" lon="35.0325000">
<ele>200.990005</ele>
<time>2024-05-01T21:00:09.803Z</time>
</trkpt>
<trkpt lat="32.2374900" lon="35.0325800">
<ele>200.310013</ele>
<time>2024-05-01T21:00:09.803Z</time>
</trkpt>
<trkpt lat="32.2374800" lon="35.0327000">
<ele>197.899994</ele>
<time>2024-05-01T21:00:09.804Z</time>
</trkpt>
<trkpt lat="32.2374500" lon="35.0327900">
<ele>195.699997</ele>
<time>2024-05-01T21:00:09.804Z</time>
</trkpt>
<trkpt lat="32.2374100" lon="35.0329000">
<ele>194.709991</ele>
<time>2024-05-01T21:00:09.804Z</time>
</trkpt>
<trkpt lat="32.2373500" lon="35.0330000">
<ele>194.210007</ele>
<time>2024-05-01T21:00:09.804Z</time>
</trkpt>
<trkpt lat="32.2373100" lon="35.0330900">
<ele>194.490005</ele>
<time>2024-05-01T21:00:09.804Z</time>
</trkpt>
<trkpt lat="32.2372700" lon="35.0331600">
<ele>194.980011</ele>
<time>2024-05-01T21:00:09.804Z</time>
</trkpt>
<trkpt lat="32.2372800" lon="35.0332700">
<ele>195.720001</ele>
<time>2024-05-01T21:00:09.804Z</time>
</trkpt>
<trkpt lat="32.2373500" lon="35.0333000">
<ele>195.080002</ele>
<time>2024-05-01T21:00:09.804Z</time>
</trkpt>
<trkpt lat="32.2374600" lon="35.0333200">
<ele>193.639999</ele>
<time>2024-05-01T21:00:09.804Z</time>
</trkpt>
<trkpt lat="32.2375600" lon="35.0333300">
<ele>193.240005</ele>
<time>2024-05-01T21:00:09.804Z</time>
</trkpt>
<trkpt lat="32.2376500" lon="35.0333200">
<ele>193.659988</ele>
<time>2024-05-01T21:00:09.804Z</time>
</trkpt>
<trkpt lat="32.2377400" lon="35.0333500">
<ele>194.100006</ele>
<time>2024-05-01T21:00:09.804Z</time>
</trkpt>
<trkpt lat="32.2377900" lon="35.0334600">
<ele>196.160004</ele>
<time>2024-05-01T21:00:09.804Z</time>
</trkpt>
<trkpt lat="32.2378100" lon="35.0335700">
<ele>198.160004</ele>
<time>2024-05-01T21:00:09.804Z</time>
</trkpt>
<trkpt lat="32.2378300" lon="35.0336900">
<ele>200.229996</ele>
<time>2024-05-01T21:00:09.804Z</time>
</trkpt>
<trkpt lat="32.2378800" lon="35.0338000">
<ele>202.110001</ele>
<time>2024-05-01T21:00:09.804Z</time>
</trkpt>
<trkpt lat="32.2379100" lon="35.0339400">
<ele>203.739990</ele>
<time>2024-05-01T21:00:09.804Z</time>
</trkpt>
<trkpt lat="32.2379700" lon="35.0340300">
<ele>204.839996</ele>
<time>2024-05-01T21:00:09.804Z</time>
</trkpt>
<trkpt lat="32.2380100" lon="35.0341200">
<ele>205.770004</ele>
<time>2024-05-01T21:00:09.804Z</time>
</trkpt>
<trkpt lat="32.2380500" lon="35.0342300">
<ele>207.160004</ele>
<time>2024-05-01T21:00:09.804Z</time>
</trkpt>
<trkpt lat="32.2381000" lon="35.0343500">
<ele>209.139999</ele>
<time>2024-05-01T21:00:09.804Z</time>
</trkpt>
<trkpt lat="32.2381300" lon="35.0344900">
<ele>211.029999</ele>
<time>2024-05-01T21:00:09.805Z</time>
</trkpt>
<trkpt lat="32.2381600" lon="35.0346300">
<ele>212.050003</ele>
<time>2024-05-01T21:00:09.805Z</time>
</trkpt>
<trkpt lat="32.2381700" lon="35.0347700">
<ele>212.850006</ele>
<time>2024-05-01T21:00:09.805Z</time>
</trkpt>
<trkpt lat="32.2381700" lon="35.0349000">
<ele>212.940002</ele>
<time>2024-05-01T21:00:09.805Z</time>
</trkpt>
<trkpt lat="32.2381900" lon="35.0350300">
<ele>212.839996</ele>
<time>2024-05-01T21:00:09.805Z</time>
</trkpt>
<trkpt lat="32.2382000" lon="35.0351700">
<ele>212.089996</ele>
<time>2024-05-01T21:00:09.805Z</time>
</trkpt>
<trkpt lat="32.2382200" lon="35.0353100">
<ele>211.270004</ele>
<time>2024-05-01T21:00:09.805Z</time>
</trkpt>
<trkpt lat="32.2382600" lon="35.0354400">
<ele>210.260010</ele>
<time>2024-05-01T21:00:09.805Z</time>
</trkpt>
<trkpt lat="32.2382900" lon="35.0355700">
<ele>209.410004</ele>
<time>2024-05-01T21:00:09.805Z</time>
</trkpt>
<trkpt lat="32.2383300" lon="35.0356900">
<ele>208.980011</ele>
<time>2024-05-01T21:00:09.805Z</time>
</trkpt>
<trkpt lat="32.2383900" lon="35.0357800">
<ele>209.040009</ele>
<time>2024-05-01T21:00:09.805Z</time>
</trkpt>
<trkpt lat="32.2384500" lon="35.0359000">
<ele>208.400009</ele>
<time>2024-05-01T21:00:09.805Z</time>
</trkpt>
<trkpt lat="32.2385200" lon="35.0360000">
<ele>208.019989</ele>
<time>2024-05-01T21:00:09.805Z</time>
</trkpt>
<trkpt lat="32.2385900" lon="35.0360800">
<ele>208.040009</ele>
<time>2024-05-01T21:00:09.805Z</time>
</trkpt>
<trkpt lat="32.2386400" lon="35.0362100">
<ele>207.079987</ele>
<time>2024-05-01T21:00:09.805Z</time>
</trkpt>
<trkpt lat="32.2386800" lon="35.0363300">
<ele>205.900009</ele>
<time>2024-05-01T21:00:09.805Z</time>
</trkpt>
<trkpt lat="32.2387000" lon="35.0364700">
<ele>205.059998</ele>
<time>2024-05-01T21:00:09.805Z</time>
</trkpt>
<trkpt lat="32.2387100" lon="35.0365800">
<ele>204.959991</ele>
<time>2024-05-01T21:00:09.805Z</time>
</trkpt>
<trkpt lat="32.2387200" lon="35.0366900">
<ele>204.619995</ele>
<time>2024-05-01T21:00:09.805Z</time>
</trkpt>
<trkpt lat="32.2387300" lon="35.0368200">
<ele>203.750000</ele>
<time>2024-05-01T21:00:09.806Z</time>
</trkpt>
<trkpt lat="32.2387600" lon="35.0369400">
<ele>203.099991</ele>
<time>2024-05-01T21:00:09.806Z</time>
</trkpt>
<trkpt lat="32.2387700" lon="35.0370600">
<ele>203.020004</ele>
<time>2024-05-01T21:00:09.806Z</time>
</trkpt>
<trkpt lat="32.2387800" lon="35.0371800">
<ele>202.850006</ele>
<time>2024-05-01T21:00:09.806Z</time>
</trkpt>
<trkpt lat="32.2387800" lon="35.0373100">
<ele>204.680008</ele>
<time>2024-05-01T21:00:09.806Z</time>
</trkpt>
<trkpt lat="32.2387800" lon="35.0374300">
<ele>207.270004</ele>
<time>2024-05-01T21:00:09.806Z</time>
</trkpt>
<trkpt lat="32.2387700" lon="35.0375300">
<ele>209.009995</ele>
<time>2024-05-01T21:00:09.806Z</time>
</trkpt>
<trkpt lat="32.2387600" lon="35.0376400">
<ele>209.539993</ele>
<time>2024-05-01T21:00:09.806Z</time>
</trkpt>
<trkpt lat="32.2387600" lon="35.0377500">
<ele>210.020004</ele>
<time>2024-05-01T21:00:09.806Z</time>
</trkpt>
<trkpt lat="32.2387700" lon="35.0378600">
<ele>210.410004</ele>
<time>2024-05-01T21:00:09.806Z</time>
</trkpt>
<trkpt lat="32.2388200" lon="35.0379500">
<ele>211.160004</ele>
<time>2024-05-01T21:00:09.806Z</time>
</trkpt>
<trkpt lat="32.2388700" lon="35.0380500">
<ele>211.789993</ele>
<time>2024-05-01T21:00:09.806Z</time>
</trkpt>
<trkpt lat="32.2388800" lon="35.0381800">
<ele>210.979996</ele>
<time>2024-05-01T21:00:09.806Z</time>
</trkpt>
<trkpt lat="32.2388900" lon="35.0383300">
<ele>210.050003</ele>
<time>2024-05-01T21:00:09.806Z</time>
</trkpt>
<trkpt lat="32.2389100" lon="35.0384700">
<ele>209.510010</ele>
<time>2024-05-01T21:00:09.806Z</time>
</trkpt>
<trkpt lat="32.2389400" lon="35.0385400">
<ele>209.660004</ele>
<time>2024-05-01T21:00:09.806Z</time>
</trkpt>
<trkpt lat="32.2390300" lon="35.0385400">
<ele>211.690002</ele>
<time>2024-05-01T21:00:09.806Z</time>
</trkpt>
<trkpt lat="32.2390500" lon="35.0384700">
<ele>212.790009</ele>
<time>2024-05-01T21:00:09.806Z</time>
</trkpt>
<trkpt lat="32.2390700" lon="35.0383800">
<ele>214.119995</ele>
<time>2024-05-01T21:00:09.806Z</time>
</trkpt>
<trkpt lat="32.2391100" lon="35.0383200">
<ele>215.630005</ele>
<time>2024-05-01T21:00:09.807Z</time>
</trkpt>
<trkpt lat="32.2391500" lon="35.0383900">
<ele>215.980011</ele>
<time>2024-05-01T21:00:09.807Z</time>
</trkpt>
<trkpt lat="32.2392000" lon="35.0384700">
<ele>216.660004</ele>
<time>2024-05-01T21:00:09.807Z</time>
</trkpt>
<trkpt lat="32.2392200" lon="35.0385800">
<ele>216.229996</ele>
<time>2024-05-01T21:00:09.807Z</time>
</trkpt>
<trkpt lat="32.2392700" lon="35.0386900">
<ele>217.580002</ele>
<time>2024-05-01T21:00:09.807Z</time>
</trkpt>
<trkpt lat="32.2392900" lon="35.0388200">
<ele>217.860001</ele>
<time>2024-05-01T21:00:09.807Z</time>
</trkpt>
<trkpt lat="32.2393300" lon="35.0389400">
<ele>218.740005</ele>
<time>2024-05-01T21:00:09.807Z</time>
</trkpt>
<trkpt lat="32.2393700" lon="35.0390400">
<ele>220.190002</ele>
<time>2024-05-01T21:00:09.807Z</time>
</trkpt>
<trkpt lat="32.2394100" lon="35.0391500">
<ele>221.899994</ele>
<time>2024-05-01T21:00:09.807Z</time>
</trkpt>
<trkpt lat="32.2394300" lon="35.0392600">
<ele>222.619995</ele>
<time>2024-05-01T21:00:09.807Z</time>
</trkpt>
<trkpt lat="32.2394500" lon="35.0393700">
<ele>223.210007</ele>
<time>2024-05-01T21:00:09.807Z</time>
</trkpt>
<trkpt lat="32.2394900" lon="35.0394700">
<ele>224.770004</ele>
<time>2024-05-01T21:00:09.807Z</time>
</trkpt>
<trkpt lat="32.2395200" lon="35.0395700">
<ele>225.750000</ele>
<time>2024-05-01T21:00:09.807Z</time>
</trkpt>
<trkpt lat="32.2395500" lon="35.0397000">
<ele>226.479996</ele>
<time>2024-05-01T21:00:09.807Z</time>
</trkpt>
<trkpt lat="32.2395700" lon="35.0398100">
<ele>226.290009</ele>
<time>2024-05-01T21:00:09.807Z</time>
</trkpt>
<trkpt lat="32.2396100" lon="35.0399300">
<ele>226.419998</ele>
<time>2024-05-01T21:00:09.807Z</time>
</trkpt>
<trkpt lat="32.2396200" lon="35.0400400">
<ele>225.949997</ele>
<time>2024-05-01T21:00:09.807Z</time>
</trkpt>
<trkpt lat="32.2396700" lon="35.0401600">
<ele>227.279999</ele>
<time>2024-05-01T21:00:09.807Z</time>
</trkpt>
<trkpt lat="32.2396900" lon="35.0402700">
<ele>227.850006</ele>
<time>2024-05-01T21:00:09.807Z</time>
</trkpt>
<trkpt lat="32.2397300" lon="35.0403600">
<ele>229.820007</ele>
<time>2024-05-01T21:00:09.808Z</time>
</trkpt>
<trkpt lat="32.2397500" lon="35.0404800">
<ele>231.260010</ele>
<time>2024-05-01T21:00:09.808Z</time>
</trkpt>
<trkpt lat="32.2397800" lon="35.0405600">
<ele>232.710007</ele>
<time>2024-05-01T21:00:09.808Z</time>
</trkpt>
<trkpt lat="32.2398400" lon="35.0406200">
<ele>234.889999</ele>
<time>2024-05-01T21:00:09.808Z</time>
</trkpt>
<trkpt lat="32.2399200" lon="35.0405900">
<ele>236.889999</ele>
<time>2024-05-01T21:00:09.808Z</time>
</trkpt>
<trkpt lat="32.2399500" lon="35.0405200">
<ele>237.300003</ele>
<time>2024-05-01T21:00:09.808Z</time>
</trkpt>
<trkpt lat="32.2399900" lon="35.0404100">
<ele>237.660004</ele>
<time>2024-05-01T21:00:09.808Z</time>
</trkpt>
<trkpt lat="32.2400100" lon="35.0403000">
<ele>237.450012</ele>
<time>2024-05-01T21:00:09.808Z</time>
</trkpt>
<trkpt lat="32.2400400" lon="35.0401900">
<ele>238.059998</ele>
<time>2024-05-01T21:00:09.808Z</time>
</trkpt>
<trkpt lat="32.2401000" lon="35.0401000">
<ele>239.419998</ele>
<time>2024-05-01T21:00:09.808Z</time>
</trkpt>
<trkpt lat="32.2401600" lon="35.0400200">
<ele>240.539993</ele>
<time>2024-05-01T21:00:09.808Z</time>
</trkpt>
<trkpt lat="32.2402200" lon="35.0399700">
<ele>241.900009</ele>
<time>2024-05-01T21:00:09.808Z</time>
</trkpt>
<trkpt lat="32.2402800" lon="35.0399900">
<ele>243.080002</ele>
<time>2024-05-01T21:00:09.808Z</time>
</trkpt>
<trkpt lat="32.2403400" lon="35.0400100">
<ele>244.190002</ele>
<time>2024-05-01T21:00:09.808Z</time>
</trkpt>
<trkpt lat="32.2403600" lon="35.0399400">
<ele>244.699997</ele>
<time>2024-05-01T21:00:09.808Z</time>
</trkpt>
<trkpt lat="32.2403700" lon="35.0398800">
<ele>245.090012</ele>
<time>2024-05-01T21:00:09.808Z</time>
</trkpt>
<trkpt lat="32.2404400" lon="35.0398700">
<ele>246.389999</ele>
<time>2024-05-01T21:00:09.808Z</time>
</trkpt>
<trkpt lat="32.2404900" lon="35.0399200">
<ele>247.110001</ele>
<time>2024-05-01T21:00:09.808Z</time>
</trkpt>
<trkpt lat="32.2405500" lon="35.0399700">
<ele>248.009995</ele>
<time>2024-05-01T21:00:09.808Z</time>
</trkpt>
<trkpt lat="32.2406300" lon="35.0400000">
<ele>249.070007</ele>
<time>2024-05-01T21:00:09.808Z</time>
</trkpt>
<trkpt lat="32.2406700" lon="35.0399900">
<ele>249.670013</ele>
<time>2024-05-01T21:00:09.809Z</time>
</trkpt>
<trkpt lat="32.2406400" lon="35.0400100">
<ele>249.260010</ele>
<time>2024-05-01T21:00:09.809Z</time>
</trkpt>
<trkpt lat="32.2406200" lon="35.0400000">
<ele>248.929993</ele>
<time>2024-05-01T21:00:09.809Z</time>
</trkpt>
<trkpt lat="32.2405600" lon="35.0399000">
<ele>248.419998</ele>
<time>2024-05-01T21:00:09.809Z</time>
</trkpt>
<trkpt lat="32.2405100" lon="35.0398100">
<ele>247.860001</ele>
<time>2024-05-01T21:00:09.809Z</time>
</trkpt>
<trkpt lat="32.2404700" lon="35.0397100">
<ele>247.580002</ele>
<time>2024-05-01T21:00:09.809Z</time>
</trkpt>
<trkpt lat="32.2404500" lon="35.0395700">
<ele>248.539993</ele>
<time>2024-05-01T21:00:09.809Z</time>
</trkpt>
<trkpt lat="32.2404300" lon="35.0394500">
<ele>249.240005</ele>
<time>2024-05-01T21:00:09.809Z</time>
</trkpt>
<trkpt lat="32.2404100" lon="35.0393300">
<ele>249.860001</ele>
<time>2024-05-01T21:00:09.809Z</time>
</trkpt>
<trkpt lat="32.2403900" lon="35.0392100">
<ele>250.290009</ele>
<time>2024-05-01T21:00:09.809Z</time>
</trkpt>
<trkpt lat="32.2403800" lon="35.0390800">
<ele>249.569992</ele>
<time>2024-05-01T21:00:09.809Z</time>
</trkpt>
<trkpt lat="32.2403700" lon="35.0389500">
<ele>248.169998</ele>
<time>2024-05-01T21:00:09.809Z</time>
</trkpt>
<trkpt lat="32.2403700" lon="35.0388100">
<ele>246.899994</ele>
<time>2024-05-01T21:00:09.809Z</time>
</trkpt>
<trkpt lat="32.2403700" lon="35.0386700">
<ele>245.560013</ele>
<time>2024-05-01T21:00:09.809Z</time>
</trkpt>
<trkpt lat="32.2403700" lon="35.0385200">
<ele>244.450012</ele>
<time>2024-05-01T21:00:09.809Z</time>
</trkpt>
<trkpt lat="32.2403700" lon="35.0383800">
<ele>243.610001</ele>
<time>2024-05-01T21:00:09.809Z</time>
</trkpt>
<trkpt lat="32.2403700" lon="35.0382400">
<ele>242.880005</ele>
<time>2024-05-01T21:00:09.809Z</time>
</trkpt>
<trkpt lat="32.2403700" lon="35.0381000">
<ele>242.209991</ele>
<time>2024-05-01T21:00:09.809Z</time>
</trkpt>
<trkpt lat="32.2403700" lon="35.0379500">
<ele>241.490005</ele>
<time>2024-05-01T21:00:09.809Z</time>
</trkpt>
<trkpt lat="32.2403600" lon="35.0377900">
<ele>240.759995</ele>
<time>2024-05-01T21:00:09.809Z</time>
</trkpt>
<trkpt lat="32.2403500" lon="35.0376200">
<ele>240.169998</ele>
<time>2024-05-01T21:00:09.810Z</time>
</trkpt>
<trkpt lat="32.2403400" lon="35.0374600">
<ele>239.659988</ele>
<time>2024-05-01T21:00:09.810Z</time>
</trkpt>
<trkpt lat="32.2403300" lon="35.0372900">
<ele>239.199997</ele>
<time>2024-05-01T21:00:09.810Z</time>
</trkpt>
<trkpt lat="32.2403200" lon="35.0371300">
<ele>237.920013</ele>
<time>2024-05-01T21:00:09.810Z</time>
</trkpt>
<trkpt lat="32.2403000" lon="35.0369600">
<ele>235.600006</ele>
<time>2024-05-01T21:00:09.810Z</time>
</trkpt>
<trkpt lat="32.2402900" lon="35.0367800">
<ele>234.009995</ele>
<time>2024-05-01T21:00:09.810Z</time>
</trkpt>
<trkpt lat="32.2402700" lon="35.0365900">
<ele>231.880005</ele>
<time>2024-05-01T21:00:09.810Z</time>
</trkpt>
<trkpt lat="32.2402600" lon="35.0364100">
<ele>229.299988</ele>
<time>2024-05-01T21:00:09.810Z</time>
</trkpt>
<trkpt lat="32.2402500" lon="35.0362300">
<ele>229.000000</ele>
<time>2024-05-01T21:00:09.810Z</time>
</trkpt>
<trkpt lat="32.2402400" lon="35.0360500">
<ele>229.570007</ele>
<time>2024-05-01T21:00:09.810Z</time>
</trkpt>
<trkpt lat="32.2402300" lon="35.0358900">
<ele>230.980011</ele>
<time>2024-05-01T21:00:09.810Z</time>
</trkpt>
<trkpt lat="32.2402200" lon="35.0357400">
<ele>232.849991</ele>
<time>2024-05-01T21:00:09.810Z</time>
</trkpt>
<trkpt lat="32.2402000" lon="35.0355900">
<ele>234.799988</ele>
<time>2024-05-01T21:00:09.810Z</time>
</trkpt>
<trkpt lat="32.2401800" lon="35.0354400">
<ele>235.300003</ele>
<time>2024-05-01T21:00:09.810Z</time>
</trkpt>
<trkpt lat="32.2401600" lon="35.0353000">
<ele>235.379990</ele>
<time>2024-05-01T21:00:09.810Z</time>
</trkpt>
<trkpt lat="32.2401300" lon="35.0351600">
<ele>234.889999</ele>
<time>2024-05-01T21:00:09.810Z</time>
</trkpt>
<trkpt lat="32.2401000" lon="35.0350200">
<ele>234.940002</ele>
<time>2024-05-01T21:00:09.810Z</time>
</trkpt>
<trkpt lat="32.2400800" lon="35.0348900">
<ele>235.110001</ele>
<time>2024-05-01T21:00:09.810Z</time>
</trkpt>
<trkpt lat="32.2400500" lon="35.0347600">
<ele>235.160004</ele>
<time>2024-05-01T21:00:09.810Z</time>
</trkpt>
<trkpt lat="32.2400300" lon="35.0346300">
<ele>235.110001</ele>
<time>2024-05-01T21:00:09.810Z</time>
</trkpt>
<trkpt lat="32.2400000" lon="35.0345000">
<ele>235.000000</ele>
<time>2024-05-01T21:00:09.811Z</time>
</trkpt>
<trkpt lat="32.2399700" lon="35.0343600">
<ele>235.580002</ele>
<time>2024-05-01T21:00:09.811Z</time>
</trkpt>
<trkpt lat="32.2399400" lon="35.0342200">
<ele>236.440002</ele>
<time>2024-05-01T21:00:09.811Z</time>
</trkpt>
<trkpt lat="32.2399100" lon="35.0340800">
<ele>237.089996</ele>
<time>2024-05-01T21:00:09.811Z</time>
</trkpt>
<trkpt lat="32.2398800" lon="35.0339500">
<ele>237.680008</ele>
<time>2024-05-01T21:00:09.811Z</time>
</trkpt>
<trkpt lat="32.2398500" lon="35.0338000">
<ele>237.709991</ele>
<time>2024-05-01T21:00:09.811Z</time>
</trkpt>
<trkpt lat="32.2398200" lon="35.0336600">
<ele>237.419998</ele>
<time>2024-05-01T21:00:09.811Z</time>
</trkpt>
<trkpt lat="32.2397900" lon="35.0335100">
<ele>236.690002</ele>
<time>2024-05-01T21:00:09.811Z</time>
</trkpt>
<trkpt lat="32.2397500" lon="35.0333600">
<ele>235.360001</ele>
<time>2024-05-01T21:00:09.811Z</time>
</trkpt>
<trkpt lat="32.2397200" lon="35.0332000">
<ele>234.040009</ele>
<time>2024-05-01T21:00:09.811Z</time>
</trkpt>
<trkpt lat="32.2396800" lon="35.0330400">
<ele>232.580002</ele>
<time>2024-05-01T21:00:09.811Z</time>
</trkpt>
<trkpt lat="32.2396500" lon="35.0328700">
<ele>229.570007</ele>
<time>2024-05-01T21:00:09.811Z</time>
</trkpt>
<trkpt lat="32.2396100" lon="35.0327000">
<ele>226.989990</ele>
<time>2024-05-01T21:00:09.811Z</time>
</trkpt>
<trkpt lat="32.2395600" lon="35.0325300">
<ele>224.950012</ele>
<time>2024-05-01T21:00:09.811Z</time>
</trkpt>
<trkpt lat="32.2395200" lon="35.0323500">
<ele>224.730011</ele>
<time>2024-05-01T21:00:09.811Z</time>
</trkpt>
<trkpt lat="32.2394900" lon="35.0321900">
<ele>225.070007</ele>
<time>2024-05-01T21:00:09.811Z</time>
</trkpt>
<trkpt lat="32.2394500" lon="35.0320200">
<ele>226.440002</ele>
<time>2024-05-01T21:00:09.811Z</time>
</trkpt>
<trkpt lat="32.2394100" lon="35.0318700">
<ele>227.600006</ele>
<time>2024-05-01T21:00:09.812Z</time>
</trkpt>
<trkpt lat="32.2393500" lon="35.0317300">
<ele>229.069992</ele>
<time>2024-05-01T21:00:09.812Z</time>
</trkpt>
<trkpt lat="32.2393200" lon="35.0315800">
<ele>229.649994</ele>
<time>2024-05-01T21:00:09.812Z</time>
</trkpt>
<trkpt lat="32.2392900" lon="35.0314300">
<ele>229.069992</ele>
<time>2024-05-01T21:00:09.812Z</time>
</trkpt>
<trkpt lat="32.2392500" lon="35.0312900">
<ele>228.849991</ele>
<time>2024-05-01T21:00:09.812Z</time>
</trkpt>
<trkpt lat="32.2392200" lon="35.0311400">
<ele>229.110001</ele>
<time>2024-05-01T21:00:09.812Z</time>
</trkpt>
<trkpt lat="32.2392000" lon="35.0310000">
<ele>229.069992</ele>
<time>2024-05-01T21:00:09.812Z</time>
</trkpt>
<trkpt lat="32.2391900" lon="35.0308600">
<ele>229.010010</ele>
<time>2024-05-01T21:00:09.812Z</time>
</trkpt>
<trkpt lat="32.2391900" lon="35.0307300">
<ele>228.970001</ele>
<time>2024-05-01T21:00:09.812Z</time>
</trkpt>
<trkpt lat="32.2391800" lon="35.0306000">
<ele>228.959991</ele>
<time>2024-05-01T21:00:09.812Z</time>
</trkpt>
<trkpt lat="32.2391800" lon="35.0304700">
<ele>228.410004</ele>
<time>2024-05-01T21:00:09.812Z</time>
</trkpt>
<trkpt lat="32.2391800" lon="35.0303400">
<ele>227.589996</ele>
<time>2024-05-01T21:00:09.812Z</time>
</trkpt>
<trkpt lat="32.2391800" lon="35.0302200">
<ele>227.190002</ele>
<time>2024-05-01T21:00:09.812Z</time>
</trkpt>
<trkpt lat="32.2391800" lon="35.0300900">
<ele>227.190002</ele>
<time>2024-05-01T21:00:09.812Z</time>
</trkpt>
<trkpt lat="32.2391800" lon="35.0299700">
<ele>227.190002</ele>
<time>2024-05-01T21:00:09.812Z</time>
</trkpt>
<trkpt lat="32.2391800" lon="35.0298400">
<ele>227.159988</ele>
<time>2024-05-01T21:00:09.812Z</time>
</trkpt>
<trkpt lat="32.2391800" lon="35.0297100">
<ele>227.139999</ele>
<time>2024-05-01T21:00:09.812Z</time>
</trkpt>
<trkpt lat="32.2391800" lon="35.0295900">
<ele>227.100006</ele>
<time>2024-05-01T21:00:09.812Z</time>
</trkpt>
<trkpt lat="32.2391800" lon="35.0294700">
<ele>227.059998</ele>
<time>2024-05-01T21:00:09.812Z</time>
</trkpt>
<trkpt lat="32.2391800" lon="35.0293600">
<ele>226.709991</ele>
<time>2024-05-01T21:00:09.812Z</time>
</trkpt>
<trkpt lat="32.2391800" lon="35.0292500">
<ele>226.279999</ele>
<time>2024-05-01T21:00:09.813Z</time>
</trkpt>
<trkpt lat="32.2391800" lon="35.0291300">
<ele>225.949997</ele>
<time>2024-05-01T21:00:09.813Z</time>
</trkpt>
<trkpt lat="32.2391900" lon="35.0290200">
<ele>225.919998</ele>
<time>2024-05-01T21:00:09.813Z</time>
</trkpt>
<trkpt lat="32.2392000" lon="35.0289200">
<ele>225.880005</ele>
<time>2024-05-01T21:00:09.813Z</time>
</trkpt>
<trkpt lat="32.2392200" lon="35.0288100">
<ele>226.380005</ele>
<time>2024-05-01T21:00:09.813Z</time>
</trkpt>
<trkpt lat="32.2392500" lon="35.0287000">
<ele>227.059998</ele>
<time>2024-05-01T21:00:09.813Z</time>
</trkpt>
<trkpt lat="32.2392800" lon="35.0285900">
<ele>227.669998</ele>
<time>2024-05-01T21:00:09.813Z</time>
</trkpt>
<trkpt lat="32.2393200" lon="35.0284800">
<ele>227.919998</ele>
<time>2024-05-01T21:00:09.813Z</time>
</trkpt>
<trkpt lat="32.2393500" lon="35.0283700">
<ele>228.209991</ele>
<time>2024-05-01T21:00:09.813Z</time>
</trkpt>
<trkpt lat="32.2393800" lon="35.0282600">
<ele>228.130005</ele>
<time>2024-05-01T21:00:09.813Z</time>
</trkpt>
<trkpt lat="32.2394200" lon="35.0281500">
<ele>228.399994</ele>
<time>2024-05-01T21:00:09.813Z</time>
</trkpt>
<trkpt lat="32.2394500" lon="35.0280400">
<ele>229.019989</ele>
<time>2024-05-01T21:00:09.813Z</time>
</trkpt>
<trkpt lat="32.2394700" lon="35.0279300">
<ele>229.270004</ele>
<time>2024-05-01T21:00:09.813Z</time>
</trkpt>
<trkpt lat="32.2395000" lon="35.0278200">
<ele>229.449997</ele>
<time>2024-05-01T21:00:09.813Z</time>
</trkpt>
<trkpt lat="32.2395300" lon="35.0277200">
<ele>228.789993</ele>
<time>2024-05-01T21:00:09.813Z</time>
</trkpt>
<trkpt lat="32.2395800" lon="35.0276300">
<ele>228.180008</ele>
<time>2024-05-01T21:00:09.813Z</time>
</trkpt>
<trkpt lat="32.2396700" lon="35.0275900">
<ele>228.839996</ele>
<time>2024-05-01T21:00:09.813Z</time>
</trkpt>
<trkpt lat="32.2397600" lon="35.0275700">
<ele>229.160004</ele>
<time>2024-05-01T21:00:09.813Z</time>
</trkpt>
<trkpt lat="32.2398400" lon="35.0275200">
<ele>228.650009</ele>
<time>2024-05-01T21:00:09.813Z</time>
</trkpt>
<trkpt lat="32.2399600" lon="35.0274900">
<ele>227.430008</ele>
<time>2024-05-01T21:00:09.814Z</time>
</trkpt>
<trkpt lat="32.2400900" lon="35.0274900">
<ele>226.989990</ele>
<time>2024-05-01T21:00:09.814Z</time>
</trkpt>
<trkpt lat="32.2401600" lon="35.0275300">
<ele>226.940002</ele>
<time>2024-05-01T21:00:09.814Z</time>
</trkpt>
<trkpt lat="32.2402200" lon="35.0276100">
<ele>226.690002</ele>
<time>2024-05-01T21:00:09.814Z</time>
</trkpt>
<trkpt lat="32.2402400" lon="35.0277200">
<ele>226.320007</ele>
<time>2024-05-01T21:00:09.814Z</time>
</trkpt>
<trkpt lat="32.2402400" lon="35.0278500">
<ele>225.880005</ele>
<time>2024-05-01T21:00:09.814Z</time>
</trkpt>
<trkpt lat="32.2402200" lon="35.0279700">
<ele>225.520004</ele>
<time>2024-05-01T21:00:09.814Z</time>
</trkpt>
<trkpt lat="32.2402000" lon="35.0280900">
<ele>225.160004</ele>
<time>2024-05-01T21:00:09.814Z</time>
</trkpt>
<trkpt lat="32.2401800" lon="35.0282200">
<ele>224.759995</ele>
<time>2024-05-01T21:00:09.814Z</time>
</trkpt>
<trkpt lat="32.2401600" lon="35.0283500">
<ele>224.329987</ele>
<time>2024-05-01T21:00:09.814Z</time>
</trkpt>
<trkpt lat="32.2401600" lon="35.0284900">
<ele>223.539993</ele>
<time>2024-05-01T21:00:09.814Z</time>
</trkpt>
<trkpt lat="32.2401500" lon="35.0286200">
<ele>222.839996</ele>
<time>2024-05-01T21:00:09.814Z</time>
</trkpt>
<trkpt lat="32.2401500" lon="35.0287500">
<ele>221.690002</ele>
<time>2024-05-01T21:00:09.814Z</time>
</trkpt>
<trkpt lat="32.2401700" lon="35.0288700">
<ele>220.550003</ele>
<time>2024-05-01T21:00:09.814Z</time>
</trkpt>
<trkpt lat="32.2402200" lon="35.0289900">
<ele>220.360001</ele>
<time>2024-05-01T21:00:09.814Z</time>
</trkpt>
<trkpt lat="32.2403100" lon="35.0290600">
<ele>219.709991</ele>
<time>2024-05-01T21:00:09.814Z</time>
</trkpt>
<trkpt lat="32.2404100" lon="35.0291000">
<ele>218.550003</ele>
<time>2024-05-01T21:00:09.814Z</time>
</trkpt>
<trkpt lat="32.2404400" lon="35.0292400">
<ele>217.729996</ele>
<time>2024-05-01T21:00:09.814Z</time>
</trkpt>
<trkpt lat="32.2405000" lon="35.0293500">
<ele>216.539993</ele>
<time>2024-05-01T21:00:09.814Z</time>
</trkpt>
<trkpt lat="32.2405700" lon="35.0294700">
<ele>214.789993</ele>
<time>2024-05-01T21:00:09.814Z</time>
</trkpt>
<trkpt lat="32.2406400" lon="35.0296200">
<ele>213.779999</ele>
<time>2024-05-01T21:00:09.814Z</time>
</trkpt>
<trkpt lat="32.2407000" lon="35.0297700">
<ele>213.260010</ele>
<time>2024-05-01T21:00:09.815Z</time>
</trkpt>
<trkpt lat="32.2407200" lon="35.0299200">
<ele>213.919998</ele>
<time>2024-05-01T21:00:09.815Z</time>
</trkpt>
<trkpt lat="32.2407500" lon="35.0300500">
<ele>213.929993</ele>
<time>2024-05-01T21:00:09.815Z</time>
</trkpt>
<trkpt lat="32.2408100" lon="35.0301800">
<ele>213.099991</ele>
<time>2024-05-01T21:00:09.815Z</time>
</trkpt>
<trkpt lat="32.2408700" lon="35.0302900">
<ele>212.550003</ele>
<time>2024-05-01T21:00:09.815Z</time>
</trkpt>
<trkpt lat="32.2409200" lon="35.0304100">
<ele>212.559998</ele>
<time>2024-05-01T21:00:09.815Z</time>
</trkpt>
<trkpt lat="32.2409400" lon="35.0305300">
<ele>212.929993</ele>
<time>2024-05-01T21:00:09.815Z</time>
</trkpt>
<trkpt lat="32.2409500" lon="35.0306600">
<ele>214.190002</ele>
<time>2024-05-01T21:00:09.815Z</time>
</trkpt>
<trkpt lat="32.2409600" lon="35.0307800">
<ele>215.510010</ele>
<time>2024-05-01T21:00:09.815Z</time>
</trkpt>
<trkpt lat="32.2409600" lon="35.0309100">
<ele>216.580002</ele>
<time>2024-05-01T21:00:09.815Z</time>
</trkpt>
<trkpt lat="32.2409600" lon="35.0310300">
<ele>217.209991</ele>
<time>2024-05-01T21:00:09.815Z</time>
</trkpt>
<trkpt lat="32.2409300" lon="35.0311400">
<ele>218.199997</ele>
<time>2024-05-01T21:00:09.815Z</time>
</trkpt>
<trkpt lat="32.2409300" lon="35.0312500">
<ele>219.149994</ele>
<time>2024-05-01T21:00:09.815Z</time>
</trkpt>
<trkpt lat="32.2409300" lon="35.0313700">
<ele>220.190002</ele>
<time>2024-05-01T21:00:09.815Z</time>
</trkpt>
<trkpt lat="32.2409500" lon="35.0314800">
<ele>220.009995</ele>
<time>2024-05-01T21:00:09.815Z</time>
</trkpt>
<trkpt lat="32.2410000" lon="35.0315900">
<ele>219.299988</ele>
<time>2024-05-01T21:00:09.815Z</time>
</trkpt>
<trkpt lat="32.2410600" lon="35.0316900">
<ele>218.059998</ele>
<time>2024-05-01T21:00:09.815Z</time>
</trkpt>
<trkpt lat="32.2411300" lon="35.0317600">
<ele>216.500000</ele>
<time>2024-05-01T21:00:09.815Z</time>
</trkpt>
<trkpt lat="32.2412300" lon="35.0317700">
<ele>215.500000</ele>
<time>2024-05-01T21:00:09.815Z</time>
</trkpt>
<trkpt lat="32.2413500" lon="35.0317800">
<ele>214.300003</ele>
<time>2024-05-01T21:00:09.815Z</time>
</trkpt>
<trkpt lat="32.2414100" lon="35.0317600">
<ele>214.650009</ele>
<time>2024-05-01T21:00:09.816Z</time>
</trkpt>
<trkpt lat="32.2414200" lon="35.0316600">
<ele>216.629990</ele>
<time>2024-05-01T21:00:09.816Z</time>
</trkpt>
<trkpt lat="32.2413900" lon="35.0315700">
<ele>217.399994</ele>
<time>2024-05-01T21:00:09.816Z</time>
</trkpt>
<trkpt lat="32.2413800" lon="35.0314500">
<ele>219.160004</ele>
<time>2024-05-01T21:00:09.816Z</time>
</trkpt>
<trkpt lat="32.2414200" lon="35.0314200">
<ele>219.220001</ele>
<time>2024-05-01T21:00:09.816Z</time>
</trkpt>
<trkpt lat="32.2414200" lon="35.0312600">
<ele>217.229996</ele>
<time>2024-05-01T21:00:09.816Z</time>
</trkpt>
<trkpt lat="32.2414400" lon="35.0311300">
<ele>214.600006</ele>
<time>2024-05-01T21:00:09.816Z</time>
</trkpt>
<trkpt lat="32.2414600" lon="35.0309900">
<ele>212.119995</ele>
<time>2024-05-01T21:00:09.816Z</time>
</trkpt>
<trkpt lat="32.2414800" lon="35.0308700">
<ele>209.929993</ele>
<time>2024-05-01T21:00:09.816Z</time>
</trkpt>
<trkpt lat="32.2415400" lon="35.0307600">
<ele>207.079987</ele>
<time>2024-05-01T21:00:09.816Z</time>
</trkpt>
<trkpt lat="32.2415800" lon="35.0306400">
<ele>204.299988</ele>
<time>2024-05-01T21:00:09.816Z</time>
</trkpt>
<trkpt lat="32.2416000" lon="35.0305300">
<ele>202.000000</ele>
<time>2024-05-01T21:00:09.816Z</time>
</trkpt>
<trkpt lat="32.2417400" lon="35.0304800">
<ele>199.509995</ele>
<time>2024-05-01T21:00:09.816Z</time>
</trkpt>
<trkpt lat="32.2418000" lon="35.0304000">
<ele>198.179993</ele>
<time>2024-05-01T21:00:09.816Z</time>
</trkpt>
<trkpt lat="32.2418200" lon="35.0302500">
<ele>196.099991</ele>
<time>2024-05-01T21:00:09.816Z</time>
</trkpt>
<trkpt lat="32.2418300" lon="35.0301100">
<ele>196.180008</ele>
<time>2024-05-01T21:00:09.816Z</time>
</trkpt>
<trkpt lat="32.2418400" lon="35.0300000">
<ele>196.250000</ele>
<time>2024-05-01T21:00:09.816Z</time>
</trkpt>
<trkpt lat="32.2418600" lon="35.0298600">
<ele>193.169998</ele>
<time>2024-05-01T21:00:09.816Z</time>
</trkpt>
<trkpt lat="32.2418800" lon="35.0297200">
<ele>189.990005</ele>
<time>2024-05-01T21:00:09.816Z</time>
</trkpt>
<trkpt lat="32.2419100" lon="35.0295700">
<ele>189.110001</ele>
<time>2024-05-01T21:00:09.816Z</time>
</trkpt>
<trkpt lat="32.2419400" lon="35.0294100">
<ele>188.529999</ele>
<time>2024-05-01T21:00:09.816Z</time>
</trkpt>
<trkpt lat="32.2419800" lon="35.0292500">
<ele>191.699997</ele>
<time>2024-05-01T21:00:09.817Z</time>
</trkpt>
<trkpt lat="32.2420200" lon="35.0291100">
<ele>192.159988</ele>
<time>2024-05-01T21:00:09.817Z</time>
</trkpt>
<trkpt lat="32.2420800" lon="35.0289700">
<ele>190.429993</ele>
<time>2024-05-01T21:00:09.817Z</time>
</trkpt>
<trkpt lat="32.2421500" lon="35.0289000">
<ele>189.699997</ele>
<time>2024-05-01T21:00:09.817Z</time>
</trkpt>
<trkpt lat="32.2422600" lon="35.0288200">
<ele>188.669998</ele>
<time>2024-05-01T21:00:09.817Z</time>
</trkpt>
<trkpt lat="32.2423600" lon="35.0287500">
<ele>187.989990</ele>
<time>2024-05-01T21:00:09.817Z</time>
</trkpt>
<trkpt lat="32.2424600" lon="35.0286700">
<ele>187.050003</ele>
<time>2024-05-01T21:00:09.817Z</time>
</trkpt>
<trkpt lat="32.2425500" lon="35.0285700">
<ele>185.360001</ele>
<time>2024-05-01T21:00:09.817Z</time>
</trkpt>
<trkpt lat="32.2426200" lon="35.0284800">
<ele>183.460007</ele>
<time>2024-05-01T21:00:09.817Z</time>
</trkpt>
<trkpt lat="32.2426900" lon="35.0283900">
<ele>181.070007</ele>
<time>2024-05-01T21:00:09.817Z</time>
</trkpt>
<trkpt lat="32.2427600" lon="35.0282800">
<ele>178.350006</ele>
<time>2024-05-01T21:00:09.817Z</time>
</trkpt>
<trkpt lat="32.2428400" lon="35.0281600">
<ele>178.830002</ele>
<time>2024-05-01T21:00:09.817Z</time>
</trkpt>
<trkpt lat="32.2428900" lon="35.0280000">
<ele>178.470001</ele>
<time>2024-05-01T21:00:09.817Z</time>
</trkpt>
<trkpt lat="32.2429700" lon="35.0278500">
<ele>178.339996</ele>
<time>2024-05-01T21:00:09.817Z</time>
</trkpt>
<trkpt lat="32.2430600" lon="35.0277400">
<ele>177.380005</ele>
<time>2024-05-01T21:00:09.817Z</time>
</trkpt>
<trkpt lat="32.2431100" lon="35.0276200">
<ele>177.169998</ele>
<time>2024-05-01T21:00:09.817Z</time>
</trkpt>
<trkpt lat="32.2431500" lon="35.0274800">
<ele>176.589996</ele>
<time>2024-05-01T21:00:09.817Z</time>
</trkpt>
<trkpt lat="32.2432200" lon="35.0273300">
<ele>177.750000</ele>
<time>2024-05-01T21:00:09.817Z</time>
</trkpt>
<trkpt lat="32.2432900" lon="35.0271800">
<ele>176.579987</ele>
<time>2024-05-01T21:00:09.817Z</time>
</trkpt>
<trkpt lat="32.2433500" lon="35.0270300">
<ele>172.639999</ele>
<time>2024-05-01T21:00:09.817Z</time>
</trkpt>
<trkpt lat="32.2434200" lon="35.0269000">
<ele>171.880005</ele>
<time>2024-05-01T21:00:09.817Z</time>
</trkpt>
<trkpt lat="32.2434600" lon="35.0267600">
<ele>171.800003</ele>
<time>2024-05-01T21:00:09.817Z</time>
</trkpt>
<trkpt lat="32.2435200" lon="35.0266300">
<ele>171.209991</ele>
<time>2024-05-01T21:00:09.818Z</time>
</trkpt>
<trkpt lat="32.2436000" lon="35.0265200">
<ele>171.860001</ele>
<time>2024-05-01T21:00:09.818Z</time>
</trkpt>
<trkpt lat="32.2436700" lon="35.0264300">
<ele>173.610001</ele>
<time>2024-05-01T21:00:09.818Z</time>
</trkpt>
<trkpt lat="32.2437200" lon="35.0263200">
<ele>174.600006</ele>
<time>2024-05-01T21:00:09.818Z</time>
</trkpt>
<trkpt lat="32.2437800" lon="35.0262200">
<ele>175.389999</ele>
<time>2024-05-01T21:00:09.818Z</time>
</trkpt>
<trkpt lat="32.2438300" lon="35.0261200">
<ele>175.429993</ele>
<time>2024-05-01T21:00:09.818Z</time>
</trkpt>
<trkpt lat="32.2438900" lon="35.0260200">
<ele>174.399994</ele>
<time>2024-05-01T21:00:09.818Z</time>
</trkpt>
<trkpt lat="32.2439600" lon="35.0259300">
<ele>175.209991</ele>
<time>2024-05-01T21:00:09.818Z</time>
</trkpt>
<trkpt lat="32.2440300" lon="35.0258600">
<ele>176.510010</ele>
<time>2024-05-01T21:00:09.818Z</time>
</trkpt>
<trkpt lat="32.2440900" lon="35.0257600">
<ele>176.460007</ele>
<time>2024-05-01T21:00:09.818Z</time>
</trkpt>
<trkpt lat="32.2441400" lon="35.0256600">
<ele>175.729996</ele>
<time>2024-05-01T21:00:09.818Z</time>
</trkpt>
<trkpt lat="32.2442300" lon="35.0255500">
<ele>177.049988</ele>
<time>2024-05-01T21:00:09.818Z</time>
</trkpt>
<trkpt lat="32.2442700" lon="35.0254000">
<ele>175.079987</ele>
<time>2024-05-01T21:00:09.818Z</time>
</trkpt>
<trkpt lat="32.2442900" lon="35.0252800">
<ele>172.830002</ele>
<time>2024-05-01T21:00:09.818Z</time>
</trkpt>
<trkpt lat="32.2443400" lon="35.0251700">
<ele>174.139999</ele>
<time>2024-05-01T21:00:09.818Z</time>
</trkpt>
<trkpt lat="32.2443800" lon="35.0250300">
<ele>174.240005</ele>
<time>2024-05-01T21:00:09.818Z</time>
</trkpt>
<trkpt lat="32.2444000" lon="35.0249000">
<ele>175.829987</ele>
<time>2024-05-01T21:00:09.818Z</time>
</trkpt>
<trkpt lat="32.2444300" lon="35.0247900">
<ele>178.439987</ele>
<time>2024-05-01T21:00:09.818Z</time>
</trkpt>
<trkpt lat="32.2444700" lon="35.0246600">
<ele>180.709991</ele>
<time>2024-05-01T21:00:09.819Z</time>
</trkpt>
<trkpt lat="32.2444700" lon="35.0245100">
<ele>180.419998</ele>
<time>2024-05-01T21:00:09.819Z</time>
</trkpt>
<trkpt lat="32.2444700" lon="35.0244000">
<ele>180.740005</ele>
<time>2024-05-01T21:00:09.819Z</time>
</trkpt>
<trkpt lat="32.2444700" lon="35.0242800">
<ele>181.960007</ele>
<time>2024-05-01T21:00:09.819Z</time>
</trkpt>
<trkpt lat="32.2444600" lon="35.0241500">
<ele>182.729996</ele>
<time>2024-05-01T21:00:09.819Z</time>
</trkpt>
<trkpt lat="32.2444500" lon="35.0240400">
<ele>182.679993</ele>
<time>2024-05-01T21:00:09.819Z</time>
</trkpt>
<trkpt lat="32.2444300" lon="35.0239300">
<ele>182.120010</ele>
<time>2024-05-01T21:00:09.819Z</time>
</trkpt>
<trkpt lat="32.2444100" lon="35.0238100">
<ele>180.839996</ele>
<time>2024-05-01T21:00:09.819Z</time>
</trkpt>
<trkpt lat="32.2444000" lon="35.0236800">
<ele>179.740005</ele>
<time>2024-05-01T21:00:09.819Z</time>
</trkpt>
<trkpt lat="32.2443900" lon="35.0235700">
<ele>178.979996</ele>
<time>2024-05-01T21:00:09.819Z</time>
</trkpt>
<trkpt lat="32.2443900" lon="35.0234500">
<ele>178.809998</ele>
<time>2024-05-01T21:00:09.819Z</time>
</trkpt>
<trkpt lat="32.2443800" lon="35.0233300">
<ele>178.139984</ele>
<time>2024-05-01T21:00:09.819Z</time>
</trkpt>
<trkpt lat="32.2443900" lon="35.0232200">
<ele>176.029999</ele>
<time>2024-05-01T21:00:09.819Z</time>
</trkpt>
<trkpt lat="32.2443900" lon="35.0231200">
<ele>173.720001</ele>
<time>2024-05-01T21:00:09.819Z</time>
</trkpt>
<trkpt lat="32.2444100" lon="35.0230100">
<ele>172.189987</ele>
<time>2024-05-01T21:00:09.819Z</time>
</trkpt>
<trkpt lat="32.2444400" lon="35.0229100">
<ele>171.739990</ele>
<time>2024-05-01T21:00:09.819Z</time>
</trkpt>
<trkpt lat="32.2444700" lon="35.0227900">
<ele>170.900009</ele>
<time>2024-05-01T21:00:09.819Z</time>
</trkpt>
<trkpt lat="32.2445000" lon="35.0226800">
<ele>169.210007</ele>
<time>2024-05-01T21:00:09.819Z</time>
</trkpt>
<trkpt lat="32.2445600" lon="35.0225700">
<ele>168.399994</ele>
<time>2024-05-01T21:00:09.819Z</time>
</trkpt>
<trkpt lat="32.2446200" lon="35.0224700">
<ele>167.900009</ele>
<time>2024-05-01T21:00:09.819Z</time>
</trkpt>
<trkpt lat="32.2446800" lon="35.0223700">
<ele>167.029984</ele>
<time>2024-05-01T21:00:09.819Z</time>
</trkpt>
<trkpt lat="32.2447500" lon="35.0222700">
<ele>165.959991</ele>
<time>2024-05-01T21:00:09.819Z</time>
</trkpt>
<trkpt lat="32.2448300" lon="35.0221700">
<ele>165.270004</ele>
<time>2024-05-01T21:00:09.819Z</time>
</trkpt>
<trkpt lat="32.2449100" lon="35.0220800">
<ele>165.330002</ele>
<time>2024-05-01T21:00:09.819Z</time>
</trkpt>
<trkpt lat="32.2449700" lon="35.0219700">
<ele>164.710007</ele>
<time>2024-05-01T21:00:09.820Z</time>
</trkpt>
<trkpt lat="32.2450400" lon="35.0218600">
<ele>165.139999</ele>
<time>2024-05-01T21:00:09.820Z</time>
</trkpt>
<trkpt lat="32.2450900" lon="35.0217300">
<ele>165.199997</ele>
<time>2024-05-01T21:00:09.820Z</time>
</trkpt>
<trkpt lat="32.2451500" lon="35.0215800">
<ele>165.550003</ele>
<time>2024-05-01T21:00:09.820Z</time>
</trkpt>
<trkpt lat="32.2452300" lon="35.0214500">
<ele>166.929993</ele>
<time>2024-05-01T21:00:09.820Z</time>
</trkpt>
<trkpt lat="32.2452700" lon="35.0213300">
<ele>167.739990</ele>
<time>2024-05-01T21:00:09.820Z</time>
</trkpt>
<trkpt lat="32.2452900" lon="35.0211900">
<ele>168.399994</ele>
<time>2024-05-01T21:00:09.820Z</time>
</trkpt>
<trkpt lat="32.2453000" lon="35.0210300">
<ele>168.789993</ele>
<time>2024-05-01T21:00:09.820Z</time>
</trkpt>
<trkpt lat="32.2453100" lon="35.0208800">
<ele>169.330002</ele>
<time>2024-05-01T21:00:09.820Z</time>
</trkpt>
<trkpt lat="32.2453200" lon="35.0207500">
<ele>170.380005</ele>
<time>2024-05-01T21:00:09.820Z</time>
</trkpt>
<trkpt lat="32.2453200" lon="35.0206300">
<ele>171.180008</ele>
<time>2024-05-01T21:00:09.820Z</time>
</trkpt>
<trkpt lat="32.2453000" lon="35.0205000">
<ele>171.130005</ele>
<time>2024-05-01T21:00:09.820Z</time>
</trkpt>
<trkpt lat="32.2452500" lon="35.0203600">
<ele>169.740005</ele>
<time>2024-05-01T21:00:09.820Z</time>
</trkpt>
<trkpt lat="32.2451900" lon="35.0202100">
<ele>169.220001</ele>
<time>2024-05-01T21:00:09.820Z</time>
</trkpt>
<trkpt lat="32.2451400" lon="35.0200600">
<ele>169.680008</ele>
<time>2024-05-01T21:00:09.820Z</time>
</trkpt>
<trkpt lat="32.2451000" lon="35.0199100">
<ele>170.699997</ele>
<time>2024-05-01T21:00:09.820Z</time>
</trkpt>
<trkpt lat="32.2450300" lon="35.0197900">
<ele>170.049988</ele>
<time>2024-05-01T21:00:09.820Z</time>
</trkpt>
<trkpt lat="32.2449900" lon="35.0196800">
<ele>170.759995</ele>
<time>2024-05-01T21:00:09.820Z</time>
</trkpt>
<trkpt lat="32.2449300" lon="35.0195800">
<ele>171.809998</ele>
<time>2024-05-01T21:00:09.820Z</time>
</trkpt>
<trkpt lat="32.2449100" lon="35.0194600">
<ele>173.759995</ele>
<time>2024-05-01T21:00:09.820Z</time>
</trkpt>
<trkpt lat="32.2448100" lon="35.0193600">
<ele>174.459991</ele>
<time>2024-05-01T21:00:09.821Z</time>
</trkpt>
<trkpt lat="32.2447300" lon="35.0192800">
<ele>176.009995</ele>
<time>2024-05-01T21:00:09.821Z</time>
</trkpt>
<trkpt lat="32.2446400" lon="35.0192000">
<ele>177.080002</ele>
<time>2024-05-01T21:00:09.821Z</time>
</trkpt>
<trkpt lat="32.2445500" lon="35.0191300">
<ele>176.740005</ele>
<time>2024-05-01T21:00:09.821Z</time>
</trkpt>
<trkpt lat="32.2444600" lon="35.0190500">
<ele>178.200012</ele>
<time>2024-05-01T21:00:09.821Z</time>
</trkpt>
<trkpt lat="32.2443800" lon="35.0189700">
<ele>180.639999</ele>
<time>2024-05-01T21:00:09.821Z</time>
</trkpt>
<trkpt lat="32.2442900" lon="35.0189100">
<ele>181.909988</ele>
<time>2024-05-01T21:00:09.821Z</time>
</trkpt>
<trkpt lat="32.2442000" lon="35.0188500">
<ele>181.710007</ele>
<time>2024-05-01T21:00:09.821Z</time>
</trkpt>
<trkpt lat="32.2441100" lon="35.0187900">
<ele>179.500000</ele>
<time>2024-05-01T21:00:09.821Z</time>
</trkpt>
<trkpt lat="32.2440300" lon="35.0187400">
<ele>177.260010</ele>
<time>2024-05-01T21:00:09.821Z</time>
</trkpt>
<trkpt lat="32.2439500" lon="35.0187000">
<ele>175.399994</ele>
<time>2024-05-01T21:00:09.821Z</time>
</trkpt>
<trkpt lat="32.2438600" lon="35.0187000">
<ele>172.029999</ele>
<time>2024-05-01T21:00:09.821Z</time>
</trkpt>
<trkpt lat="32.2437600" lon="35.0187000">
<ele>167.130005</ele>
<time>2024-05-01T21:00:09.821Z</time>
</trkpt>
<trkpt lat="32.2436400" lon="35.0186900">
<ele>161.700012</ele>
<time>2024-05-01T21:00:09.821Z</time>
</trkpt>
<trkpt lat="32.2435400" lon="35.0187000">
<ele>157.509995</ele>
<time>2024-05-01T21:00:09.821Z</time>
</trkpt>
<trkpt lat="32.2434100" lon="35.0187100">
<ele>153.000000</ele>
<time>2024-05-01T21:00:09.821Z</time>
</trkpt>
<trkpt lat="32.2432900" lon="35.0187000">
<ele>150.360001</ele>
<time>2024-05-01T21:00:09.821Z</time>
</trkpt>
<trkpt lat="32.2431800" lon="35.0186900">
<ele>149.679993</ele>
<time>2024-05-01T21:00:09.821Z</time>
</trkpt>
<trkpt lat="32.2430700" lon="35.0186600">
<ele>149.679993</ele>
<time>2024-05-01T21:00:09.821Z</time>
</trkpt>
<trkpt lat="32.2429500" lon="35.0186400">
<ele>150.169998</ele>
<time>2024-05-01T21:00:09.821Z</time>
</trkpt>
<trkpt lat="32.2428500" lon="35.0186000">
<ele>151.550003</ele>
<time>2024-05-01T21:00:09.821Z</time>
</trkpt>
<trkpt lat="32.2427300" lon="35.0185400">
<ele>154.750000</ele>
<time>2024-05-01T21:00:09.821Z</time>
</trkpt>
<trkpt lat="32.2426300" lon="35.0184700">
<ele>158.089996</ele>
<time>2024-05-01T21:00:09.821Z</time>
</trkpt>
<trkpt lat="32.2425400" lon="35.0183900">
<ele>161.130005</ele>
<time>2024-05-01T21:00:09.821Z</time>
</trkpt>
<trkpt lat="32.2424600" lon="35.0182700">
<ele>163.819992</ele>
<time>2024-05-01T21:00:09.821Z</time>
</trkpt>
<trkpt lat="32.2424000" lon="35.0181400">
<ele>164.930008</ele>
<time>2024-05-01T21:00:09.822Z</time>
</trkpt>
<trkpt lat="32.2423800" lon="35.0180000">
<ele>166.020004</ele>
<time>2024-05-01T21:00:09.822Z</time>
</trkpt>
<trkpt lat="32.2423700" lon="35.0178900">
<ele>166.270004</ele>
<time>2024-05-01T21:00:09.822Z</time>
</trkpt>
<trkpt lat="32.2423600" lon="35.0177500">
<ele>166.550003</ele>
<time>2024-05-01T21:00:09.822Z</time>
</trkpt>
<trkpt lat="32.2423500" lon="35.0176400">
<ele>166.440002</ele>
<time>2024-05-01T21:00:09.822Z</time>
</trkpt>
<trkpt lat="32.2423500" lon="35.0175300">
<ele>166.800003</ele>
<time>2024-05-01T21:00:09.822Z</time>
</trkpt>
<trkpt lat="32.2423500" lon="35.0174000">
<ele>167.320007</ele>
<time>2024-05-01T21:00:09.822Z</time>
</trkpt>
<trkpt lat="32.2423500" lon="35.0172900">
<ele>167.779999</ele>
<time>2024-05-01T21:00:09.822Z</time>
</trkpt>
<trkpt lat="32.2423300" lon="35.0171800">
<ele>167.150009</ele>
<time>2024-05-01T21:00:09.822Z</time>
</trkpt>
<trkpt lat="32.2423200" lon="35.0170500">
<ele>166.440002</ele>
<time>2024-05-01T21:00:09.822Z</time>
</trkpt>
<trkpt lat="32.2423000" lon="35.0169200">
<ele>165.610001</ele>
<time>2024-05-01T21:00:09.822Z</time>
</trkpt>
<trkpt lat="32.2422200" lon="35.0168500">
<ele>163.279999</ele>
<time>2024-05-01T21:00:09.822Z</time>
</trkpt>
<trkpt lat="32.2421400" lon="35.0167500">
<ele>161.330002</ele>
<time>2024-05-01T21:00:09.822Z</time>
</trkpt>
<trkpt lat="32.2420900" lon="35.0166600">
<ele>160.229996</ele>
<time>2024-05-01T21:00:09.822Z</time>
</trkpt>
<trkpt lat="32.2419900" lon="35.0166100">
<ele>157.690002</ele>
<time>2024-05-01T21:00:09.822Z</time>
</trkpt>
<trkpt lat="32.2419100" lon="35.0165300">
<ele>157.039993</ele>
<time>2024-05-01T21:00:09.822Z</time>
</trkpt>
<trkpt lat="32.2418200" lon="35.0164700">
<ele>158.110001</ele>
<time>2024-05-01T21:00:09.822Z</time>
</trkpt>
<trkpt lat="32.2417300" lon="35.0164200">
<ele>159.660004</ele>
<time>2024-05-01T21:00:09.822Z</time>
</trkpt>
<trkpt lat="32.2416300" lon="35.0164000">
<ele>161.899994</ele>
<time>2024-05-01T21:00:09.822Z</time>
</trkpt>
<trkpt lat="32.2415300" lon="35.0164000">
<ele>165.110001</ele>
<time>2024-05-01T21:00:09.822Z</time>
</trkpt>
<trkpt lat="32.2414200" lon="35.0164300">
<ele>167.690002</ele>
<time>2024-05-01T21:00:09.822Z</time>
</trkpt>
<trkpt lat="32.2413400" lon="35.0165100">
<ele>166.859985</ele>
<time>2024-05-01T21:00:09.822Z</time>
</trkpt>
<trkpt lat="32.2412500" lon="35.0165300">
<ele>167.679993</ele>
<time>2024-05-01T21:00:09.822Z</time>
</trkpt>
<trkpt lat="32.2411500" lon="35.0165900">
<ele>167.550003</ele>
<time>2024-05-01T21:00:09.822Z</time>
</trkpt>
<trkpt lat="32.2410700" lon="35.0166400">
<ele>168.039993</ele>
<time>2024-05-01T21:00:09.823Z</time>
</trkpt>
<trkpt lat="32.2409900" lon="35.0167500">
<ele>168.050003</ele>
<time>2024-05-01T21:00:09.823Z</time>
</trkpt>
<trkpt lat="32.2409100" lon="35.0168500">
<ele>169.149994</ele>
<time>2024-05-01T21:00:09.823Z</time>
</trkpt>
<trkpt lat="32.2408600" lon="35.0169600">
<ele>169.589996</ele>
<time>2024-05-01T21:00:09.823Z</time>
</trkpt>
<trkpt lat="32.2408100" lon="35.0170700">
<ele>170.289993</ele>
<time>2024-05-01T21:00:09.823Z</time>
</trkpt>
<trkpt lat="32.2407600" lon="35.0171700">
<ele>170.300003</ele>
<time>2024-05-01T21:00:09.823Z</time>
</trkpt>
<trkpt lat="32.2407000" lon="35.0172700">
<ele>169.599991</ele>
<time>2024-05-01T21:00:09.823Z</time>
</trkpt>
<trkpt lat="32.2406600" lon="35.0173600">
<ele>167.840012</ele>
<time>2024-05-01T21:00:09.823Z</time>
</trkpt>
<trkpt lat="32.2406200" lon="35.0174800">
<ele>164.899994</ele>
<time>2024-05-01T21:00:09.823Z</time>
</trkpt>
<trkpt lat="32.2405600" lon="35.0175800">
<ele>162.369995</ele>
<time>2024-05-01T21:00:09.823Z</time>
</trkpt>
<trkpt lat="32.2405000" lon="35.0177300">
<ele>158.510010</ele>
<time>2024-05-01T21:00:09.823Z</time>
</trkpt>
<trkpt lat="32.2404300" lon="35.0178400">
<ele>157.140015</ele>
<time>2024-05-01T21:00:09.823Z</time>
</trkpt>
<trkpt lat="32.2403500" lon="35.0179100">
<ele>157.319992</ele>
<time>2024-05-01T21:00:09.823Z</time>
</trkpt>
<trkpt lat="32.2402600" lon="35.0180100">
<ele>157.399994</ele>
<time>2024-05-01T21:00:09.823Z</time>
</trkpt>
<trkpt lat="32.2401700" lon="35.0180700">
<ele>159.040009</ele>
<time>2024-05-01T21:00:09.823Z</time>
</trkpt>
<trkpt lat="32.2400700" lon="35.0181100">
<ele>160.529999</ele>
<time>2024-05-01T21:00:09.823Z</time>
</trkpt>
<trkpt lat="32.2399800" lon="35.0181300">
<ele>162.009995</ele>
<time>2024-05-01T21:00:09.823Z</time>
</trkpt>
<trkpt lat="32.2398700" lon="35.0181300">
<ele>164.729996</ele>
<time>2024-05-01T21:00:09.823Z</time>
</trkpt>
<trkpt lat="32.2397600" lon="35.0181300">
<ele>167.459991</ele>
<time>2024-05-01T21:00:09.823Z</time>
</trkpt>
<trkpt lat="32.2396400" lon="35.0181300">
<ele>169.690002</ele>
<time>2024-05-01T21:00:09.824Z</time>
</trkpt>
<trkpt lat="32.2395500" lon="35.0181200">
<ele>171.460007</ele>
<time>2024-05-01T21:00:09.824Z</time>
</trkpt>
<trkpt lat="32.2394400" lon="35.0181100">
<ele>173.680008</ele>
<time>2024-05-01T21:00:09.824Z</time>
</trkpt>
<trkpt lat="32.2393200" lon="35.0180900">
<ele>175.520004</ele>
<time>2024-05-01T21:00:09.824Z</time>
</trkpt>
<trkpt lat="32.2392100" lon="35.0180700">
<ele>177.639999</ele>
<time>2024-05-01T21:00:09.824Z</time>
</trkpt>
<trkpt lat="32.2391100" lon="35.0180300">
<ele>179.959991</ele>
<time>2024-05-01T21:00:09.824Z</time>
</trkpt>
<trkpt lat="32.2390100" lon="35.0179900">
<ele>181.199997</ele>
<time>2024-05-01T21:00:09.824Z</time>
</trkpt>
<trkpt lat="32.2389200" lon="35.0179500">
<ele>182.169998</ele>
<time>2024-05-01T21:00:09.824Z</time>
</trkpt>
<trkpt lat="32.2388300" lon="35.0179000">
<ele>183.930008</ele>
<time>2024-05-01T21:00:09.824Z</time>
</trkpt>
<trkpt lat="32.2387300" lon="35.0178200">
<ele>187.330002</ele>
<time>2024-05-01T21:00:09.824Z</time>
</trkpt>
<trkpt lat="32.2386500" lon="35.0177600">
<ele>189.809998</ele>
<time>2024-05-01T21:00:09.824Z</time>
</trkpt>
<trkpt lat="32.2385700" lon="35.0177000">
<ele>190.720001</ele>
<time>2024-05-01T21:00:09.824Z</time>
</trkpt>
<trkpt lat="32.2384800" lon="35.0176300">
<ele>190.839996</ele>
<time>2024-05-01T21:00:09.824Z</time>
</trkpt>
<trkpt lat="32.2383700" lon="35.0175600">
<ele>190.309998</ele>
<time>2024-05-01T21:00:09.824Z</time>
</trkpt>
<trkpt lat="32.2382900" lon="35.0174600">
<ele>188.560013</ele>
<time>2024-05-01T21:00:09.824Z</time>
</trkpt>
<trkpt lat="32.2382300" lon="35.0173700">
<ele>186.050003</ele>
<time>2024-05-01T21:00:09.824Z</time>
</trkpt>
<trkpt lat="32.2382000" lon="35.0172500">
<ele>183.539993</ele>
<time>2024-05-01T21:00:09.824Z</time>
</trkpt>
<trkpt lat="32.2382000" lon="35.0171100">
<ele>181.250000</ele>
<time>2024-05-01T21:00:09.824Z</time>
</trkpt>
<trkpt lat="32.2382000" lon="35.0169600">
<ele>178.849991</ele>
<time>2024-05-01T21:00:09.824Z</time>
</trkpt>
<trkpt lat="32.2382000" lon="35.0168200">
<ele>175.729996</ele>
<time>2024-05-01T21:00:09.824Z</time>
</trkpt>
<trkpt lat="32.2382200" lon="35.0166900">
<ele>173.429993</ele>
<time>2024-05-01T21:00:09.824Z</time>
</trkpt>
<trkpt lat="32.2382600" lon="35.0165700">
<ele>172.250000</ele>
<time>2024-05-01T21:00:09.825Z</time>
</trkpt>
<trkpt lat="32.2382800" lon="35.0164300">
<ele>170.169998</ele>
<time>2024-05-01T21:00:09.825Z</time>
</trkpt>
<trkpt lat="32.2383000" lon="35.0162800">
<ele>167.970001</ele>
<time>2024-05-01T21:00:09.825Z</time>
</trkpt>
<trkpt lat="32.2383200" lon="35.0161400">
<ele>165.949997</ele>
<time>2024-05-01T21:00:09.825Z</time>
</trkpt>
<trkpt lat="32.2383600" lon="35.0160000">
<ele>164.780014</ele>
<time>2024-05-01T21:00:09.825Z</time>
</trkpt>
<trkpt lat="32.2383900" lon="35.0158500">
<ele>163.059998</ele>
<time>2024-05-01T21:00:09.825Z</time>
</trkpt>
<trkpt lat="32.2384600" lon="35.0157100">
<ele>164.509995</ele>
<time>2024-05-01T21:00:09.825Z</time>
</trkpt>
<trkpt lat="32.2384900" lon="35.0155700">
<ele>165.619995</ele>
<time>2024-05-01T21:00:09.825Z</time>
</trkpt>
<trkpt lat="32.2385000" lon="35.0154300">
<ele>167.609985</ele>
<time>2024-05-01T21:00:09.825Z</time>
</trkpt>
<trkpt lat="32.2385200" lon="35.0153000">
<ele>169.699997</ele>
<time>2024-05-01T21:00:09.825Z</time>
</trkpt>
<trkpt lat="32.2385200" lon="35.0151800">
<ele>171.310013</ele>
<time>2024-05-01T21:00:09.825Z</time>
</trkpt>
<trkpt lat="32.2385300" lon="35.0151100">
<ele>172.359985</ele>
<time>2024-05-01T21:00:09.825Z</time>
</trkpt>
<trkpt lat="32.2385900" lon="35.0151400">
<ele>172.720001</ele>
<time>2024-05-01T21:00:09.825Z</time>
</trkpt>
<trkpt lat="32.2386300" lon="35.0151800">
<ele>172.879990</ele>
<time>2024-05-01T21:00:09.825Z</time>
</trkpt>
<trkpt lat="32.2386500" lon="35.0151100">
<ele>174.399994</ele>
<time>2024-05-01T21:00:09.825Z</time>
</trkpt>
<trkpt lat="32.2386500" lon="35.0150200">
<ele>175.690002</ele>
<time>2024-05-01T21:00:09.825Z</time>
</trkpt>
<trkpt lat="32.2386400" lon="35.0149100">
<ele>176.050003</ele>
<time>2024-05-01T21:00:09.825Z</time>
</trkpt>
<trkpt lat="32.2386200" lon="35.0147700">
<ele>176.050003</ele>
<time>2024-05-01T21:00:09.825Z</time>
</trkpt>
<trkpt lat="32.2386000" lon="35.0146500">
<ele>175.789993</ele>
<time>2024-05-01T21:00:09.825Z</time>
</trkpt>
<trkpt lat="32.2385800" lon="35.0145600">
<ele>175.369995</ele>
<time>2024-05-01T21:00:09.825Z</time>
</trkpt>
<trkpt lat="32.2385800" lon="35.0144500">
<ele>175.330002</ele>
<time>2024-05-01T21:00:09.825Z</time>
</trkpt>
<trkpt lat="32.2385800" lon="35.0143400">
<ele>175.540009</ele>
<time>2024-05-01T21:00:09.826Z</time>
</trkpt>
<trkpt lat="32.2385800" lon="35.0141900">
<ele>175.829987</ele>
<time>2024-05-01T21:00:09.826Z</time>
</trkpt>
<trkpt lat="32.2385800" lon="35.0140900">
<ele>175.570007</ele>
<time>2024-05-01T21:00:09.826Z</time>
</trkpt>
<trkpt lat="32.2385800" lon="35.0139500">
<ele>175.010010</ele>
<time>2024-05-01T21:00:09.826Z</time>
</trkpt>
<trkpt lat="32.2385900" lon="35.0138300">
<ele>174.560013</ele>
<time>2024-05-01T21:00:09.826Z</time>
</trkpt>
<trkpt lat="32.2386000" lon="35.0137000">
<ele>173.570007</ele>
<time>2024-05-01T21:00:09.826Z</time>
</trkpt>
<trkpt lat="32.2386000" lon="35.0135500">
<ele>171.780014</ele>
<time>2024-05-01T21:00:09.826Z</time>
</trkpt>
<trkpt lat="32.2386100" lon="35.0134400">
<ele>170.500000</ele>
<time>2024-05-01T21:00:09.826Z</time>
</trkpt>
<trkpt lat="32.2386400" lon="35.0133300">
<ele>169.680008</ele>
<time>2024-05-01T21:00:09.826Z</time>
</trkpt>
<trkpt lat="32.2386400" lon="35.0131900">
<ele>167.770004</ele>
<time>2024-05-01T21:00:09.826Z</time>
</trkpt>
<trkpt lat="32.2386600" lon="35.0130700">
<ele>166.770004</ele>
<time>2024-05-01T21:00:09.826Z</time>
</trkpt>
<trkpt lat="32.2386800" lon="35.0129500">
<ele>165.330002</ele>
<time>2024-05-01T21:00:09.826Z</time>
</trkpt>
<trkpt lat="32.2387300" lon="35.0128200">
<ele>164.610001</ele>
<time>2024-05-01T21:00:09.826Z</time>
</trkpt>
<trkpt lat="32.2387700" lon="35.0127200">
<ele>164.290009</ele>
<time>2024-05-01T21:00:09.826Z</time>
</trkpt>
<trkpt lat="32.2388000" lon="35.0126000">
<ele>163.329987</ele>
<time>2024-05-01T21:00:09.826Z</time>
</trkpt>
<trkpt lat="32.2388600" lon="35.0124700">
<ele>162.550003</ele>
<time>2024-05-01T21:00:09.826Z</time>
</trkpt>
<trkpt lat="32.2389300" lon="35.0123900">
<ele>161.880005</ele>
<time>2024-05-01T21:00:09.826Z</time>
</trkpt>
<trkpt lat="32.2390100" lon="35.0123100">
<ele>161.250015</ele>
<time>2024-05-01T21:00:09.826Z</time>
</trkpt>
<trkpt lat="32.2391100" lon="35.0122200">
<ele>160.919998</ele>
<time>2024-05-01T21:00:09.826Z</time>
</trkpt>
<trkpt lat="32.2391900" lon="35.0121500">
<ele>160.750000</ele>
<time>2024-05-01T21:00:09.826Z</time>
</trkpt>
<trkpt lat="32.2392200" lon="35.0120000">
<ele>158.009995</ele>
<time>2024-05-01T21:00:09.826Z</time>
</trkpt>
<trkpt lat="32.2392600" lon="35.0118500">
<ele>156.099991</ele>
<time>2024-05-01T21:00:09.826Z</time>
</trkpt>
<trkpt lat="32.2393600" lon="35.0117900">
<ele>158.309998</ele>
<time>2024-05-01T21:00:09.827Z</time>
</trkpt>
<trkpt lat="32.2394500" lon="35.0117700">
<ele>161.079987</ele>
<time>2024-05-01T21:00:09.827Z</time>
</trkpt>
<trkpt lat="32.2395500" lon="35.0117100">
<ele>164.160004</ele>
<time>2024-05-01T21:00:09.827Z</time>
</trkpt>
<trkpt lat="32.2395800" lon="35.0116000">
<ele>164.010010</ele>
<time>2024-05-01T21:00:09.827Z</time>
</trkpt>
<trkpt lat="32.2396200" lon="35.0114900">
<ele>164.440002</ele>
<time>2024-05-01T21:00:09.827Z</time>
</trkpt>
<trkpt lat="32.2395700" lon="35.0114400">
<ele>161.529999</ele>
<time>2024-05-01T21:00:09.827Z</time>
</trkpt>
<trkpt lat="32.2395200" lon="35.0114500">
<ele>159.360001</ele>
<time>2024-05-01T21:00:09.827Z</time>
</trkpt>
<trkpt lat="32.2395100" lon="35.0113800">
<ele>158.009995</ele>
<time>2024-05-01T21:00:09.827Z</time>
</trkpt>
<trkpt lat="32.2395500" lon="35.0112900">
<ele>159.179993</ele>
<time>2024-05-01T21:00:09.827Z</time>
</trkpt>
<trkpt lat="32.2395900" lon="35.0112400">
<ele>160.430008</ele>
<time>2024-05-01T21:00:09.827Z</time>
</trkpt>
<trkpt lat="32.2395900" lon="35.0111000">
<ele>159.219986</ele>
<time>2024-05-01T21:00:09.827Z</time>
</trkpt>
<trkpt lat="32.2395900" lon="35.0109700">
<ele>158.970001</ele>
<time>2024-05-01T21:00:09.827Z</time>
</trkpt>
<trkpt lat="32.2395600" lon="35.0108500">
<ele>157.770004</ele>
<time>2024-05-01T21:00:09.827Z</time>
</trkpt>
<trkpt lat="32.2395200" lon="35.0107500">
<ele>158.469986</ele>
<time>2024-05-01T21:00:09.827Z</time>
</trkpt>
<trkpt lat="32.2395100" lon="35.0106400">
<ele>160.830002</ele>
<time>2024-05-01T21:00:09.827Z</time>
</trkpt>
<trkpt lat="32.2394700" lon="35.0105400">
<ele>161.899994</ele>
<time>2024-05-01T21:00:09.827Z</time>
</trkpt>
<trkpt lat="32.2393900" lon="35.0104600">
<ele>160.860001</ele>
<time>2024-05-01T21:00:09.827Z</time>
</trkpt>
<trkpt lat="32.2393000" lon="35.0104100">
<ele>159.450012</ele>
<time>2024-05-01T21:00:09.827Z</time>
</trkpt>
<trkpt lat="32.2391700" lon="35.0103500">
<ele>157.290009</ele>
<time>2024-05-01T21:00:09.827Z</time>
</trkpt>
<trkpt lat="32.2391000" lon="35.0102500">
<ele>156.820007</ele>
<time>2024-05-01T21:00:09.827Z</time>
</trkpt>
<trkpt lat="32.2390500" lon="35.0101300">
<ele>155.029999</ele>
<time>2024-05-01T21:00:09.828Z</time>
</trkpt>
<trkpt lat="32.2389900" lon="35.0100200">
<ele>153.009995</ele>
<time>2024-05-01T21:00:09.828Z</time>
</trkpt>
<trkpt lat="32.2389100" lon="35.0098900">
<ele>150.220001</ele>
<time>2024-05-01T21:00:09.828Z</time>
</trkpt>
<trkpt lat="32.2389000" lon="35.0097900">
<ele>148.959991</ele>
<time>2024-05-01T21:00:09.828Z</time>
</trkpt>
<trkpt lat="32.2388900" lon="35.0096700">
<ele>147.460007</ele>
<time>2024-05-01T21:00:09.828Z</time>
</trkpt>
<trkpt lat="32.2388900" lon="35.0095300">
<ele>145.949997</ele>
<time>2024-05-01T21:00:09.828Z</time>
</trkpt>
<trkpt lat="32.2389200" lon="35.0094000">
<ele>145.210007</ele>
<time>2024-05-01T21:00:09.828Z</time>
</trkpt>
<trkpt lat="32.2389900" lon="35.0093000">
<ele>145.809998</ele>
<time>2024-05-01T21:00:09.828Z</time>
</trkpt>
<trkpt lat="32.2390600" lon="35.0092200">
<ele>146.770004</ele>
<time>2024-05-01T21:00:09.828Z</time>
</trkpt>
<trkpt lat="32.2390900" lon="35.0091300">
<ele>146.840012</ele>
<time>2024-05-01T21:00:09.828Z</time>
</trkpt>
<trkpt lat="32.2390800" lon="35.0090200">
<ele>145.919998</ele>
<time>2024-05-01T21:00:09.828Z</time>
</trkpt>
<trkpt lat="32.2390100" lon="35.0089700">
<ele>144.039993</ele>
<time>2024-05-01T21:00:09.828Z</time>
</trkpt>
<trkpt lat="32.2389700" lon="35.0088800">
<ele>142.839996</ele>
<time>2024-05-01T21:00:09.828Z</time>
</trkpt>
<trkpt lat="32.2389700" lon="35.0087500">
<ele>144.110001</ele>
<time>2024-05-01T21:00:09.828Z</time>
</trkpt>
<trkpt lat="32.2389400" lon="35.0086300">
<ele>144.729996</ele>
<time>2024-05-01T21:00:09.828Z</time>
</trkpt>
<trkpt lat="32.2389000" lon="35.0085300">
<ele>144.209991</ele>
<time>2024-05-01T21:00:09.828Z</time>
</trkpt>
<trkpt lat="32.2389000" lon="35.0084000">
<ele>144.229996</ele>
<time>2024-05-01T21:00:09.828Z</time>
</trkpt>
<trkpt lat="32.2388900" lon="35.0082700">
<ele>144.479996</ele>
<time>2024-05-01T21:00:09.828Z</time>
</trkpt>
<trkpt lat="32.2389000" lon="35.0081600">
<ele>145.360001</ele>
<time>2024-05-01T21:00:09.828Z</time>
</trkpt>
<trkpt lat="32.2389000" lon="35.0080600">
<ele>146.009995</ele>
<time>2024-05-01T21:00:09.828Z</time>
</trkpt>
<trkpt lat="32.2388900" lon="35.0079500">
<ele>142.589996</ele>
<time>2024-05-01T21:00:09.828Z</time>
</trkpt>
<trkpt lat="32.2388800" lon="35.0078300">
<ele>138.589996</ele>
<time>2024-05-01T21:00:09.828Z</time>
</trkpt>
<trkpt lat="32.2388700" lon="35.0077000">
<ele>134.940002</ele>
<time>2024-05-01T21:00:09.828Z</time>
</trkpt>
<trkpt lat="32.2388700" lon="35.0075600">
<ele>131.479996</ele>
<time>2024-05-01T21:00:09.828Z</time>
</trkpt>
<trkpt lat="32.2388900" lon="35.0074400">
<ele>129.369995</ele>
<time>2024-05-01T21:00:09.828Z</time>
</trkpt>
<trkpt lat="32.2389500" lon="35.0073300">
<ele>128.989990</ele>
<time>2024-05-01T21:00:09.828Z</time>
</trkpt>
<trkpt lat="32.2390100" lon="35.0072300">
<ele>128.419998</ele>
<time>2024-05-01T21:00:09.829Z</time>
</trkpt>
<trkpt lat="32.2390700" lon="35.0071700">
<ele>128.649994</ele>
<time>2024-05-01T21:00:09.829Z</time>
</trkpt>
<trkpt lat="32.2391000" lon="35.0070500">
<ele>128.190002</ele>
<time>2024-05-01T21:00:09.829Z</time>
</trkpt>
<trkpt lat="32.2390200" lon="35.0069800">
<ele>127.129997</ele>
<time>2024-05-01T21:00:09.829Z</time>
</trkpt>
<trkpt lat="32.2389300" lon="35.0069700">
<ele>126.399994</ele>
<time>2024-05-01T21:00:09.829Z</time>
</trkpt>
<trkpt lat="32.2388600" lon="35.0069200">
<ele>125.110001</ele>
<time>2024-05-01T21:00:09.829Z</time>
</trkpt>
<trkpt lat="32.2387700" lon="35.0069200">
<ele>122.599998</ele>
<time>2024-05-01T21:00:09.829Z</time>
</trkpt>
<trkpt lat="32.2386400" lon="35.0068800">
<ele>119.219994</ele>
<time>2024-05-01T21:00:09.829Z</time>
</trkpt>
<trkpt lat="32.2385500" lon="35.0068700">
<ele>117.199997</ele>
<time>2024-05-01T21:00:09.829Z</time>
</trkpt>
<trkpt lat="32.2385400" lon="35.0067600">
<ele>117.369995</ele>
<time>2024-05-01T21:00:09.829Z</time>
</trkpt>
<trkpt lat="32.2385600" lon="35.0066400">
<ele>118.410004</ele>
<time>2024-05-01T21:00:09.829Z</time>
</trkpt>
<trkpt lat="32.2385900" lon="35.0065200">
<ele>119.480003</ele>
<time>2024-05-01T21:00:09.829Z</time>
</trkpt>
<trkpt lat="32.2386500" lon="35.0064700">
<ele>120.699997</ele>
<time>2024-05-01T21:00:09.829Z</time>
</trkpt>
<trkpt lat="32.2386500" lon="35.0063600">
<ele>121.410004</ele>
<time>2024-05-01T21:00:09.829Z</time>
</trkpt>
<trkpt lat="32.2386300" lon="35.0062500">
<ele>123.809998</ele>
<time>2024-05-01T21:00:09.829Z</time>
</trkpt>
<trkpt lat="32.2385700" lon="35.0061600">
<ele>125.150002</ele>
<time>2024-05-01T21:00:09.829Z</time>
</trkpt>
<trkpt lat="32.2384700" lon="35.0060800">
<ele>125.700005</ele>
<time>2024-05-01T21:00:09.829Z</time>
</trkpt>
<trkpt lat="32.2383900" lon="35.0059800">
<ele>127.019997</ele>
<time>2024-05-01T21:00:09.829Z</time>
</trkpt>
<trkpt lat="32.2383400" lon="35.0058800">
<ele>128.900009</ele>
<time>2024-05-01T21:00:09.829Z</time>
</trkpt>
<trkpt lat="32.2382900" lon="35.0057700">
<ele>129.750000</ele>
<time>2024-05-01T21:00:09.829Z</time>
</trkpt>
<trkpt lat="32.2382600" lon="35.0056700">
<ele>130.179993</ele>
<time>2024-05-01T21:00:09.829Z</time>
</trkpt>
<trkpt lat="32.2382300" lon="35.0056100">
<ele>130.179993</ele>
<time>2024-05-01T21:00:09.829Z</time>
</trkpt>
<trkpt lat="32.2382800" lon="35.0056200">
<ele>131.150009</ele>
<time>2024-05-01T21:00:09.829Z</time>
</trkpt>
<trkpt lat="32.2383500" lon="35.0056700">
<ele>131.979996</ele>
<time>2024-05-01T21:00:09.829Z</time>
</trkpt>
<trkpt lat="32.2384300" lon="35.0057600">
<ele>131.930008</ele>
<time>2024-05-01T21:00:09.829Z</time>
</trkpt>
<trkpt lat="32.2384900" lon="35.0058100">
<ele>131.990005</ele>
<time>2024-05-01T21:00:09.829Z</time>
</trkpt>
<trkpt lat="32.2385300" lon="35.0058400">
<ele>131.970001</ele>
<time>2024-05-01T21:00:09.830Z</time>
</trkpt>
<trkpt lat="32.2385200" lon="35.0057800">
<ele>132.720001</ele>
<time>2024-05-01T21:00:09.830Z</time>
</trkpt>
<trkpt lat="32.2384900" lon="35.0056700">
<ele>133.790009</ele>
<time>2024-05-01T21:00:09.830Z</time>
</trkpt>
<trkpt lat="32.2384400" lon="35.0055700">
<ele>134.360001</ele>
<time>2024-05-01T21:00:09.830Z</time>
</trkpt>
<trkpt lat="32.2384000" lon="35.0054700">
<ele>134.720001</ele>
<time>2024-05-01T21:00:09.830Z</time>
</trkpt>
<trkpt lat="32.2383600" lon="35.0053600">
<ele>134.929993</ele>
<time>2024-05-01T21:00:09.830Z</time>
</trkpt>
<trkpt lat="32.2383100" lon="35.0052300">
<ele>134.500000</ele>
<time>2024-05-01T21:00:09.830Z</time>
</trkpt>
<trkpt lat="32.2382700" lon="35.0051300">
<ele>133.630005</ele>
<time>2024-05-01T21:00:09.830Z</time>
</trkpt>
<trkpt lat="32.2382300" lon="35.0050300">
<ele>132.770004</ele>
<time>2024-05-01T21:00:09.830Z</time>
</trkpt>
<trkpt lat="32.2382500" lon="35.0049500">
<ele>133.250000</ele>
<time>2024-05-01T21:00:09.830Z</time>
</trkpt>
<trkpt lat="32.2383200" lon="35.0049500">
<ele>134.720001</ele>
<time>2024-05-01T21:00:09.830Z</time>
</trkpt>
<trkpt lat="32.2384200" lon="35.0049200">
<ele>137.000000</ele>
<time>2024-05-01T21:00:09.830Z</time>
</trkpt>
<trkpt lat="32.2385000" lon="35.0048400">
<ele>138.509995</ele>
<time>2024-05-01T21:00:09.830Z</time>
</trkpt>
<trkpt lat="32.2385800" lon="35.0047300">
<ele>139.489990</ele>
<time>2024-05-01T21:00:09.830Z</time>
</trkpt>
<trkpt lat="32.2386500" lon="35.0046500">
<ele>140.320007</ele>
<time>2024-05-01T21:00:09.830Z</time>
</trkpt>
<trkpt lat="32.2387100" lon="35.0045600">
<ele>140.970001</ele>
<time>2024-05-01T21:00:09.830Z</time>
</trkpt>
<trkpt lat="32.2387700" lon="35.0044600">
<ele>141.540009</ele>
<time>2024-05-01T21:00:09.830Z</time>
</trkpt>
<trkpt lat="32.2388200" lon="35.0043400">
<ele>141.380005</ele>
<time>2024-05-01T21:00:09.830Z</time>
</trkpt>
<trkpt lat="32.2388800" lon="35.0042400">
<ele>141.600006</ele>
<time>2024-05-01T21:00:09.830Z</time>
</trkpt>
<trkpt lat="32.2389300" lon="35.0041200">
<ele>140.199997</ele>
<time>2024-05-01T21:00:09.830Z</time>
</trkpt>
<trkpt lat="32.2390100" lon="35.0040200">
<ele>138.539993</ele>
<time>2024-05-01T21:00:09.830Z</time>
</trkpt>
<trkpt lat="32.2391000" lon="35.0039100">
<ele>136.710007</ele>
<time>2024-05-01T21:00:09.830Z</time>
</trkpt>
<trkpt lat="32.2392100" lon="35.0038300">
<ele>135.539993</ele>
<time>2024-05-01T21:00:09.831Z</time>
</trkpt>
<trkpt lat="32.2392800" lon="35.0037100">
<ele>134.449997</ele>
<time>2024-05-01T21:00:09.831Z</time>
</trkpt>
<trkpt lat="32.2393900" lon="35.0036800">
<ele>133.889999</ele>
<time>2024-05-01T21:00:09.831Z</time>
</trkpt>
<trkpt lat="32.2395000" lon="35.0036800">
<ele>134.139999</ele>
<time>2024-05-01T21:00:09.831Z</time>
</trkpt>
<trkpt lat="32.2396000" lon="35.0036600">
<ele>134.650009</ele>
<time>2024-05-01T21:00:09.831Z</time>
</trkpt>
<trkpt lat="32.2397000" lon="35.0035800">
<ele>134.500000</ele>
<time>2024-05-01T21:00:09.831Z</time>
</trkpt>
<trkpt lat="32.2397200" lon="35.0034800">
<ele>133.569992</ele>
<time>2024-05-01T21:00:09.831Z</time>
</trkpt>
<trkpt lat="32.2397200" lon="35.0033700">
<ele>132.380005</ele>
<time>2024-05-01T21:00:09.831Z</time>
</trkpt>
<trkpt lat="32.2397000" lon="35.0032600">
<ele>131.330002</ele>
<time>2024-05-01T21:00:09.831Z</time>
</trkpt>
<trkpt lat="32.2396400" lon="35.0031700">
<ele>130.410004</ele>
<time>2024-05-01T21:00:09.831Z</time>
</trkpt>
<trkpt lat="32.2395500" lon="35.0031300">
<ele>129.750000</ele>
<time>2024-05-01T21:00:09.831Z</time>
</trkpt>
<trkpt lat="32.2394200" lon="35.0031000">
<ele>129.339996</ele>
<time>2024-05-01T21:00:09.831Z</time>
</trkpt>
<trkpt lat="32.2393400" lon="35.0030300">
<ele>129.660004</ele>
<time>2024-05-01T21:00:09.831Z</time>
</trkpt>
<trkpt lat="32.2392600" lon="35.0029600">
<ele>129.979996</ele>
<time>2024-05-01T21:00:09.831Z</time>
</trkpt>
<trkpt lat="32.2391900" lon="35.0028500">
<ele>130.089996</ele>
<time>2024-05-01T21:00:09.831Z</time>
</trkpt>
<trkpt lat="32.2391400" lon="35.0027900">
<ele>129.960007</ele>
<time>2024-05-01T21:00:09.831Z</time>
</trkpt>
<trkpt lat="32.2390100" lon="35.0028100">
<ele>129.809998</ele>
<time>2024-05-01T21:00:09.831Z</time>
</trkpt>
<trkpt lat="32.2389000" lon="35.0028000">
<ele>129.429993</ele>
<time>2024-05-01T21:00:09.831Z</time>
</trkpt>
<trkpt lat="32.2387800" lon="35.0028000">
<ele>129.309998</ele>
<time>2024-05-01T21:00:09.831Z</time>
</trkpt>
<trkpt lat="32.2386700" lon="35.0028000">
<ele>129.210007</ele>
<time>2024-05-01T21:00:09.832Z</time>
</trkpt>
<trkpt lat="32.2385700" lon="35.0027900">
<ele>129.080002</ele>
<time>2024-05-01T21:00:09.832Z</time>
</trkpt>
<trkpt lat="32.2385200" lon="35.0027200">
<ele>128.580002</ele>
<time>2024-05-01T21:00:09.832Z</time>
</trkpt>
<trkpt lat="32.2384400" lon="35.0026200">
<ele>128.349991</ele>
<time>2024-05-01T21:00:09.832Z</time>
</trkpt>
<trkpt lat="32.2384100" lon="35.0025000">
<ele>128.169998</ele>
<time>2024-05-01T21:00:09.832Z</time>
</trkpt>
<trkpt lat="32.2383900" lon="35.0023500">
<ele>128.929993</ele>
<time>2024-05-01T21:00:09.832Z</time>
</trkpt>
<trkpt lat="32.2383900" lon="35.0022500">
<ele>129.289993</ele>
<time>2024-05-01T21:00:09.832Z</time>
</trkpt>
<trkpt lat="32.2383800" lon="35.0021400">
<ele>129.199997</ele>
<time>2024-05-01T21:00:09.832Z</time>
</trkpt>
<trkpt lat="32.2383500" lon="35.0020500">
<ele>129.199997</ele>
<time>2024-05-01T21:00:09.832Z</time>
</trkpt>
<trkpt lat="32.2383400" lon="35.0019300">
<ele>128.669998</ele>
<time>2024-05-01T21:00:09.832Z</time>
</trkpt>
<trkpt lat="32.2383400" lon="35.0018000">
<ele>126.339996</ele>
<time>2024-05-01T21:00:09.832Z</time>
</trkpt>
<trkpt lat="32.2383500" lon="35.0016700">
<ele>123.939995</ele>
<time>2024-05-01T21:00:09.832Z</time>
</trkpt>
<trkpt lat="32.2384500" lon="35.0016300">
<ele>122.579994</ele>
<time>2024-05-01T21:00:09.832Z</time>
</trkpt>
<trkpt lat="32.2385700" lon="35.0015900">
<ele>120.959999</ele>
<time>2024-05-01T21:00:09.832Z</time>
</trkpt>
<trkpt lat="32.2386500" lon="35.0015100">
<ele>120.060005</ele>
<time>2024-05-01T21:00:09.832Z</time>
</trkpt>
<trkpt lat="32.2386900" lon="35.0014500">
<ele>120.119995</ele>
<time>2024-05-01T21:00:09.832Z</time>
</trkpt>
<trkpt lat="32.2386600" lon="35.0013500">
<ele>118.320000</ele>
<time>2024-05-01T21:00:09.832Z</time>
</trkpt>
<trkpt lat="32.2385900" lon="35.0013500">
<ele>117.070000</ele>
<time>2024-05-01T21:00:09.832Z</time>
</trkpt>
<trkpt lat="32.2385100" lon="35.0013000">
<ele>117.540001</ele>
<time>2024-05-01T21:00:09.832Z</time>
</trkpt>
<trkpt lat="32.2384700" lon="35.0011900">
<ele>117.079994</ele>
<time>2024-05-01T21:00:09.832Z</time>
</trkpt>
<trkpt lat="32.2383800" lon="35.0011000">
<ele>116.830002</ele>
<time>2024-05-01T21:00:09.833Z</time>
</trkpt>
<trkpt lat="32.2382700" lon="35.0010300">
<ele>115.860001</ele>
<time>2024-05-01T21:00:09.833Z</time>
</trkpt>
<trkpt lat="32.2381600" lon="35.0009400">
<ele>113.879997</ele>
<time>2024-05-01T21:00:09.833Z</time>
</trkpt>
<trkpt lat="32.2380600" lon="35.0008700">
<ele>112.079994</ele>
<time>2024-05-01T21:00:09.833Z</time>
</trkpt>
<trkpt lat="32.2379900" lon="35.0007700">
<ele>110.290001</ele>
<time>2024-05-01T21:00:09.833Z</time>
</trkpt>
<trkpt lat="32.2379000" lon="35.0006600">
<ele>107.730003</ele>
<time>2024-05-01T21:00:09.833Z</time>
</trkpt>
<trkpt lat="32.2378300" lon="35.0005300">
<ele>105.750000</ele>
<time>2024-05-01T21:00:09.833Z</time>
</trkpt>
<trkpt lat="32.2378300" lon="35.0003800">
<ele>107.159996</ele>
<time>2024-05-01T21:00:09.833Z</time>
</trkpt>
<trkpt lat="32.2378300" lon="35.0002500">
<ele>108.130005</ele>
<time>2024-05-01T21:00:09.833Z</time>
</trkpt>
<trkpt lat="32.2378300" lon="35.0001200">
<ele>108.130005</ele>
<time>2024-05-01T21:00:09.833Z</time>
</trkpt>
<trkpt lat="32.2378300" lon="34.9999900">
<ele>108.160004</ele>
<time>2024-05-01T21:00:09.833Z</time>
</trkpt>
<trkpt lat="32.2378200" lon="34.9998700">
<ele>108.310005</ele>
<time>2024-05-01T21:00:09.833Z</time>
</trkpt>
<trkpt lat="32.2378200" lon="34.9997400">
<ele>108.709999</ele>
<time>2024-05-01T21:00:09.833Z</time>
</trkpt>
<trkpt lat="32.2377800" lon="34.9996400">
<ele>108.630005</ele>
<time>2024-05-01T21:00:09.833Z</time>
</trkpt>
<trkpt lat="32.2377400" lon="34.9995400">
<ele>108.669998</ele>
<time>2024-05-01T21:00:09.833Z</time>
</trkpt>
<trkpt lat="32.2377200" lon="34.9994300">
<ele>109.129997</ele>
<time>2024-05-01T21:00:09.833Z</time>
</trkpt>
<trkpt lat="32.2377300" lon="34.9993100">
<ele>108.910004</ele>
<time>2024-05-01T21:00:09.833Z</time>
</trkpt>
<trkpt lat="32.2377300" lon="34.9991900">
<ele>108.549995</ele>
<time>2024-05-01T21:00:09.833Z</time>
</trkpt>
<trkpt lat="32.2377400" lon="34.9990800">
<ele>108.549995</ele>
<time>2024-05-01T21:00:09.833Z</time>
</trkpt>
<trkpt lat="32.2377800" lon="34.9989800">
<ele>109.029999</ele>
<time>2024-05-01T21:00:09.833Z</time>
</trkpt>
<trkpt lat="32.2377900" lon="34.9988500">
<ele>108.979996</ele>
<time>2024-05-01T21:00:09.834Z</time>
</trkpt>
<trkpt lat="32.2378000" lon="34.9986900">
<ele>108.409996</ele>
<time>2024-05-01T21:00:09.834Z</time>
</trkpt>
<trkpt lat="32.2378200" lon="34.9985900">
<ele>107.919998</ele>
<time>2024-05-01T21:00:09.834Z</time>
</trkpt>
<trkpt lat="32.2378400" lon="34.9984900">
<ele>106.920006</ele>
<time>2024-05-01T21:00:09.834Z</time>
</trkpt>
<trkpt lat="32.2378800" lon="34.9983700">
<ele>105.760002</ele>
<time>2024-05-01T21:00:09.834Z</time>
</trkpt>
<trkpt lat="32.2379400" lon="34.9982500">
<ele>105.209999</ele>
<time>2024-05-01T21:00:09.834Z</time>
</trkpt>
<trkpt lat="32.2379900" lon="34.9981200">
<ele>105.219994</ele>
<time>2024-05-01T21:00:09.834Z</time>
</trkpt>
<trkpt lat="32.2380500" lon="34.9979900">
<ele>105.459999</ele>
<time>2024-05-01T21:00:09.834Z</time>
</trkpt>
<trkpt lat="32.2381000" lon="34.9978600">
<ele>104.860001</ele>
<time>2024-05-01T21:00:09.834Z</time>
</trkpt>
<trkpt lat="32.2381400" lon="34.9977100">
<ele>104.360001</ele>
<time>2024-05-01T21:00:09.834Z</time>
</trkpt>
<trkpt lat="32.2381600" lon="34.9975300">
<ele>103.859993</ele>
<time>2024-05-01T21:00:09.834Z</time>
</trkpt>
<trkpt lat="32.2381700" lon="34.9973500">
<ele>103.820000</ele>
<time>2024-05-01T21:00:09.834Z</time>
</trkpt>
<trkpt lat="32.2381800" lon="34.9971700">
<ele>103.730003</ele>
<time>2024-05-01T21:00:09.834Z</time>
</trkpt>
<trkpt lat="32.2381800" lon="34.9970000">
<ele>103.180000</ele>
<time>2024-05-01T21:00:09.834Z</time>
</trkpt>
<trkpt lat="32.2381900" lon="34.9968300">
<ele>101.959999</ele>
<time>2024-05-01T21:00:09.834Z</time>
</trkpt>
<trkpt lat="32.2382000" lon="34.9966700">
<ele>100.550003</ele>
<time>2024-05-01T21:00:09.834Z</time>
</trkpt>
<trkpt lat="32.2382300" lon="34.9965400">
<ele>99.600006</ele>
<time>2024-05-01T21:00:09.834Z</time>
</trkpt>
<trkpt lat="32.2382500" lon="34.9964000">
<ele>98.400002</ele>
<time>2024-05-01T21:00:09.834Z</time>
</trkpt>
<trkpt lat="32.2382800" lon="34.9962500">
<ele>96.599998</ele>
<time>2024-05-01T21:00:09.834Z</time>
</trkpt>
<trkpt lat="32.2383200" lon="34.9960900">
<ele>94.689995</ele>
<time>2024-05-01T21:00:09.834Z</time>
</trkpt>
<trkpt lat="32.2383800" lon="34.9959400">
<ele>92.869995</ele>
<time>2024-05-01T21:00:09.835Z</time>
</trkpt>
<trkpt lat="32.2384600" lon="34.9957800">
<ele>91.129997</ele>
<time>2024-05-01T21:00:09.835Z</time>
</trkpt>
<trkpt lat="32.2385400" lon="34.9956200">
<ele>89.790001</ele>
<time>2024-05-01T21:00:09.835Z</time>
</trkpt>
<trkpt lat="32.2386100" lon="34.9954300">
<ele>89.080002</ele>
<time>2024-05-01T21:00:09.835Z</time>
</trkpt>
<trkpt lat="32.2386900" lon="34.9952500">
<ele>88.540001</ele>
<time>2024-05-01T21:00:09.835Z</time>
</trkpt>
<trkpt lat="32.2387600" lon="34.9951000">
<ele>88.729996</ele>
<time>2024-05-01T21:00:09.835Z</time>
</trkpt>
<trkpt lat="32.2388100" lon="34.9949500">
<ele>88.540001</ele>
<time>2024-05-01T21:00:09.835Z</time>
</trkpt>
<trkpt lat="32.2388500" lon="34.9948200">
<ele>88.209999</ele>
<time>2024-05-01T21:00:09.835Z</time>
</trkpt>
<trkpt lat="32.2388700" lon="34.9946900">
<ele>87.680000</ele>
<time>2024-05-01T21:00:09.835Z</time>
</trkpt>
<trkpt lat="32.2389200" lon="34.9945700">
<ele>86.950005</ele>
<time>2024-05-01T21:00:09.835Z</time>
</trkpt>
<trkpt lat="32.2389300" lon="34.9944600">
<ele>86.120003</ele>
<time>2024-05-01T21:00:09.835Z</time>
</trkpt>
<trkpt lat="32.2389400" lon="34.9943200">
<ele>83.920006</ele>
<time>2024-05-01T21:00:09.835Z</time>
</trkpt>
<trkpt lat="32.2389400" lon="34.9941800">
<ele>81.589996</ele>
<time>2024-05-01T21:00:09.835Z</time>
</trkpt>
<trkpt lat="32.2389500" lon="34.9940300">
<ele>80.180000</ele>
<time>2024-05-01T21:00:09.835Z</time>
</trkpt>
<trkpt lat="32.2389600" lon="34.9938800">
<ele>78.949997</ele>
<time>2024-05-01T21:00:09.835Z</time>
</trkpt>
<trkpt lat="32.2390000" lon="34.9937400">
<ele>78.310005</ele>
<time>2024-05-01T21:00:09.835Z</time>
</trkpt>
<trkpt lat="32.2390500" lon="34.9936300">
<ele>77.920006</ele>
<time>2024-05-01T21:00:09.835Z</time>
</trkpt>
<trkpt lat="32.2390800" lon="34.9935100">
<ele>75.239998</ele>
<time>2024-05-01T21:00:09.835Z</time>
</trkpt>
<trkpt lat="32.2390900" lon="34.9934400">
<ele>73.309998</ele>
<time>2024-05-01T21:00:09.835Z</time>
</trkpt>
<trkpt lat="32.2390300" lon="34.9934700">
<ele>73.949997</ele>
<time>2024-05-01T21:00:09.835Z</time>
</trkpt>
<trkpt lat="32.2389600" lon="34.9935200">
<ele>74.790001</ele>
<time>2024-05-01T21:00:09.835Z</time>
</trkpt>
<trkpt lat="32.2388700" lon="34.9936000">
<ele>75.669998</ele>
<time>2024-05-01T21:00:09.835Z</time>
</trkpt>
<trkpt lat="32.2387700" lon="34.9937000">
<ele>75.650002</ele>
<time>2024-05-01T21:00:09.836Z</time>
</trkpt>
<trkpt lat="32.2386600" lon="34.9937900">
<ele>75.110001</ele>
<time>2024-05-01T21:00:09.836Z</time>
</trkpt>
<trkpt lat="32.2385900" lon="34.9938900">
<ele>75.089996</ele>
<time>2024-05-01T21:00:09.836Z</time>
</trkpt>
<trkpt lat="32.2385400" lon="34.9940100">
<ele>76.669998</ele>
<time>2024-05-01T21:00:09.836Z</time>
</trkpt>
<trkpt lat="32.2385200" lon="34.9941200">
<ele>77.840004</ele>
<time>2024-05-01T21:00:09.836Z</time>
</trkpt>
<trkpt lat="32.2385200" lon="34.9942500">
<ele>79.540001</ele>
<time>2024-05-01T21:00:09.836Z</time>
</trkpt>
<trkpt lat="32.2385200" lon="34.9943700">
<ele>81.269997</ele>
<time>2024-05-01T21:00:09.836Z</time>
</trkpt>
<trkpt lat="32.2385200" lon="34.9944900">
<ele>82.889999</ele>
<time>2024-05-01T21:00:09.836Z</time>
</trkpt>
<trkpt lat="32.2385600" lon="34.9946100">
<ele>84.799995</ele>
<time>2024-05-01T21:00:09.836Z</time>
</trkpt>
<trkpt lat="32.2385900" lon="34.9947000">
<ele>86.389999</ele>
<time>2024-05-01T21:00:09.836Z</time>
</trkpt>
<trkpt lat="32.2386000" lon="34.9948100">
<ele>87.139999</ele>
<time>2024-05-01T21:00:09.836Z</time>
</trkpt>
<trkpt lat="32.2385900" lon="34.9949300">
<ele>87.389999</ele>
<time>2024-05-01T21:00:09.836Z</time>
</trkpt>
<trkpt lat="32.2385700" lon="34.9950700">
<ele>87.330002</ele>
<time>2024-05-01T21:00:09.836Z</time>
</trkpt>
<trkpt lat="32.2385500" lon="34.9951800">
<ele>87.190002</ele>
<time>2024-05-01T21:00:09.836Z</time>
</trkpt>
<trkpt lat="32.2385000" lon="34.9953100">
<ele>86.990005</ele>
<time>2024-05-01T21:00:09.836Z</time>
</trkpt>
<trkpt lat="32.2384600" lon="34.9954100">
<ele>87.059998</ele>
<time>2024-05-01T21:00:09.836Z</time>
</trkpt>
<trkpt lat="32.2384300" lon="34.9955300">
<ele>87.270004</ele>
<time>2024-05-01T21:00:09.836Z</time>
</trkpt>
<trkpt lat="32.2383200" lon="34.9955800">
<ele>86.479996</ele>
<time>2024-05-01T21:00:09.836Z</time>
</trkpt>
<trkpt lat="32.2382500" lon="34.9956400">
<ele>87.549995</ele>
<time>2024-05-01T21:00:09.836Z</time>
</trkpt>
<trkpt lat="32.2381600" lon="34.9957000">
<ele>88.250000</ele>
<time>2024-05-01T21:00:09.836Z</time>
</trkpt>
<trkpt lat="32.2380700" lon="34.9957800">
<ele>88.690002</ele>
<time>2024-05-01T21:00:09.836Z</time>
</trkpt>
<trkpt lat="32.2379800" lon="34.9958400">
<ele>88.330002</ele>
<time>2024-05-01T21:00:09.837Z</time>
</trkpt>
<trkpt lat="32.2379000" lon="34.9959300">
<ele>89.410004</ele>
<time>2024-05-01T21:00:09.837Z</time>
</trkpt>
<trkpt lat="32.2378600" lon="34.9960300">
<ele>91.139999</ele>
<time>2024-05-01T21:00:09.837Z</time>
</trkpt>
<trkpt lat="32.2378300" lon="34.9961400">
<ele>92.979996</ele>
<time>2024-05-01T21:00:09.837Z</time>
</trkpt>
<trkpt lat="32.2377200" lon="34.9962100">
<ele>91.760002</ele>
<time>2024-05-01T21:00:09.837Z</time>
</trkpt>
<trkpt lat="32.2376600" lon="34.9963000">
<ele>91.329994</ele>
<time>2024-05-01T21:00:09.837Z</time>
</trkpt>
<trkpt lat="32.2376500" lon="34.9964300">
<ele>92.600006</ele>
<time>2024-05-01T21:00:09.837Z</time>
</trkpt>
<trkpt lat="32.2376200" lon="34.9965200">
<ele>92.459999</ele>
<time>2024-05-01T21:00:09.837Z</time>
</trkpt>
<trkpt lat="32.2375300" lon="34.9966100">
<ele>91.080002</ele>
<time>2024-05-01T21:00:09.837Z</time>
</trkpt>
<trkpt lat="32.2375200" lon="34.9967400">
<ele>92.199997</ele>
<time>2024-05-01T21:00:09.837Z</time>
</trkpt>
<trkpt lat="32.2375100" lon="34.9968600">
<ele>93.279999</ele>
<time>2024-05-01T21:00:09.837Z</time>
</trkpt>
<trkpt lat="32.2375000" lon="34.9969900">
<ele>94.489998</ele>
<time>2024-05-01T21:00:09.837Z</time>
</trkpt>
<trkpt lat="32.2374500" lon="34.9970700">
<ele>94.190002</ele>
<time>2024-05-01T21:00:09.837Z</time>
</trkpt>
<trkpt lat="32.2373600" lon="34.9970900">
<ele>92.280006</ele>
<time>2024-05-01T21:00:09.837Z</time>
</trkpt>
<trkpt lat="32.2372500" lon="34.9971000">
<ele>89.779999</ele>
<time>2024-05-01T21:00:09.837Z</time>
</trkpt>
<trkpt lat="32.2371200" lon="34.9971200">
<ele>86.820000</ele>
<time>2024-05-01T21:00:09.837Z</time>
</trkpt>
<trkpt lat="32.2370400" lon="34.9971700">
<ele>85.160004</ele>
<time>2024-05-01T21:00:09.837Z</time>
</trkpt>
<trkpt lat="32.2369500" lon="34.9972800">
<ele>83.349998</ele>
<time>2024-05-01T21:00:09.837Z</time>
</trkpt>
<trkpt lat="32.2368700" lon="34.9974000">
<ele>82.380005</ele>
<time>2024-05-01T21:00:09.837Z</time>
</trkpt>
<trkpt lat="32.2368200" lon="34.9975100">
<ele>82.279999</ele>
<time>2024-05-01T21:00:09.837Z</time>
</trkpt>
<trkpt lat="32.2367800" lon="34.9976200">
<ele>82.500000</ele>
<time>2024-05-01T21:00:09.837Z</time>
</trkpt>
<trkpt lat="32.2367500" lon="34.9977400">
<ele>82.930000</ele>
<time>2024-05-01T21:00:09.837Z</time>
</trkpt>
<trkpt lat="32.2367100" lon="34.9978500">
<ele>82.570000</ele>
<time>2024-05-01T21:00:09.837Z</time>
</trkpt>
<trkpt lat="32.2366900" lon="34.9979800">
<ele>81.909996</ele>
<time>2024-05-01T21:00:09.838Z</time>
</trkpt>
<trkpt lat="32.2366800" lon="34.9980900">
<ele>81.570000</ele>
<time>2024-05-01T21:00:09.838Z</time>
</trkpt>
<trkpt lat="32.2366700" lon="34.9982300">
<ele>81.759995</ele>
<time>2024-05-01T21:00:09.838Z</time>
</trkpt>
<trkpt lat="32.2366600" lon="34.9983700">
<ele>82.400002</ele>
<time>2024-05-01T21:00:09.838Z</time>
</trkpt>
<trkpt lat="32.2366500" lon="34.9985100">
<ele>84.169998</ele>
<time>2024-05-01T21:00:09.838Z</time>
</trkpt>
<trkpt lat="32.2366400" lon="34.9986500">
<ele>85.470001</ele>
<time>2024-05-01T21:00:09.838Z</time>
</trkpt>
<trkpt lat="32.2366100" lon="34.9987500">
<ele>85.070000</ele>
<time>2024-05-01T21:00:09.838Z</time>
</trkpt>
<trkpt lat="32.2365900" lon="34.9989100">
<ele>85.109993</ele>
<time>2024-05-01T21:00:09.838Z</time>
</trkpt>
<trkpt lat="32.2365700" lon="34.9990200">
<ele>84.889999</ele>
<time>2024-05-01T21:00:09.838Z</time>
</trkpt>
<trkpt lat="32.2365600" lon="34.9991700">
<ele>85.099998</ele>
<time>2024-05-01T21:00:09.838Z</time>
</trkpt>
<trkpt lat="32.2365500" lon="34.9993100">
<ele>85.719994</ele>
<time>2024-05-01T21:00:09.838Z</time>
</trkpt>
<trkpt lat="32.2365500" lon="34.9994200">
<ele>86.340004</ele>
<time>2024-05-01T21:00:09.838Z</time>
</trkpt>
<trkpt lat="32.2365400" lon="34.9995300">
<ele>85.979996</ele>
<time>2024-05-01T21:00:09.838Z</time>
</trkpt>
<trkpt lat="32.2365400" lon="34.9996500">
<ele>85.590004</ele>
<time>2024-05-01T21:00:09.838Z</time>
</trkpt>
<trkpt lat="32.2365400" lon="34.9997800">
<ele>84.840004</ele>
<time>2024-05-01T21:00:09.838Z</time>
</trkpt>
<trkpt lat="32.2365100" lon="34.9998700">
<ele>83.119995</ele>
<time>2024-05-01T21:00:09.838Z</time>
</trkpt>
<trkpt lat="32.2364300" lon="34.9998700">
<ele>80.669998</ele>
<time>2024-05-01T21:00:09.838Z</time>
</trkpt>
<trkpt lat="32.2363600" lon="34.9998200">
<ele>79.360001</ele>
<time>2024-05-01T21:00:09.838Z</time>
</trkpt>
<trkpt lat="32.2362900" lon="34.9997100">
<ele>78.949997</ele>
<time>2024-05-01T21:00:09.838Z</time>
</trkpt>
<trkpt lat="32.2362700" lon="34.9995500">
<ele>79.670006</ele>
<time>2024-05-01T21:00:09.838Z</time>
</trkpt>
<trkpt lat="32.2362300" lon="34.9994200">
<ele>79.529999</ele>
<time>2024-05-01T21:00:09.838Z</time>
</trkpt>
<trkpt lat="32.2362200" lon="34.9992900">
<ele>79.129997</ele>
<time>2024-05-01T21:00:09.838Z</time>
</trkpt>
<trkpt lat="32.2362100" lon="34.9991500">
<ele>78.659996</ele>
<time>2024-05-01T21:00:09.838Z</time>
</trkpt>
<trkpt lat="32.2362000" lon="34.9990200">
<ele>77.540001</ele>
<time>2024-05-01T21:00:09.838Z</time>
</trkpt>
<trkpt lat="32.2361700" lon="34.9988900">
<ele>76.070000</ele>
<time>2024-05-01T21:00:09.838Z</time>
</trkpt>
<trkpt lat="32.2361300" lon="34.9987600">
<ele>74.880005</ele>
<time>2024-05-01T21:00:09.838Z</time>
</trkpt>
<trkpt lat="32.2360800" lon="34.9986200">
<ele>73.690002</ele>
<time>2024-05-01T21:00:09.838Z</time>
</trkpt>
<trkpt lat="32.2360700" lon="34.9984500">
<ele>72.479996</ele>
<time>2024-05-01T21:00:09.839Z</time>
</trkpt>
<trkpt lat="32.2360700" lon="34.9982800">
<ele>71.650002</ele>
<time>2024-05-01T21:00:09.839Z</time>
</trkpt>
<trkpt lat="32.2361000" lon="34.9981300">
<ele>71.860001</ele>
<time>2024-05-01T21:00:09.839Z</time>
</trkpt>
<trkpt lat="32.2361200" lon="34.9979800">
<ele>71.300003</ele>
<time>2024-05-01T21:00:09.839Z</time>
</trkpt>
<trkpt lat="32.2361300" lon="34.9978500">
<ele>70.080002</ele>
<time>2024-05-01T21:00:09.839Z</time>
</trkpt>
<trkpt lat="32.2361500" lon="34.9977400">
<ele>69.540001</ele>
<time>2024-05-01T21:00:09.839Z</time>
</trkpt>
<trkpt lat="32.2362300" lon="34.9976400">
<ele>70.430000</ele>
<time>2024-05-01T21:00:09.839Z</time>
</trkpt>
<trkpt lat="32.2363200" lon="34.9975400">
<ele>71.260002</ele>
<time>2024-05-01T21:00:09.839Z</time>
</trkpt>
<trkpt lat="32.2363600" lon="34.9974100">
<ele>71.000000</ele>
<time>2024-05-01T21:00:09.839Z</time>
</trkpt>
<trkpt lat="32.2364000" lon="34.9972700">
<ele>70.629997</ele>
<time>2024-05-01T21:00:09.839Z</time>
</trkpt>
<trkpt lat="32.2364500" lon="34.9971400">
<ele>70.879997</ele>
<time>2024-05-01T21:00:09.839Z</time>
</trkpt>
<trkpt lat="32.2364800" lon="34.9969900">
<ele>70.349998</ele>
<time>2024-05-01T21:00:09.839Z</time>
</trkpt>
<trkpt lat="32.2364900" lon="34.9968700">
<ele>70.010002</ele>
<time>2024-05-01T21:00:09.839Z</time>
</trkpt>
<trkpt lat="32.2365100" lon="34.9967600">
<ele>70.239998</ele>
<time>2024-05-01T21:00:09.839Z</time>
</trkpt>
<trkpt lat="32.2365300" lon="34.9966100">
<ele>70.450005</ele>
<time>2024-05-01T21:00:09.839Z</time>
</trkpt>
<trkpt lat="32.2365200" lon="34.9964700">
<ele>70.010002</ele>
<time>2024-05-01T21:00:09.839Z</time>
</trkpt>
<trkpt lat="32.2365200" lon="34.9963200">
<ele>69.269997</ele>
<time>2024-05-01T21:00:09.839Z</time>
</trkpt>
<trkpt lat="32.2365000" lon="34.9962300">
<ele>68.229996</ele>
<time>2024-05-01T21:00:09.839Z</time>
</trkpt>
<trkpt lat="32.2363700" lon="34.9962100">
<ele>66.639999</ele>
<time>2024-05-01T21:00:09.839Z</time>
</trkpt>
<trkpt lat="32.2362500" lon="34.9961800">
<ele>66.000000</ele>
<time>2024-05-01T21:00:09.839Z</time>
</trkpt>
<trkpt lat="32.2361400" lon="34.9961200">
<ele>65.169998</ele>
<time>2024-05-01T21:00:09.839Z</time>
</trkpt>
<trkpt lat="32.2360300" lon="34.9960600">
<ele>65.290001</ele>
<time>2024-05-01T21:00:09.839Z</time>
</trkpt>
<trkpt lat="32.2359200" lon="34.9959900">
<ele>65.690002</ele>
<time>2024-05-01T21:00:09.839Z</time>
</trkpt>
<trkpt lat="32.2358200" lon="34.9959300">
<ele>65.939995</ele>
<time>2024-05-01T21:00:09.839Z</time>
</trkpt>
<trkpt lat="32.2357100" lon="34.9958600">
<ele>65.200005</ele>
<time>2024-05-01T21:00:09.839Z</time>
</trkpt>
<trkpt lat="32.2356100" lon="34.9957900">
<ele>64.110001</ele>
<time>2024-05-01T21:00:09.839Z</time>
</trkpt>
<trkpt lat="32.2355000" lon="34.9957600">
<ele>63.029999</ele>
<time>2024-05-01T21:00:09.840Z</time>
</trkpt>
<trkpt lat="32.2353900" lon="34.9957400">
<ele>62.139999</ele>
<time>2024-05-01T21:00:09.840Z</time>
</trkpt>
<trkpt lat="32.2353000" lon="34.9957900">
<ele>61.360001</ele>
<time>2024-05-01T21:00:09.840Z</time>
</trkpt>
<trkpt lat="32.2352700" lon="34.9958800">
<ele>61.080002</ele>
<time>2024-05-01T21:00:09.840Z</time>
</trkpt>
<trkpt lat="32.2352200" lon="34.9959700">
<ele>60.870003</ele>
<time>2024-05-01T21:00:09.840Z</time>
</trkpt>
<trkpt lat="32.2351800" lon="34.9960700">
<ele>60.799999</ele>
<time>2024-05-01T21:00:09.840Z</time>
</trkpt>
<trkpt lat="32.2351400" lon="34.9961700">
<ele>60.720001</ele>
<time>2024-05-01T21:00:09.840Z</time>
</trkpt>
<trkpt lat="32.2350900" lon="34.9962600">
<ele>60.509998</ele>
<time>2024-05-01T21:00:09.840Z</time>
</trkpt>
<trkpt lat="32.2350400" lon="34.9963500">
<ele>60.290001</ele>
<time>2024-05-01T21:00:09.840Z</time>
</trkpt>
<trkpt lat="32.2349800" lon="34.9964800">
<ele>60.509998</ele>
<time>2024-05-01T21:00:09.840Z</time>
</trkpt>
<trkpt lat="32.2349200" lon="34.9966000">
<ele>60.940002</ele>
<time>2024-05-01T21:00:09.840Z</time>
</trkpt>
<trkpt lat="32.2348300" lon="34.9966600">
<ele>60.730000</ele>
<time>2024-05-01T21:00:09.840Z</time>
</trkpt>
<trkpt lat="32.2347200" lon="34.9966200">
<ele>59.640003</ele>
<time>2024-05-01T21:00:09.840Z</time>
</trkpt>
<trkpt lat="32.2347000" lon="34.9965200">
<ele>58.790001</ele>
<time>2024-05-01T21:00:09.840Z</time>
</trkpt>
<trkpt lat="32.2346900" lon="34.9964100">
<ele>58.019997</ele>
<time>2024-05-01T21:00:09.840Z</time>
</trkpt>
<trkpt lat="32.2346400" lon="34.9963300">
<ele>57.700001</ele>
<time>2024-05-01T21:00:09.840Z</time>
</trkpt>
<trkpt lat="32.2345700" lon="34.9962600">
<ele>57.450001</ele>
<time>2024-05-01T21:00:09.840Z</time>
</trkpt>
<trkpt lat="32.2345500" lon="34.9961400">
<ele>57.380001</ele>
<time>2024-05-01T21:00:09.840Z</time>
</trkpt>
<trkpt lat="32.2344800" lon="34.9960800">
<ele>57.320000</ele>
<time>2024-05-01T21:00:09.840Z</time>
</trkpt>
<trkpt lat="32.2343800" lon="34.9960600">
<ele>57.220001</ele>
<time>2024-05-01T21:00:09.840Z</time>
</trkpt>
<trkpt lat="32.2343000" lon="34.9960000">
<ele>57.700001</ele>
<time>2024-05-01T21:00:09.840Z</time>
</trkpt>
<trkpt lat="32.2342600" lon="34.9959000">
<ele>58.870003</ele>
<time>2024-05-01T21:00:09.840Z</time>
</trkpt>
<trkpt lat="32.2342400" lon="34.9957700">
<ele>59.509998</ele>
<time>2024-05-01T21:00:09.840Z</time>
</trkpt>
<trkpt lat="32.2342300" lon="34.9956200">
<ele>59.000000</ele>
<time>2024-05-01T21:00:09.840Z</time>
</trkpt>
<trkpt lat="32.2342200" lon="34.9955100">
<ele>58.709999</ele>
<time>2024-05-01T21:00:09.840Z</time>
</trkpt>
<trkpt lat="32.2342300" lon="34.9954000">
<ele>58.469997</ele>
<time>2024-05-01T21:00:09.840Z</time>
</trkpt>
<trkpt lat="32.2342700" lon="34.9953100">
<ele>58.399998</ele>
<time>2024-05-01T21:00:09.840Z</time>
</trkpt>
<trkpt lat="32.2343000" lon="34.9951900">
<ele>58.320000</ele>
<time>2024-05-01T21:00:09.841Z</time>
</trkpt>
<trkpt lat="32.2343900" lon="34.9950900">
<ele>58.670002</ele>
<time>2024-05-01T21:00:09.841Z</time>
</trkpt>
<trkpt lat="32.2344800" lon="34.9950400">
<ele>58.849998</ele>
<time>2024-05-01T21:00:09.841Z</time>
</trkpt>
<trkpt lat="32.2345600" lon="34.9949800">
<ele>58.580002</ele>
<time>2024-05-01T21:00:09.841Z</time>
</trkpt>
<trkpt lat="32.2346200" lon="34.9949000">
<ele>58.369999</ele>
<time>2024-05-01T21:00:09.841Z</time>
</trkpt>
<trkpt lat="32.2346800" lon="34.9948100">
<ele>58.149998</ele>
<time>2024-05-01T21:00:09.841Z</time>
</trkpt>
<trkpt lat="32.2347400" lon="34.9947400">
<ele>57.939999</ele>
<time>2024-05-01T21:00:09.841Z</time>
</trkpt>
<trkpt lat="32.2347800" lon="34.9946000">
<ele>57.440002</ele>
<time>2024-05-01T21:00:09.841Z</time>
</trkpt>
<trkpt lat="32.2347700" lon="34.9944800">
<ele>57.109997</ele>
<time>2024-05-01T21:00:09.841Z</time>
</trkpt>
<trkpt lat="32.2347000" lon="34.9944400">
<ele>57.090000</ele>
<time>2024-05-01T21:00:09.841Z</time>
</trkpt>
<trkpt lat="32.2346500" lon="34.9943700">
<ele>57.459999</ele>
<time>2024-05-01T21:00:09.841Z</time>
</trkpt>
<trkpt lat="32.2346200" lon="34.9942300">
<ele>57.859997</ele>
<time>2024-05-01T21:00:09.841Z</time>
</trkpt>
<trkpt lat="32.2346300" lon="34.9941500">
<ele>58.160000</ele>
<time>2024-05-01T21:00:09.841Z</time>
</trkpt>
<trkpt lat="32.2346100" lon="34.9940100">
<ele>59.580002</ele>
<time>2024-05-01T21:00:09.841Z</time>
</trkpt>
<trkpt lat="32.2345500" lon="34.9939400">
<ele>60.639999</ele>
<time>2024-05-01T21:00:09.841Z</time>
</trkpt>
<trkpt lat="32.2344800" lon="34.9938600">
<ele>61.780003</ele>
<time>2024-05-01T21:00:09.841Z</time>
</trkpt>
<trkpt lat="32.2344500" lon="34.9937400">
<ele>61.990002</ele>
<time>2024-05-01T21:00:09.841Z</time>
</trkpt>
<trkpt lat="32.2344500" lon="34.9936300">
<ele>62.020000</ele>
<time>2024-05-01T21:00:09.841Z</time>
</trkpt>
<trkpt lat="32.2344300" lon="34.9935000">
<ele>61.840004</ele>
<time>2024-05-01T21:00:09.841Z</time>
</trkpt>
<trkpt lat="32.2344100" lon="34.9934000">
<ele>61.770000</ele>
<time>2024-05-01T21:00:09.841Z</time>
</trkpt>
<trkpt lat="32.2342800" lon="34.9933400">
<ele>63.410000</ele>
<time>2024-05-01T21:00:09.841Z</time>
</trkpt>
<trkpt lat="32.2341800" lon="34.9932900">
<ele>64.639999</ele>
<time>2024-05-01T21:00:09.841Z</time>
</trkpt>
<trkpt lat="32.2341000" lon="34.9932400">
<ele>65.059998</ele>
<time>2024-05-01T21:00:09.841Z</time>
</trkpt>
<trkpt lat="32.2340000" lon="34.9932100">
<ele>65.489998</ele>
<time>2024-05-01T21:00:09.841Z</time>
</trkpt>
<trkpt lat="32.2338800" lon="34.9932100">
<ele>66.080002</ele>
<time>2024-05-01T21:00:09.841Z</time>
</trkpt>
<trkpt lat="32.2337900" lon="34.9931700">
<ele>65.470001</ele>
<time>2024-05-01T21:00:09.841Z</time>
</trkpt>
<trkpt lat="32.2336900" lon="34.9931600">
<ele>65.040001</ele>
<time>2024-05-01T21:00:09.841Z</time>
</trkpt>
<trkpt lat="32.2336000" lon="34.9931600">
<ele>64.919998</ele>
<time>2024-05-01T21:00:09.842Z</time>
</trkpt>
<trkpt lat="32.2334700" lon="34.9931600">
<ele>66.909996</ele>
<time>2024-05-01T21:00:09.842Z</time>
</trkpt>
<trkpt lat="32.2333700" lon="34.9931600">
<ele>68.440002</ele>
<time>2024-05-01T21:00:09.842Z</time>
</trkpt>
<trkpt lat="32.2332700" lon="34.9931600">
<ele>68.489998</ele>
<time>2024-05-01T21:00:09.842Z</time>
</trkpt>
<trkpt lat="32.2331500" lon="34.9931700">
<ele>67.560005</ele>
<time>2024-05-01T21:00:09.842Z</time>
</trkpt>
<trkpt lat="32.2330500" lon="34.9932000">
<ele>66.989998</ele>
<time>2024-05-01T21:00:09.842Z</time>
</trkpt>
<trkpt lat="32.2330200" lon="34.9933500">
<ele>67.860001</ele>
<time>2024-05-01T21:00:09.842Z</time>
</trkpt>
<trkpt lat="32.2329400" lon="34.9934600">
<ele>68.079994</ele>
<time>2024-05-01T21:00:09.842Z</time>
</trkpt>
<trkpt lat="32.2328300" lon="34.9934800">
<ele>67.430000</ele>
<time>2024-05-01T21:00:09.842Z</time>
</trkpt>
<trkpt lat="32.2327200" lon="34.9935000">
<ele>67.029999</ele>
<time>2024-05-01T21:00:09.842Z</time>
</trkpt>
<trkpt lat="32.2326200" lon="34.9935400">
<ele>67.199997</ele>
<time>2024-05-01T21:00:09.842Z</time>
</trkpt>
<trkpt lat="32.2325500" lon="34.9936200">
<ele>67.970001</ele>
<time>2024-05-01T21:00:09.842Z</time>
</trkpt>
<trkpt lat="32.2324500" lon="34.9936600">
<ele>67.050003</ele>
<time>2024-05-01T21:00:09.842Z</time>
</trkpt>
<trkpt lat="32.2323700" lon="34.9937400">
<ele>66.059998</ele>
<time>2024-05-01T21:00:09.842Z</time>
</trkpt>
<trkpt lat="32.2323100" lon="34.9938400">
<ele>66.010002</ele>
<time>2024-05-01T21:00:09.842Z</time>
</trkpt>
<trkpt lat="32.2322800" lon="34.9939500">
<ele>65.900002</ele>
<time>2024-05-01T21:00:09.842Z</time>
</trkpt>
<trkpt lat="32.2322600" lon="34.9940600">
<ele>65.349998</ele>
<time>2024-05-01T21:00:09.842Z</time>
</trkpt>
<trkpt lat="32.2322300" lon="34.9941600">
<ele>65.000000</ele>
<time>2024-05-01T21:00:09.842Z</time>
</trkpt>
<trkpt lat="32.2321400" lon="34.9942300">
<ele>64.409996</ele>
<time>2024-05-01T21:00:09.842Z</time>
</trkpt>
<trkpt lat="32.2320600" lon="34.9943000">
<ele>64.010002</ele>
<time>2024-05-01T21:00:09.842Z</time>
</trkpt>
<trkpt lat="32.2320100" lon="34.9944400">
<ele>64.440002</ele>
<time>2024-05-01T21:00:09.842Z</time>
</trkpt>
<trkpt lat="32.2319600" lon="34.9945300">
<ele>65.629997</ele>
<time>2024-05-01T21:00:09.842Z</time>
</trkpt>
<trkpt lat="32.2318900" lon="34.9946000">
<ele>66.519997</ele>
<time>2024-05-01T21:00:09.842Z</time>
</trkpt>
<trkpt lat="32.2318300" lon="34.9946800">
<ele>67.769997</ele>
<time>2024-05-01T21:00:09.842Z</time>
</trkpt>
<trkpt lat="32.2317200" lon="34.9947700">
<ele>68.669998</ele>
<time>2024-05-01T21:00:09.842Z</time>
</trkpt>
<trkpt lat="32.2316400" lon="34.9948200">
<ele>68.739998</ele>
<time>2024-05-01T21:00:09.842Z</time>
</trkpt>
<trkpt lat="32.2315700" lon="34.9949000">
<ele>68.970001</ele>
<time>2024-05-01T21:00:09.843Z</time>
</trkpt>
<trkpt lat="32.2315500" lon="34.9950100">
<ele>70.139999</ele>
<time>2024-05-01T21:00:09.843Z</time>
</trkpt>
<trkpt lat="32.2315200" lon="34.9951200">
<ele>69.739998</ele>
<time>2024-05-01T21:00:09.843Z</time>
</trkpt>
<trkpt lat="32.2314300" lon="34.9952300">
<ele>69.169998</ele>
<time>2024-05-01T21:00:09.843Z</time>
</trkpt>
<trkpt lat="32.2313100" lon="34.9952900">
<ele>69.239998</ele>
<time>2024-05-01T21:00:09.843Z</time>
</trkpt>
<trkpt lat="32.2312200" lon="34.9953400">
<ele>69.889999</ele>
<time>2024-05-01T21:00:09.843Z</time>
</trkpt>
<trkpt lat="32.2311300" lon="34.9953900">
<ele>71.360001</ele>
<time>2024-05-01T21:00:09.843Z</time>
</trkpt>
<trkpt lat="32.2310600" lon="34.9955200">
<ele>73.739998</ele>
<time>2024-05-01T21:00:09.843Z</time>
</trkpt>
<trkpt lat="32.2310000" lon="34.9956100">
<ele>74.010002</ele>
<time>2024-05-01T21:00:09.843Z</time>
</trkpt>
<trkpt lat="32.2309800" lon="34.9957100">
<ele>73.360001</ele>
<time>2024-05-01T21:00:09.843Z</time>
</trkpt>
<trkpt lat="32.2309700" lon="34.9958700">
<ele>72.239998</ele>
<time>2024-05-01T21:00:09.843Z</time>
</trkpt>
<trkpt lat="32.2309600" lon="34.9959700">
<ele>71.559998</ele>
<time>2024-05-01T21:00:09.843Z</time>
</trkpt>
<trkpt lat="32.2309700" lon="34.9961000">
<ele>70.589996</ele>
<time>2024-05-01T21:00:09.843Z</time>
</trkpt>
<trkpt lat="32.2309600" lon="34.9962300">
<ele>69.690002</ele>
<time>2024-05-01T21:00:09.843Z</time>
</trkpt>
<trkpt lat="32.2309600" lon="34.9963500">
<ele>68.820000</ele>
<time>2024-05-01T21:00:09.843Z</time>
</trkpt>
<trkpt lat="32.2309600" lon="34.9964500">
<ele>68.759995</ele>
<time>2024-05-01T21:00:09.843Z</time>
</trkpt>
<trkpt lat="32.2309600" lon="34.9966000">
<ele>69.299995</ele>
<time>2024-05-01T21:00:09.843Z</time>
</trkpt>
<trkpt lat="32.2309400" lon="34.9966900">
<ele>69.730003</ele>
<time>2024-05-01T21:00:09.843Z</time>
</trkpt>
<trkpt lat="32.2309300" lon="34.9968300">
<ele>70.290001</ele>
<time>2024-05-01T21:00:09.843Z</time>
</trkpt>
<trkpt lat="32.2308800" lon="34.9969700">
<ele>70.150002</ele>
<time>2024-05-01T21:00:09.843Z</time>
</trkpt>
<trkpt lat="32.2308000" lon="34.9970500">
<ele>70.190002</ele>
<time>2024-05-01T21:00:09.843Z</time>
</trkpt>
<trkpt lat="32.2307200" lon="34.9971400">
<ele>70.430000</ele>
<time>2024-05-01T21:00:09.843Z</time>
</trkpt>
<trkpt lat="32.2306700" lon="34.9972300">
<ele>70.659996</ele>
<time>2024-05-01T21:00:09.843Z</time>
</trkpt>
<trkpt lat="32.2306100" lon="34.9973700">
<ele>70.209999</ele>
<time>2024-05-01T21:00:09.843Z</time>
</trkpt>
<trkpt lat="32.2305600" lon="34.9974900">
<ele>70.010002</ele>
<time>2024-05-01T21:00:09.843Z</time>
</trkpt>
<trkpt lat="32.2304700" lon="34.9975900">
<ele>70.559998</ele>
<time>2024-05-01T21:00:09.843Z</time>
</trkpt>
<trkpt lat="32.2304200" lon="34.9976900">
<ele>71.739998</ele>
<time>2024-05-01T21:00:09.843Z</time>
</trkpt>
<trkpt lat="32.2303600" lon="34.9978100">
<ele>73.580002</ele>
<time>2024-05-01T21:00:09.844Z</time>
</trkpt>
<trkpt lat="32.2302900" lon="34.9979200">
<ele>75.560005</ele>
<time>2024-05-01T21:00:09.844Z</time>
</trkpt>
<trkpt lat="32.2302100" lon="34.9979900">
<ele>74.610001</ele>
<time>2024-05-01T21:00:09.844Z</time>
</trkpt>
<trkpt lat="32.2301200" lon="34.9980800">
<ele>72.330002</ele>
<time>2024-05-01T21:00:09.844Z</time>
</trkpt>
<trkpt lat="32.2300300" lon="34.9981700">
<ele>69.400002</ele>
<time>2024-05-01T21:00:09.844Z</time>
</trkpt>
<trkpt lat="32.2299700" lon="34.9983000">
<ele>68.229996</ele>
<time>2024-05-01T21:00:09.844Z</time>
</trkpt>
<trkpt lat="32.2298600" lon="34.9983800">
<ele>66.650002</ele>
<time>2024-05-01T21:00:09.844Z</time>
</trkpt>
<trkpt lat="32.2297700" lon="34.9984300">
<ele>65.650002</ele>
<time>2024-05-01T21:00:09.844Z</time>
</trkpt>
<trkpt lat="32.2296900" lon="34.9985000">
<ele>65.910004</ele>
<time>2024-05-01T21:00:09.844Z</time>
</trkpt>
<trkpt lat="32.2296600" lon="34.9986200">
<ele>67.630005</ele>
<time>2024-05-01T21:00:09.844Z</time>
</trkpt>
<trkpt lat="32.2296500" lon="34.9987500">
<ele>68.720001</ele>
<time>2024-05-01T21:00:09.844Z</time>
</trkpt>
<trkpt lat="32.2296400" lon="34.9988700">
<ele>69.650002</ele>
<time>2024-05-01T21:00:09.844Z</time>
</trkpt>
<trkpt lat="32.2296100" lon="34.9989900">
<ele>71.129997</ele>
<time>2024-05-01T21:00:09.844Z</time>
</trkpt>
<trkpt lat="32.2295500" lon="34.9991000">
<ele>72.500000</ele>
<time>2024-05-01T21:00:09.844Z</time>
</trkpt>
<trkpt lat="32.2294600" lon="34.9991700">
<ele>73.130005</ele>
<time>2024-05-01T21:00:09.844Z</time>
</trkpt>
<trkpt lat="32.2293600" lon="34.9992400">
<ele>73.000000</ele>
<time>2024-05-01T21:00:09.844Z</time>
</trkpt>
<trkpt lat="32.2292500" lon="34.9993000">
<ele>72.900002</ele>
<time>2024-05-01T21:00:09.844Z</time>
</trkpt>
<trkpt lat="32.2291800" lon="34.9993700">
<ele>73.259995</ele>
<time>2024-05-01T21:00:09.844Z</time>
</trkpt>
<trkpt lat="32.2291000" lon="34.9994400">
<ele>73.000000</ele>
<time>2024-05-01T21:00:09.844Z</time>
</trkpt>
<trkpt lat="32.2289900" lon="34.9994900">
<ele>71.830002</ele>
<time>2024-05-01T21:00:09.844Z</time>
</trkpt>
<trkpt lat="32.2288700" lon="34.9995000">
<ele>70.739998</ele>
<time>2024-05-01T21:00:09.844Z</time>
</trkpt>
<trkpt lat="32.2287900" lon="34.9994900">
<ele>71.199997</ele>
<time>2024-05-01T21:00:09.844Z</time>
</trkpt>
<trkpt lat="32.2287000" lon="34.9995000">
<ele>71.959999</ele>
<time>2024-05-01T21:00:09.844Z</time>
</trkpt>
<trkpt lat="32.2286100" lon="34.9995000">
<ele>72.590004</ele>
<time>2024-05-01T21:00:09.844Z</time>
</trkpt>
<trkpt lat="32.2285200" lon="34.9995000">
<ele>71.419998</ele>
<time>2024-05-01T21:00:09.844Z</time>
</trkpt>
<trkpt lat="32.2284100" lon="34.9994900">
<ele>69.830002</ele>
<time>2024-05-01T21:00:09.844Z</time>
</trkpt>
<trkpt lat="32.2283500" lon="34.9994400">
<ele>68.139999</ele>
<time>2024-05-01T21:00:09.844Z</time>
</trkpt>
<trkpt lat="32.2283000" lon="34.9993400">
<ele>65.980003</ele>
<time>2024-05-01T21:00:09.845Z</time>
</trkpt>
<trkpt lat="32.2282500" lon="34.9992500">
<ele>64.400002</ele>
<time>2024-05-01T21:00:09.845Z</time>
</trkpt>
<trkpt lat="32.2282000" lon="34.9991500">
<ele>62.869999</ele>
<time>2024-05-01T21:00:09.845Z</time>
</trkpt>
<trkpt lat="32.2281700" lon="34.9990600">
<ele>62.570000</ele>
<time>2024-05-01T21:00:09.845Z</time>
</trkpt>
<trkpt lat="32.2281400" lon="34.9989400">
<ele>62.010002</ele>
<time>2024-05-01T21:00:09.845Z</time>
</trkpt>
<trkpt lat="32.2281400" lon="34.9988200">
<ele>62.790001</ele>
<time>2024-05-01T21:00:09.845Z</time>
</trkpt>
<trkpt lat="32.2281800" lon="34.9987500">
<ele>63.600002</ele>
<time>2024-05-01T21:00:09.845Z</time>
</trkpt>
<trkpt lat="32.2282500" lon="34.9986600">
<ele>64.269997</ele>
<time>2024-05-01T21:00:09.845Z</time>
</trkpt>
<trkpt lat="32.2283300" lon="34.9985800">
<ele>64.489998</ele>
<time>2024-05-01T21:00:09.845Z</time>
</trkpt>
<trkpt lat="32.2283900" lon="34.9985000">
<ele>65.400002</ele>
<time>2024-05-01T21:00:09.845Z</time>
</trkpt>
<trkpt lat="32.2284500" lon="34.9984100">
<ele>65.800003</ele>
<time>2024-05-01T21:00:09.845Z</time>
</trkpt>
<trkpt lat="32.2285200" lon="34.9983300">
<ele>65.349998</ele>
<time>2024-05-01T21:00:09.845Z</time>
</trkpt>
<trkpt lat="32.2285900" lon="34.9982500">
<ele>65.000000</ele>
<time>2024-05-01T21:00:09.845Z</time>
</trkpt>
<trkpt lat="32.2286600" lon="34.9981700">
<ele>64.970001</ele>
<time>2024-05-01T21:00:09.845Z</time>
</trkpt>
<trkpt lat="32.2287300" lon="34.9981000">
<ele>64.959999</ele>
<time>2024-05-01T21:00:09.845Z</time>
</trkpt>
<trkpt lat="32.2288000" lon="34.9980200">
<ele>64.760002</ele>
<time>2024-05-01T21:00:09.845Z</time>
</trkpt>
<trkpt lat="32.2288600" lon="34.9979100">
<ele>64.370003</ele>
<time>2024-05-01T21:00:09.845Z</time>
</trkpt>
<trkpt lat="32.2289300" lon="34.9978200">
<ele>63.559998</ele>
<time>2024-05-01T21:00:09.845Z</time>
</trkpt>
<trkpt lat="32.2290000" lon="34.9977200">
<ele>63.719997</ele>
<time>2024-05-01T21:00:09.845Z</time>
</trkpt>
<trkpt lat="32.2290700" lon="34.9976100">
<ele>64.089996</ele>
<time>2024-05-01T21:00:09.845Z</time>
</trkpt>
<trkpt lat="32.2291400" lon="34.9975000">
<ele>63.670002</ele>
<time>2024-05-01T21:00:09.845Z</time>
</trkpt>
<trkpt lat="32.2292100" lon="34.9973900">
<ele>64.400002</ele>
<time>2024-05-01T21:00:09.845Z</time>
</trkpt>
<trkpt lat="32.2292800" lon="34.9972900">
<ele>65.820000</ele>
<time>2024-05-01T21:00:09.845Z</time>
</trkpt>
<trkpt lat="32.2293400" lon="34.9971800">
<ele>66.980003</ele>
<time>2024-05-01T21:00:09.845Z</time>
</trkpt>
<trkpt lat="32.2294200" lon="34.9970500">
<ele>66.029999</ele>
<time>2024-05-01T21:00:09.845Z</time>
</trkpt>
<trkpt lat="32.2294800" lon="34.9969200">
<ele>65.040001</ele>
<time>2024-05-01T21:00:09.845Z</time>
</trkpt>
<trkpt lat="32.2295600" lon="34.9967800">
<ele>65.520004</ele>
<time>2024-05-01T21:00:09.845Z</time>
</trkpt>
<trkpt lat="32.2296200" lon="34.9966300">
<ele>66.000000</ele>
<time>2024-05-01T21:00:09.846Z</time>
</trkpt>
<trkpt lat="32.2296600" lon="34.9964700">
<ele>66.860001</ele>
<time>2024-05-01T21:00:09.846Z</time>
</trkpt>
<trkpt lat="32.2296800" lon="34.9963200">
<ele>68.010002</ele>
<time>2024-05-01T21:00:09.846Z</time>
</trkpt>
<trkpt lat="32.2297000" lon="34.9961700">
<ele>69.459999</ele>
<time>2024-05-01T21:00:09.846Z</time>
</trkpt>
<trkpt lat="32.2297300" lon="34.9960200">
<ele>69.299995</ele>
<time>2024-05-01T21:00:09.846Z</time>
</trkpt>
<trkpt lat="32.2297600" lon="34.9958800">
<ele>68.180000</ele>
<time>2024-05-01T21:00:09.846Z</time>
</trkpt>
<trkpt lat="32.2297900" lon="34.9957300">
<ele>67.760002</ele>
<time>2024-05-01T21:00:09.846Z</time>
</trkpt>
<trkpt lat="32.2298100" lon="34.9956000">
<ele>67.680000</ele>
<time>2024-05-01T21:00:09.846Z</time>
</trkpt>
<trkpt lat="32.2298300" lon="34.9954500">
<ele>67.229996</ele>
<time>2024-05-01T21:00:09.846Z</time>
</trkpt>
<trkpt lat="32.2298500" lon="34.9953100">
<ele>66.660004</ele>
<time>2024-05-01T21:00:09.846Z</time>
</trkpt>
<trkpt lat="32.2298600" lon="34.9951700">
<ele>66.500000</ele>
<time>2024-05-01T21:00:09.846Z</time>
</trkpt>
<trkpt lat="32.2298700" lon="34.9950400">
<ele>66.519997</ele>
<time>2024-05-01T21:00:09.846Z</time>
</trkpt>
<trkpt lat="32.2298900" lon="34.9949200">
<ele>66.430000</ele>
<time>2024-05-01T21:00:09.846Z</time>
</trkpt>
<trkpt lat="32.2299300" lon="34.9948000">
<ele>66.209999</ele>
<time>2024-05-01T21:00:09.846Z</time>
</trkpt>
<trkpt lat="32.2300000" lon="34.9946900">
<ele>65.880005</ele>
<time>2024-05-01T21:00:09.846Z</time>
</trkpt>
<trkpt lat="32.2300400" lon="34.9945900">
<ele>65.669998</ele>
<time>2024-05-01T21:00:09.846Z</time>
</trkpt>
<trkpt lat="32.2300400" lon="34.9944800">
<ele>65.159996</ele>
<time>2024-05-01T21:00:09.846Z</time>
</trkpt>
<trkpt lat="32.2300200" lon="34.9943700">
<ele>64.980003</ele>
<time>2024-05-01T21:00:09.846Z</time>
</trkpt>
<trkpt lat="32.2299800" lon="34.9942400">
<ele>65.070000</ele>
<time>2024-05-01T21:00:09.846Z</time>
</trkpt>
<trkpt lat="32.2299500" lon="34.9941400">
<ele>65.259995</ele>
<time>2024-05-01T21:00:09.846Z</time>
</trkpt>
<trkpt lat="32.2299400" lon="34.9940200">
<ele>65.629997</ele>
<time>2024-05-01T21:00:09.846Z</time>
</trkpt>
<trkpt lat="32.2299200" lon="34.9938900">
<ele>66.000000</ele>
<time>2024-05-01T21:00:09.846Z</time>
</trkpt>
<trkpt lat="32.2299200" lon="34.9937300">
<ele>67.309998</ele>
<time>2024-05-01T21:00:09.846Z</time>
</trkpt>
<trkpt lat="32.2299300" lon="34.9936000">
<ele>68.150002</ele>
<time>2024-05-01T21:00:09.846Z</time>
</trkpt>
<trkpt lat="32.2299300" lon="34.9934800">
<ele>67.070000</ele>
<time>2024-05-01T21:00:09.846Z</time>
</trkpt>
<trkpt lat="32.2299500" lon="34.9933200">
<ele>65.440002</ele>
<time>2024-05-01T21:00:09.846Z</time>
</trkpt>
<trkpt lat="32.2299900" lon="34.9932200">
<ele>64.290001</ele>
<time>2024-05-01T21:00:09.847Z</time>
</trkpt>
<trkpt lat="32.2300200" lon="34.9930600">
<ele>63.029999</ele>
<time>2024-05-01T21:00:09.847Z</time>
</trkpt>
<trkpt lat="32.2300900" lon="34.9930000">
<ele>63.269997</ele>
<time>2024-05-01T21:00:09.847Z</time>
</trkpt>
<trkpt lat="32.2301400" lon="34.9929300">
<ele>63.450001</ele>
<time>2024-05-01T21:00:09.847Z</time>
</trkpt>
<trkpt lat="32.2301600" lon="34.9928400">
<ele>63.660000</ele>
<time>2024-05-01T21:00:09.847Z</time>
</trkpt>
<trkpt lat="32.2301500" lon="34.9927000">
<ele>64.459999</ele>
<time>2024-05-01T21:00:09.847Z</time>
</trkpt>
<trkpt lat="32.2300800" lon="34.9926700">
<ele>65.360001</ele>
<time>2024-05-01T21:00:09.847Z</time>
</trkpt>
<trkpt lat="32.2299700" lon="34.9926500">
<ele>66.590004</ele>
<time>2024-05-01T21:00:09.847Z</time>
</trkpt>
<trkpt lat="32.2298600" lon="34.9926300">
<ele>67.639999</ele>
<time>2024-05-01T21:00:09.847Z</time>
</trkpt>
<trkpt lat="32.2297500" lon="34.9926200">
<ele>68.630005</ele>
<time>2024-05-01T21:00:09.847Z</time>
</trkpt>
<trkpt lat="32.2296700" lon="34.9925800">
<ele>70.550003</ele>
<time>2024-05-01T21:00:09.847Z</time>
</trkpt>
<trkpt lat="32.2296000" lon="34.9924800">
<ele>73.150002</ele>
<time>2024-05-01T21:00:09.847Z</time>
</trkpt>
<trkpt lat="32.2295100" lon="34.9923900">
<ele>73.800003</ele>
<time>2024-05-01T21:00:09.847Z</time>
</trkpt>
<trkpt lat="32.2294400" lon="34.9922900">
<ele>73.019997</ele>
<time>2024-05-01T21:00:09.847Z</time>
</trkpt>
<trkpt lat="32.2293800" lon="34.9921800">
<ele>72.010002</ele>
<time>2024-05-01T21:00:09.847Z</time>
</trkpt>
<trkpt lat="32.2293100" lon="34.9920700">
<ele>71.320000</ele>
<time>2024-05-01T21:00:09.847Z</time>
</trkpt>
<trkpt lat="32.2292000" lon="34.9920100">
<ele>71.470001</ele>
<time>2024-05-01T21:00:09.847Z</time>
</trkpt>
<trkpt lat="32.2291000" lon="34.9919800">
<ele>71.860001</ele>
<time>2024-05-01T21:00:09.847Z</time>
</trkpt>
<trkpt lat="32.2290300" lon="34.9918800">
<ele>71.980003</ele>
<time>2024-05-01T21:00:09.847Z</time>
</trkpt>
<trkpt lat="32.2289500" lon="34.9917600">
<ele>73.300003</ele>
<time>2024-05-01T21:00:09.847Z</time>
</trkpt>
<trkpt lat="32.2289000" lon="34.9916600">
<ele>74.690002</ele>
<time>2024-05-01T21:00:09.847Z</time>
</trkpt>
<trkpt lat="32.2288900" lon="34.9915000">
<ele>73.180000</ele>
<time>2024-05-01T21:00:09.847Z</time>
</trkpt>
<trkpt lat="32.2288500" lon="34.9914100">
<ele>72.360001</ele>
<time>2024-05-01T21:00:09.847Z</time>
</trkpt>
<trkpt lat="32.2288200" lon="34.9912900">
<ele>72.160004</ele>
<time>2024-05-01T21:00:09.847Z</time>
</trkpt>
<trkpt lat="32.2288100" lon="34.9911600">
<ele>72.160004</ele>
<time>2024-05-01T21:00:09.847Z</time>
</trkpt>
<trkpt lat="32.2287800" lon="34.9910400">
<ele>71.750000</ele>
<time>2024-05-01T21:00:09.847Z</time>
</trkpt>
<trkpt lat="32.2287400" lon="34.9909200">
<ele>70.659996</ele>
<time>2024-05-01T21:00:09.848Z</time>
</trkpt>
<trkpt lat="32.2286600" lon="34.9908300">
<ele>69.759995</ele>
<time>2024-05-01T21:00:09.848Z</time>
</trkpt>
<trkpt lat="32.2285600" lon="34.9907500">
<ele>68.379997</ele>
<time>2024-05-01T21:00:09.848Z</time>
</trkpt>
<trkpt lat="32.2284500" lon="34.9907200">
<ele>68.129997</ele>
<time>2024-05-01T21:00:09.848Z</time>
</trkpt>
<trkpt lat="32.2283900" lon="34.9906300">
<ele>66.400002</ele>
<time>2024-05-01T21:00:09.848Z</time>
</trkpt>
<trkpt lat="32.2283400" lon="34.9905700">
<ele>65.290001</ele>
<time>2024-05-01T21:00:09.848Z</time>
</trkpt>
<trkpt lat="32.2282400" lon="34.9905600">
<ele>66.419998</ele>
<time>2024-05-01T21:00:09.848Z</time>
</trkpt>
<trkpt lat="32.2281500" lon="34.9905900">
<ele>68.139999</ele>
<time>2024-05-01T21:00:09.848Z</time>
</trkpt>
<trkpt lat="32.2280600" lon="34.9906200">
<ele>69.639999</ele>
<time>2024-05-01T21:00:09.848Z</time>
</trkpt>
<trkpt lat="32.2279700" lon="34.9906200">
<ele>70.380005</ele>
<time>2024-05-01T21:00:09.848Z</time>
</trkpt>
<trkpt lat="32.2278800" lon="34.9906200">
<ele>71.110001</ele>
<time>2024-05-01T21:00:09.848Z</time>
</trkpt>
<trkpt lat="32.2277800" lon="34.9906300">
<ele>72.050003</ele>
<time>2024-05-01T21:00:09.848Z</time>
</trkpt>
<trkpt lat="32.2276800" lon="34.9906200">
<ele>71.930000</ele>
<time>2024-05-01T21:00:09.848Z</time>
</trkpt>
<trkpt lat="32.2275800" lon="34.9906300">
<ele>72.070000</ele>
<time>2024-05-01T21:00:09.848Z</time>
</trkpt>
<trkpt lat="32.2275300" lon="34.9907500">
<ele>73.800003</ele>
<time>2024-05-01T21:00:09.848Z</time>
</trkpt>
<trkpt lat="32.2274400" lon="34.9908600">
<ele>75.190002</ele>
<time>2024-05-01T21:00:09.848Z</time>
</trkpt>
<trkpt lat="32.2273500" lon="34.9909100">
<ele>75.709999</ele>
<time>2024-05-01T21:00:09.848Z</time>
</trkpt>
<trkpt lat="32.2272800" lon="34.9909800">
<ele>76.739998</ele>
<time>2024-05-01T21:00:09.848Z</time>
</trkpt>
<trkpt lat="32.2271900" lon="34.9910900">
<ele>78.239998</ele>
<time>2024-05-01T21:00:09.848Z</time>
</trkpt>
<trkpt lat="32.2271700" lon="34.9912200">
<ele>79.070000</ele>
<time>2024-05-01T21:00:09.848Z</time>
</trkpt>
<trkpt lat="32.2271600" lon="34.9913300">
<ele>79.550003</ele>
<time>2024-05-01T21:00:09.848Z</time>
</trkpt>
<trkpt lat="32.2271600" lon="34.9914500">
<ele>79.929993</ele>
<time>2024-05-01T21:00:09.848Z</time>
</trkpt>
<trkpt lat="32.2271500" lon="34.9915600">
<ele>79.860001</ele>
<time>2024-05-01T21:00:09.848Z</time>
</trkpt>
<trkpt lat="32.2271200" lon="34.9917000">
<ele>79.239998</ele>
<time>2024-05-01T21:00:09.848Z</time>
</trkpt>
<trkpt lat="32.2270900" lon="34.9918300">
<ele>77.639999</ele>
<time>2024-05-01T21:00:09.848Z</time>
</trkpt>
<trkpt lat="32.2270900" lon="34.9919700">
<ele>76.340004</ele>
<time>2024-05-01T21:00:09.848Z</time>
</trkpt>
<trkpt lat="32.2270800" lon="34.9920800">
<ele>74.989998</ele>
<time>2024-05-01T21:00:09.849Z</time>
</trkpt>
<trkpt lat="32.2270700" lon="34.9921900">
<ele>73.690002</ele>
<time>2024-05-01T21:00:09.849Z</time>
</trkpt>
<trkpt lat="32.2270600" lon="34.9923100">
<ele>72.989998</ele>
<time>2024-05-01T21:00:09.849Z</time>
</trkpt>
<trkpt lat="32.2270300" lon="34.9924600">
<ele>72.400002</ele>
<time>2024-05-01T21:00:09.849Z</time>
</trkpt>
<trkpt lat="32.2269500" lon="34.9925100">
<ele>72.019997</ele>
<time>2024-05-01T21:00:09.849Z</time>
</trkpt>
<trkpt lat="32.2268800" lon="34.9925900">
<ele>70.760002</ele>
<time>2024-05-01T21:00:09.849Z</time>
</trkpt>
<trkpt lat="32.2268300" lon="34.9927300">
<ele>69.599998</ele>
<time>2024-05-01T21:00:09.849Z</time>
</trkpt>
<trkpt lat="32.2267900" lon="34.9928600">
<ele>69.519997</ele>
<time>2024-05-01T21:00:09.849Z</time>
</trkpt>
<trkpt lat="32.2266800" lon="34.9928700">
<ele>66.980003</ele>
<time>2024-05-01T21:00:09.849Z</time>
</trkpt>
<trkpt lat="32.2265500" lon="34.9928600">
<ele>65.379997</ele>
<time>2024-05-01T21:00:09.849Z</time>
</trkpt>
<trkpt lat="32.2264500" lon="34.9928300">
<ele>64.379997</ele>
<time>2024-05-01T21:00:09.849Z</time>
</trkpt>
<trkpt lat="32.2263600" lon="34.9928000">
<ele>64.029999</ele>
<time>2024-05-01T21:00:09.849Z</time>
</trkpt>
<trkpt lat="32.2262800" lon="34.9927600">
<ele>64.339996</ele>
<time>2024-05-01T21:00:09.849Z</time>
</trkpt>
<trkpt lat="32.2261900" lon="34.9927200">
<ele>64.419998</ele>
<time>2024-05-01T21:00:09.849Z</time>
</trkpt>
<trkpt lat="32.2261000" lon="34.9926900">
<ele>64.610001</ele>
<time>2024-05-01T21:00:09.849Z</time>
</trkpt>
<trkpt lat="32.2260100" lon="34.9926500">
<ele>66.400002</ele>
<time>2024-05-01T21:00:09.849Z</time>
</trkpt>
<trkpt lat="32.2259200" lon="34.9926200">
<ele>68.480003</ele>
<time>2024-05-01T21:00:09.849Z</time>
</trkpt>
<trkpt lat="32.2258300" lon="34.9926100">
<ele>70.599998</ele>
<time>2024-05-01T21:00:09.849Z</time>
</trkpt>
<trkpt lat="32.2257400" lon="34.9925900">
<ele>70.680000</ele>
<time>2024-05-01T21:00:09.849Z</time>
</trkpt>
<trkpt lat="32.2256300" lon="34.9925500">
<ele>70.820000</ele>
<time>2024-05-01T21:00:09.849Z</time>
</trkpt>
<trkpt lat="32.2255600" lon="34.9924500">
<ele>71.169998</ele>
<time>2024-05-01T21:00:09.849Z</time>
</trkpt>
<trkpt lat="32.2255000" lon="34.9923200">
<ele>72.379997</ele>
<time>2024-05-01T21:00:09.849Z</time>
</trkpt>
<trkpt lat="32.2254500" lon="34.9922200">
<ele>73.500000</ele>
<time>2024-05-01T21:00:09.849Z</time>
</trkpt>
<trkpt lat="32.2254000" lon="34.9921300">
<ele>73.389999</ele>
<time>2024-05-01T21:00:09.849Z</time>
</trkpt>
<trkpt lat="32.2253600" lon="34.9920200">
<ele>72.849998</ele>
<time>2024-05-01T21:00:09.849Z</time>
</trkpt>
<trkpt lat="32.2253000" lon="34.9919200">
<ele>72.660004</ele>
<time>2024-05-01T21:00:09.849Z</time>
</trkpt>
<trkpt lat="32.2252500" lon="34.9918300">
<ele>73.529999</ele>
<time>2024-05-01T21:00:09.849Z</time>
</trkpt>
<trkpt lat="32.2252000" lon="34.9917300">
<ele>74.959999</ele>
<time>2024-05-01T21:00:09.850Z</time>
</trkpt>
<trkpt lat="32.2251400" lon="34.9916400">
<ele>76.480003</ele>
<time>2024-05-01T21:00:09.850Z</time>
</trkpt>
<trkpt lat="32.2250800" lon="34.9915400">
<ele>76.449997</ele>
<time>2024-05-01T21:00:09.850Z</time>
</trkpt>
<trkpt lat="32.2250200" lon="34.9914400">
<ele>75.800003</ele>
<time>2024-05-01T21:00:09.850Z</time>
</trkpt>
<trkpt lat="32.2249600" lon="34.9913500">
<ele>75.489998</ele>
<time>2024-05-01T21:00:09.850Z</time>
</trkpt>
<trkpt lat="32.2248800" lon="34.9912300">
<ele>76.090004</ele>
<time>2024-05-01T21:00:09.850Z</time>
</trkpt>
<trkpt lat="32.2248200" lon="34.9911400">
<ele>76.870003</ele>
<time>2024-05-01T21:00:09.850Z</time>
</trkpt>
<trkpt lat="32.2247500" lon="34.9910600">
<ele>77.909996</ele>
<time>2024-05-01T21:00:09.850Z</time>
</trkpt>
<trkpt lat="32.2246800" lon="34.9909800">
<ele>78.220001</ele>
<time>2024-05-01T21:00:09.850Z</time>
</trkpt>
<trkpt lat="32.2246000" lon="34.9909100">
<ele>78.930000</ele>
<time>2024-05-01T21:00:09.850Z</time>
</trkpt>
<trkpt lat="32.2245100" lon="34.9908200">
<ele>79.980003</ele>
<time>2024-05-01T21:00:09.850Z</time>
</trkpt>
<trkpt lat="32.2243900" lon="34.9908100">
<ele>81.950005</ele>
<time>2024-05-01T21:00:09.850Z</time>
</trkpt>
<trkpt lat="32.2242900" lon="34.9908200">
<ele>82.329994</ele>
<time>2024-05-01T21:00:09.850Z</time>
</trkpt>
<trkpt lat="32.2241900" lon="34.9908200">
<ele>82.599998</ele>
<time>2024-05-01T21:00:09.850Z</time>
</trkpt>
<trkpt lat="32.2240900" lon="34.9908200">
<ele>80.580002</ele>
<time>2024-05-01T21:00:09.850Z</time>
</trkpt>
<trkpt lat="32.2239800" lon="34.9908200">
<ele>77.580002</ele>
<time>2024-05-01T21:00:09.850Z</time>
</trkpt>
<trkpt lat="32.2238900" lon="34.9908300">
<ele>75.059998</ele>
<time>2024-05-01T21:00:09.850Z</time>
</trkpt>
<trkpt lat="32.2237900" lon="34.9908200">
<ele>75.379997</ele>
<time>2024-05-01T21:00:09.850Z</time>
</trkpt>
<trkpt lat="32.2236800" lon="34.9908200">
<ele>75.699997</ele>
<time>2024-05-01T21:00:09.850Z</time>
</trkpt>
<trkpt lat="32.2235700" lon="34.9908200">
<ele>76.349998</ele>
<time>2024-05-01T21:00:09.850Z</time>
</trkpt>
<trkpt lat="32.2234800" lon="34.9908100">
<ele>77.250000</ele>
<time>2024-05-01T21:00:09.850Z</time>
</trkpt>
<trkpt lat="32.2234300" lon="34.9907600">
<ele>77.430000</ele>
<time>2024-05-01T21:00:09.850Z</time>
</trkpt>
<trkpt lat="32.2233300" lon="34.9907600">
<ele>78.440002</ele>
<time>2024-05-01T21:00:09.850Z</time>
</trkpt>
<trkpt lat="32.2232700" lon="34.9907900">
<ele>78.079994</ele>
<time>2024-05-01T21:00:09.850Z</time>
</trkpt>
<trkpt lat="32.2231800" lon="34.9907700">
<ele>77.139999</ele>
<time>2024-05-01T21:00:09.850Z</time>
</trkpt>
<trkpt lat="32.2231300" lon="34.9907200">
<ele>76.589996</ele>
<time>2024-05-01T21:00:09.850Z</time>
</trkpt>
<trkpt lat="32.2231000" lon="34.9906100">
<ele>76.220001</ele>
<time>2024-05-01T21:00:09.851Z</time>
</trkpt>
<trkpt lat="32.2231000" lon="34.9905000">
<ele>76.400002</ele>
<time>2024-05-01T21:00:09.851Z</time>
</trkpt>
<trkpt lat="32.2230700" lon="34.9903900">
<ele>77.090004</ele>
<time>2024-05-01T21:00:09.851Z</time>
</trkpt>
<trkpt lat="32.2230000" lon="34.9903000">
<ele>78.870003</ele>
<time>2024-05-01T21:00:09.851Z</time>
</trkpt>
<trkpt lat="32.2229800" lon="34.9901500">
<ele>79.030006</ele>
<time>2024-05-01T21:00:09.851Z</time>
</trkpt>
<trkpt lat="32.2229100" lon="34.9900300">
<ele>80.199997</ele>
<time>2024-05-01T21:00:09.851Z</time>
</trkpt>
<trkpt lat="32.2228500" lon="34.9899000">
<ele>80.270004</ele>
<time>2024-05-01T21:00:09.851Z</time>
</trkpt>
<trkpt lat="32.2228200" lon="34.9897800">
<ele>79.589996</ele>
<time>2024-05-01T21:00:09.851Z</time>
</trkpt>
<trkpt lat="32.2228100" lon="34.9896300">
<ele>78.519997</ele>
<time>2024-05-01T21:00:09.851Z</time>
</trkpt>
<trkpt lat="32.2228100" lon="34.9895100">
<ele>77.659996</ele>
<time>2024-05-01T21:00:09.851Z</time>
</trkpt>
<trkpt lat="32.2228200" lon="34.9893800">
<ele>76.739998</ele>
<time>2024-05-01T21:00:09.851Z</time>
</trkpt>
<trkpt lat="32.2228500" lon="34.9892200">
<ele>75.580002</ele>
<time>2024-05-01T21:00:09.851Z</time>
</trkpt>
<trkpt lat="32.2228700" lon="34.9891100">
<ele>75.139999</ele>
<time>2024-05-01T21:00:09.851Z</time>
</trkpt>
<trkpt lat="32.2229000" lon="34.9890000">
<ele>74.889999</ele>
<time>2024-05-01T21:00:09.851Z</time>
</trkpt>
<trkpt lat="32.2229400" lon="34.9889000">
<ele>74.619995</ele>
<time>2024-05-01T21:00:09.851Z</time>
</trkpt>
<trkpt lat="32.2230200" lon="34.9888200">
<ele>73.939995</ele>
<time>2024-05-01T21:00:09.851Z</time>
</trkpt>
<trkpt lat="32.2230700" lon="34.9887200">
<ele>74.000000</ele>
<time>2024-05-01T21:00:09.851Z</time>
</trkpt>
<trkpt lat="32.2230900" lon="34.9886100">
<ele>74.379997</ele>
<time>2024-05-01T21:00:09.851Z</time>
</trkpt>
<trkpt lat="32.2231400" lon="34.9885100">
<ele>73.370003</ele>
<time>2024-05-01T21:00:09.851Z</time>
</trkpt>
<trkpt lat="32.2231900" lon="34.9884000">
<ele>72.209999</ele>
<time>2024-05-01T21:00:09.851Z</time>
</trkpt>
<trkpt lat="32.2232200" lon="34.9882800">
<ele>71.720001</ele>
<time>2024-05-01T21:00:09.851Z</time>
</trkpt>
<trkpt lat="32.2232600" lon="34.9881700">
<ele>71.330002</ele>
<time>2024-05-01T21:00:09.851Z</time>
</trkpt>
<trkpt lat="32.2233600" lon="34.9881000">
<ele>69.570000</ele>
<time>2024-05-01T21:00:09.851Z</time>
</trkpt>
<trkpt lat="32.2234600" lon="34.9880200">
<ele>68.839996</ele>
<time>2024-05-01T21:00:09.851Z</time>
</trkpt>
<trkpt lat="32.2235400" lon="34.9879200">
<ele>68.139999</ele>
<time>2024-05-01T21:00:09.851Z</time>
</trkpt>
<trkpt lat="32.2236000" lon="34.9878200">
<ele>67.220001</ele>
<time>2024-05-01T21:00:09.851Z</time>
</trkpt>
<trkpt lat="32.2236400" lon="34.9876900">
<ele>66.970001</ele>
<time>2024-05-01T21:00:09.852Z</time>
</trkpt>
<trkpt lat="32.2237200" lon="34.9876000">
<ele>66.209999</ele>
<time>2024-05-01T21:00:09.852Z</time>
</trkpt>
<trkpt lat="32.2237500" lon="34.9874500">
<ele>66.180000</ele>
<time>2024-05-01T21:00:09.852Z</time>
</trkpt>
<trkpt lat="32.2237900" lon="34.9873300">
<ele>65.860001</ele>
<time>2024-05-01T21:00:09.852Z</time>
</trkpt>
<trkpt lat="32.2238300" lon="34.9872100">
<ele>65.320000</ele>
<time>2024-05-01T21:00:09.852Z</time>
</trkpt>
<trkpt lat="32.2238800" lon="34.9871000">
<ele>64.629997</ele>
<time>2024-05-01T21:00:09.852Z</time>
</trkpt>
<trkpt lat="32.2239200" lon="34.9869800">
<ele>64.750000</ele>
<time>2024-05-01T21:00:09.852Z</time>
</trkpt>
<trkpt lat="32.2239400" lon="34.9868400">
<ele>64.889999</ele>
<time>2024-05-01T21:00:09.852Z</time>
</trkpt>
<trkpt lat="32.2239400" lon="34.9867100">
<ele>64.970001</ele>
<time>2024-05-01T21:00:09.852Z</time>
</trkpt>
<trkpt lat="32.2239100" lon="34.9866000">
<ele>65.220001</ele>
<time>2024-05-01T21:00:09.852Z</time>
</trkpt>
<trkpt lat="32.2238400" lon="34.9865100">
<ele>66.440002</ele>
<time>2024-05-01T21:00:09.852Z</time>
</trkpt>
<trkpt lat="32.2237500" lon="34.9864200">
<ele>68.389999</ele>
<time>2024-05-01T21:00:09.852Z</time>
</trkpt>
<trkpt lat="32.2236600" lon="34.9863600">
<ele>70.139999</ele>
<time>2024-05-01T21:00:09.852Z</time>
</trkpt>
<trkpt lat="32.2236300" lon="34.9862200">
<ele>70.700005</ele>
<time>2024-05-01T21:00:09.852Z</time>
</trkpt>
<trkpt lat="32.2235700" lon="34.9861200">
<ele>71.129997</ele>
<time>2024-05-01T21:00:09.852Z</time>
</trkpt>
<trkpt lat="32.2234500" lon="34.9860700">
<ele>70.990005</ele>
<time>2024-05-01T21:00:09.852Z</time>
</trkpt>
<trkpt lat="32.2233400" lon="34.9860400">
<ele>70.949997</ele>
<time>2024-05-01T21:00:09.852Z</time>
</trkpt>
<trkpt lat="32.2232200" lon="34.9860200">
<ele>70.540001</ele>
<time>2024-05-01T21:00:09.852Z</time>
</trkpt>
<trkpt lat="32.2231200" lon="34.9860200">
<ele>70.410004</ele>
<time>2024-05-01T21:00:09.852Z</time>
</trkpt>
<trkpt lat="32.2229900" lon="34.9860300">
<ele>71.290001</ele>
<time>2024-05-01T21:00:09.852Z</time>
</trkpt>
<trkpt lat="32.2228700" lon="34.9860500">
<ele>73.349998</ele>
<time>2024-05-01T21:00:09.852Z</time>
</trkpt>
<trkpt lat="32.2227700" lon="34.9861200">
<ele>75.879997</ele>
<time>2024-05-01T21:00:09.852Z</time>
</trkpt>
<trkpt lat="32.2226600" lon="34.9861700">
<ele>75.299995</ele>
<time>2024-05-01T21:00:09.852Z</time>
</trkpt>
<trkpt lat="32.2225500" lon="34.9861900">
<ele>75.260002</ele>
<time>2024-05-01T21:00:09.852Z</time>
</trkpt>
<trkpt lat="32.2224300" lon="34.9861900">
<ele>76.830002</ele>
<time>2024-05-01T21:00:09.852Z</time>
</trkpt>
<trkpt lat="32.2223100" lon="34.9861800">
<ele>79.529999</ele>
<time>2024-05-01T21:00:09.852Z</time>
</trkpt>
<trkpt lat="32.2222200" lon="34.9861500">
<ele>81.780006</ele>
<time>2024-05-01T21:00:09.852Z</time>
</trkpt>
<trkpt lat="32.2221300" lon="34.9861200">
<ele>84.260002</ele>
<time>2024-05-01T21:00:09.853Z</time>
</trkpt>
<trkpt lat="32.2220400" lon="34.9861200">
<ele>86.529999</ele>
<time>2024-05-01T21:00:09.853Z</time>
</trkpt>
<trkpt lat="32.2219400" lon="34.9861400">
<ele>88.810005</ele>
<time>2024-05-01T21:00:09.853Z</time>
</trkpt>
<trkpt lat="32.2218500" lon="34.9862000">
<ele>88.919998</ele>
<time>2024-05-01T21:00:09.853Z</time>
</trkpt>
<trkpt lat="32.2217600" lon="34.9862300">
<ele>89.379997</ele>
<time>2024-05-01T21:00:09.853Z</time>
</trkpt>
<trkpt lat="32.2216900" lon="34.9863000">
<ele>89.799995</ele>
<time>2024-05-01T21:00:09.853Z</time>
</trkpt>
<trkpt lat="32.2216200" lon="34.9863800">
<ele>89.489998</ele>
<time>2024-05-01T21:00:09.853Z</time>
</trkpt>
<trkpt lat="32.2215400" lon="34.9864400">
<ele>88.800003</ele>
<time>2024-05-01T21:00:09.853Z</time>
</trkpt>
<trkpt lat="32.2214700" lon="34.9864900">
<ele>88.389999</ele>
<time>2024-05-01T21:00:09.853Z</time>
</trkpt>
<trkpt lat="32.2214000" lon="34.9865300">
<ele>88.099998</ele>
<time>2024-05-01T21:00:09.853Z</time>
</trkpt>
<trkpt lat="32.2213100" lon="34.9865200">
<ele>85.839996</ele>
<time>2024-05-01T21:00:09.853Z</time>
</trkpt>
<trkpt lat="32.2212400" lon="34.9864600">
<ele>83.879997</ele>
<time>2024-05-01T21:00:09.853Z</time>
</trkpt>
<trkpt lat="32.2212200" lon="34.9863400">
<ele>83.279999</ele>
<time>2024-05-01T21:00:09.853Z</time>
</trkpt>
<trkpt lat="32.2212200" lon="34.9862200">
<ele>83.110001</ele>
<time>2024-05-01T21:00:09.853Z</time>
</trkpt>
<trkpt lat="32.2211800" lon="34.9861100">
<ele>82.250000</ele>
<time>2024-05-01T21:00:09.853Z</time>
</trkpt>
<trkpt lat="32.2211600" lon="34.9859900">
<ele>83.600006</ele>
<time>2024-05-01T21:00:09.853Z</time>
</trkpt>
<trkpt lat="32.2211600" lon="34.9858700">
<ele>85.300003</ele>
<time>2024-05-01T21:00:09.853Z</time>
</trkpt>
<trkpt lat="32.2211000" lon="34.9857600">
<ele>85.699997</ele>
<time>2024-05-01T21:00:09.853Z</time>
</trkpt>
<trkpt lat="32.2210300" lon="34.9856700">
<ele>85.510002</ele>
<time>2024-05-01T21:00:09.853Z</time>
</trkpt>
<trkpt lat="32.2209700" lon="34.9855900">
<ele>85.890007</ele>
<time>2024-05-01T21:00:09.853Z</time>
</trkpt>
<trkpt lat="32.2209700" lon="34.9855200">
<ele>86.400002</ele>
<time>2024-05-01T21:00:09.853Z</time>
</trkpt>
<trkpt lat="32.2210500" lon="34.9855200">
<ele>85.820000</ele>
<time>2024-05-01T21:00:09.853Z</time>
</trkpt>
<trkpt lat="32.2211700" lon="34.9855600">
<ele>84.799995</ele>
<time>2024-05-01T21:00:09.853Z</time>
</trkpt>
<trkpt lat="32.2212700" lon="34.9855900">
<ele>84.550003</ele>
<time>2024-05-01T21:00:09.853Z</time>
</trkpt>
<trkpt lat="32.2213800" lon="34.9856500">
<ele>84.370003</ele>
<time>2024-05-01T21:00:09.853Z</time>
</trkpt>
<trkpt lat="32.2214700" lon="34.9856700">
<ele>85.120003</ele>
<time>2024-05-01T21:00:09.853Z</time>
</trkpt>
<trkpt lat="32.2215700" lon="34.9857000">
<ele>86.159996</ele>
<time>2024-05-01T21:00:09.853Z</time>
</trkpt>
<trkpt lat="32.2216700" lon="34.9856900">
<ele>86.970001</ele>
<time>2024-05-01T21:00:09.854Z</time>
</trkpt>
<trkpt lat="32.2217800" lon="34.9857300">
<ele>87.509995</ele>
<time>2024-05-01T21:00:09.854Z</time>
</trkpt>
<trkpt lat="32.2218800" lon="34.9857200">
<ele>87.639999</ele>
<time>2024-05-01T21:00:09.854Z</time>
</trkpt>
<trkpt lat="32.2219800" lon="34.9856600">
<ele>86.469994</ele>
<time>2024-05-01T21:00:09.854Z</time>
</trkpt>
<trkpt lat="32.2220700" lon="34.9855800">
<ele>84.339996</ele>
<time>2024-05-01T21:00:09.854Z</time>
</trkpt>
<trkpt lat="32.2221700" lon="34.9855700">
<ele>82.779999</ele>
<time>2024-05-01T21:00:09.854Z</time>
</trkpt>
<trkpt lat="32.2222600" lon="34.9855600">
<ele>80.910004</ele>
<time>2024-05-01T21:00:09.854Z</time>
</trkpt>
<trkpt lat="32.2223600" lon="34.9855500">
<ele>78.040001</ele>
<time>2024-05-01T21:00:09.854Z</time>
</trkpt>
<trkpt lat="32.2224700" lon="34.9855500">
<ele>74.880005</ele>
<time>2024-05-01T21:00:09.854Z</time>
</trkpt>
<trkpt lat="32.2225900" lon="34.9855400">
<ele>72.110001</ele>
<time>2024-05-01T21:00:09.854Z</time>
</trkpt>
<trkpt lat="32.2226700" lon="34.9855100">
<ele>70.489998</ele>
<time>2024-05-01T21:00:09.854Z</time>
</trkpt>
<trkpt lat="32.2227400" lon="34.9854400">
<ele>69.230003</ele>
<time>2024-05-01T21:00:09.854Z</time>
</trkpt>
<trkpt lat="32.2228200" lon="34.9853500">
<ele>68.360001</ele>
<time>2024-05-01T21:00:09.854Z</time>
</trkpt>
<trkpt lat="32.2229100" lon="34.9852700">
<ele>67.570000</ele>
<time>2024-05-01T21:00:09.854Z</time>
</trkpt>
<trkpt lat="32.2230000" lon="34.9851800">
<ele>66.389999</ele>
<time>2024-05-01T21:00:09.854Z</time>
</trkpt>
<trkpt lat="32.2231000" lon="34.9851000">
<ele>65.200005</ele>
<time>2024-05-01T21:00:09.854Z</time>
</trkpt>
<trkpt lat="32.2231800" lon="34.9850100">
<ele>64.590004</ele>
<time>2024-05-01T21:00:09.854Z</time>
</trkpt>
<trkpt lat="32.2232700" lon="34.9849200">
<ele>65.309998</ele>
<time>2024-05-01T21:00:09.854Z</time>
</trkpt>
<trkpt lat="32.2233600" lon="34.9848200">
<ele>66.379997</ele>
<time>2024-05-01T21:00:09.854Z</time>
</trkpt>
<trkpt lat="32.2234100" lon="34.9847200">
<ele>66.639999</ele>
<time>2024-05-01T21:00:09.854Z</time>
</trkpt>
<trkpt lat="32.2234300" lon="34.9845900">
<ele>67.689995</ele>
<time>2024-05-01T21:00:09.854Z</time>
</trkpt>
<trkpt lat="32.2234400" lon="34.9844700">
<ele>68.800003</ele>
<time>2024-05-01T21:00:09.854Z</time>
</trkpt>
<trkpt lat="32.2234500" lon="34.9843400">
<ele>69.000000</ele>
<time>2024-05-01T21:00:09.854Z</time>
</trkpt>
<trkpt lat="32.2234600" lon="34.9841800">
<ele>69.070000</ele>
<time>2024-05-01T21:00:09.854Z</time>
</trkpt>
<trkpt lat="32.2234500" lon="34.9840100">
<ele>69.779999</ele>
<time>2024-05-01T21:00:09.854Z</time>
</trkpt>
<trkpt lat="32.2234100" lon="34.9838500">
<ele>69.669998</ele>
<time>2024-05-01T21:00:09.854Z</time>
</trkpt>
<trkpt lat="32.2233400" lon="34.9837500">
<ele>69.020004</ele>
<time>2024-05-01T21:00:09.855Z</time>
</trkpt>
<trkpt lat="32.2232500" lon="34.9837000">
<ele>70.599998</ele>
<time>2024-05-01T21:00:09.855Z</time>
</trkpt>
<trkpt lat="32.2231600" lon="34.9835800">
<ele>71.779999</ele>
<time>2024-05-01T21:00:09.855Z</time>
</trkpt>
<trkpt lat="32.2231400" lon="34.9834600">
<ele>70.849998</ele>
<time>2024-05-01T21:00:09.855Z</time>
</trkpt>
<trkpt lat="32.2231000" lon="34.9833300">
<ele>70.150002</ele>
<time>2024-05-01T21:00:09.855Z</time>
</trkpt>
<trkpt lat="32.2230200" lon="34.9832700">
<ele>70.239998</ele>
<time>2024-05-01T21:00:09.855Z</time>
</trkpt>
<trkpt lat="32.2230000" lon="34.9831500">
<ele>68.299995</ele>
<time>2024-05-01T21:00:09.855Z</time>
</trkpt>
<trkpt lat="32.2229700" lon="34.9830200">
<ele>66.619995</ele>
<time>2024-05-01T21:00:09.855Z</time>
</trkpt>
<trkpt lat="32.2229100" lon="34.9829000">
<ele>66.479996</ele>
<time>2024-05-01T21:00:09.855Z</time>
</trkpt>
<trkpt lat="32.2227800" lon="34.9828800">
<ele>68.330002</ele>
<time>2024-05-01T21:00:09.855Z</time>
</trkpt>
<trkpt lat="32.2226600" lon="34.9828100">
<ele>69.860001</ele>
<time>2024-05-01T21:00:09.855Z</time>
</trkpt>
<trkpt lat="32.2225600" lon="34.9827500">
<ele>70.840004</ele>
<time>2024-05-01T21:00:09.855Z</time>
</trkpt>
<trkpt lat="32.2224700" lon="34.9826700">
<ele>70.849998</ele>
<time>2024-05-01T21:00:09.855Z</time>
</trkpt>
<trkpt lat="32.2223900" lon="34.9825900">
<ele>70.380005</ele>
<time>2024-05-01T21:00:09.855Z</time>
</trkpt>
<trkpt lat="32.2222500" lon="34.9825600">
<ele>70.860001</ele>
<time>2024-05-01T21:00:09.855Z</time>
</trkpt>
<trkpt lat="32.2221700" lon="34.9825100">
<ele>71.190002</ele>
<time>2024-05-01T21:00:09.855Z</time>
</trkpt>
<trkpt lat="32.2221000" lon="34.9824400">
<ele>70.669998</ele>
<time>2024-05-01T21:00:09.855Z</time>
</trkpt>
<trkpt lat="32.2220300" lon="34.9823500">
<ele>69.909996</ele>
<time>2024-05-01T21:00:09.855Z</time>
</trkpt>
<trkpt lat="32.2219600" lon="34.9822700">
<ele>69.410004</ele>
<time>2024-05-01T21:00:09.855Z</time>
</trkpt>
<trkpt lat="32.2218800" lon="34.9821800">
<ele>69.279999</ele>
<time>2024-05-01T21:00:09.855Z</time>
</trkpt>
<trkpt lat="32.2218300" lon="34.9820600">
<ele>69.000000</ele>
<time>2024-05-01T21:00:09.855Z</time>
</trkpt>
<trkpt lat="32.2218200" lon="34.9819000">
<ele>68.129997</ele>
<time>2024-05-01T21:00:09.855Z</time>
</trkpt>
<trkpt lat="32.2217700" lon="34.9817800">
<ele>67.440002</ele>
<time>2024-05-01T21:00:09.855Z</time>
</trkpt>
<trkpt lat="32.2216700" lon="34.9817400">
<ele>67.519997</ele>
<time>2024-05-01T21:00:09.855Z</time>
</trkpt>
<trkpt lat="32.2215700" lon="34.9817200">
<ele>67.320000</ele>
<time>2024-05-01T21:00:09.855Z</time>
</trkpt>
<trkpt lat="32.2214800" lon="34.9817100">
<ele>67.209999</ele>
<time>2024-05-01T21:00:09.855Z</time>
</trkpt>
<trkpt lat="32.2214000" lon="34.9817200">
<ele>67.199997</ele>
<time>2024-05-01T21:00:09.855Z</time>
</trkpt>
<trkpt lat="32.2213100" lon="34.9817400">
<ele>68.400002</ele>
<time>2024-05-01T21:00:09.856Z</time>
</trkpt>
<trkpt lat="32.2212200" lon="34.9817600">
<ele>69.770004</ele>
<time>2024-05-01T21:00:09.856Z</time>
</trkpt>
<trkpt lat="32.2210900" lon="34.9818000">
<ele>71.699997</ele>
<time>2024-05-01T21:00:09.856Z</time>
</trkpt>
<trkpt lat="32.2209700" lon="34.9818100">
<ele>73.089996</ele>
<time>2024-05-01T21:00:09.856Z</time>
</trkpt>
<trkpt lat="32.2209400" lon="34.9819000">
<ele>74.939995</ele>
<time>2024-05-01T21:00:09.856Z</time>
</trkpt>
<trkpt lat="32.2209200" lon="34.9820100">
<ele>76.199997</ele>
<time>2024-05-01T21:00:09.856Z</time>
</trkpt>
<trkpt lat="32.2209100" lon="34.9821100">
<ele>76.510002</ele>
<time>2024-05-01T21:00:09.856Z</time>
</trkpt>
<trkpt lat="32.2209200" lon="34.9822100">
<ele>76.430000</ele>
<time>2024-05-01T21:00:09.856Z</time>
</trkpt>
<trkpt lat="32.2209100" lon="34.9822400">
<ele>76.589996</ele>
<time>2024-05-01T21:00:09.856Z</time>
</trkpt>
</trkseg>
</trk>
</gpx>
